<?xml version='1.0' encoding='UTF-8'?><gpx version="1.1" creator="JPX - https://github.com/jenetics/jpx" xmlns="http://www.topografix.com/GPX/1/1"><trk><trkseg><trkpt lat="45.31269637672876" lon="10.702885932820086"><ele>47.0</ele><time>2026-04-08T11:43:26.005Z</time></trkpt><trkpt lat="45.31274855602786" lon="10.70293905578708"><ele>47.0</ele><time>2026-04-08T11:43:28.005Z</time></trkpt><trkpt lat="45.312831769599214" lon="10.70300056834552"><ele>47.0</ele><time>2026-04-08T11:43:31.005Z</time></trkpt><trkpt lat="45.31290918546998" lon="10.703027534177311"><ele>47.0</ele><time>2026-04-08T11:43:34.005Z</time></trkpt><trkpt lat="45.31298769269112" lon="10.703071053501786"><ele>47.0</ele><time>2026-04-08T11:43:37.005Z</time></trkpt><trkpt lat="45.31304359472665" lon="10.703115264205929"><ele>47.0</ele><time>2026-04-08T11:43:39.005Z</time></trkpt><trkpt lat="45.31310839044742" lon="10.703157617780736"><ele>47.0</ele><time>2026-04-08T11:43:41.005Z</time></trkpt><trkpt lat="45.313183336024245" lon="10.703207331850978"><ele>47.0</ele><time>2026-04-08T11:43:44.005Z</time></trkpt><trkpt lat="45.31325961735985" lon="10.703283600080058"><ele>47.0</ele><time>2026-04-08T11:43:46.005Z</time></trkpt><trkpt lat="45.313322151642545" lon="10.703327925091338"><ele>47.0</ele><time>2026-04-08T11:43:48.005Z</time></trkpt><trkpt lat="45.313395479330616" lon="10.703396824050023"><ele>47.0</ele><time>2026-04-08T11:43:51.006Z</time></trkpt><trkpt lat="45.31347864523679" lon="10.703459671900625"><ele>47.0</ele><time>2026-04-08T11:43:54.006Z</time></trkpt><trkpt lat="45.31356707803817" lon="10.703486367471603"><ele>47.0</ele><time>2026-04-08T11:43:57.006Z</time></trkpt><trkpt lat="45.313647351297064" lon="10.703525373745064"><ele>47.0</ele><time>2026-04-08T11:44:00.006Z</time></trkpt><trkpt lat="45.31371996132745" lon="10.703587963698377"><ele>47.0</ele><time>2026-04-08T11:44:03.006Z</time></trkpt><trkpt lat="45.313788089147394" lon="10.703613358064038"><ele>47.0</ele><time>2026-04-08T11:44:06.006Z</time></trkpt><trkpt lat="45.3138624663607" lon="10.703653721210893"><ele>47.0</ele><time>2026-04-08T11:44:09.006Z</time></trkpt><trkpt lat="45.31392711155161" lon="10.70372711682936"><ele>47.0</ele><time>2026-04-08T11:44:11.006Z</time></trkpt><trkpt lat="45.31400598280758" lon="10.703782331663634"><ele>46.8</ele><time>2026-04-08T11:44:13.006Z</time></trkpt><trkpt lat="45.31409170999541" lon="10.703865921049683"><ele>46.6</ele><time>2026-04-08T11:44:15.006Z</time></trkpt><trkpt lat="45.31417968464283" lon="10.703953223571487"><ele>46.4</ele><time>2026-04-08T11:44:17.006Z</time></trkpt><trkpt lat="45.31426921118472" lon="10.704039029810925"><ele>46.199999999999996</ele><time>2026-04-08T11:44:19.006Z</time></trkpt><trkpt lat="45.31436338136088" lon="10.704101331154023"><ele>46.0</ele><time>2026-04-08T11:44:21.006Z</time></trkpt><trkpt lat="45.314450200665746" lon="10.704170289129122"><ele>46.0</ele><time>2026-04-08T11:44:23.006Z</time></trkpt><trkpt lat="45.3145302259435" lon="10.704221433297258"><ele>46.0</ele><time>2026-04-08T11:44:25.006Z</time></trkpt><trkpt lat="45.31461921044257" lon="10.70425555993035"><ele>46.0</ele><time>2026-04-08T11:44:28.006Z</time></trkpt><trkpt lat="45.31470861160876" lon="10.70430149618314"><ele>46.0</ele><time>2026-04-08T11:44:31.006Z</time></trkpt><trkpt lat="45.31479031793548" lon="10.704384018474634"><ele>46.0</ele><time>2026-04-08T11:44:33.006Z</time></trkpt><trkpt lat="45.31489464704046" lon="10.704481799570212"><ele>46.0</ele><time>2026-04-08T11:44:35.006Z</time></trkpt><trkpt lat="45.31499619449456" lon="10.704578728290638"><ele>46.0</ele><time>2026-04-08T11:44:37.006Z</time></trkpt><trkpt lat="45.31508599123341" lon="10.704673287064583"><ele>46.0</ele><time>2026-04-08T11:44:39.006Z</time></trkpt><trkpt lat="45.31516490316872" lon="10.704750584129979"><ele>46.0</ele><time>2026-04-08T11:44:41.007Z</time></trkpt><trkpt lat="45.31523106021757" lon="10.704824270483572"><ele>46.0</ele><time>2026-04-08T11:44:43.007Z</time></trkpt><trkpt lat="45.315306106941556" lon="10.704887058805266"><ele>46.0</ele><time>2026-04-08T11:44:45.007Z</time></trkpt><trkpt lat="45.31538429825221" lon="10.70492783454389"><ele>46.0</ele><time>2026-04-08T11:44:47.007Z</time></trkpt><trkpt lat="45.31546119627596" lon="10.704964263341862"><ele>46.0</ele><time>2026-04-08T11:44:49.007Z</time></trkpt><trkpt lat="45.315533588375324" lon="10.705013800094758"><ele>46.0</ele><time>2026-04-08T11:44:51.007Z</time></trkpt><trkpt lat="45.315602305306825" lon="10.705067707210533"><ele>46.0</ele><time>2026-04-08T11:44:53.007Z</time></trkpt><trkpt lat="45.31567409930501" lon="10.705129164989598"><ele>46.0</ele><time>2026-04-08T11:44:55.007Z</time></trkpt><trkpt lat="45.31577416997747" lon="10.705174381822436"><ele>46.0</ele><time>2026-04-08T11:44:57.007Z</time></trkpt><trkpt lat="45.315847881315904" lon="10.705234787989532"><ele>46.0</ele><time>2026-04-08T11:44:59.007Z</time></trkpt><trkpt lat="45.31595173660962" lon="10.705336940964543"><ele>46.0</ele><time>2026-04-08T11:45:01.007Z</time></trkpt><trkpt lat="45.316002426372954" lon="10.705398969332085"><ele>46.0</ele><time>2026-04-08T11:45:02.007Z</time></trkpt><trkpt lat="45.31609940666838" lon="10.70548513770766"><ele>46.0</ele><time>2026-04-08T11:45:04.007Z</time></trkpt><trkpt lat="45.31620410604448" lon="10.705549847542478"><ele>46.0</ele><time>2026-04-08T11:45:06.007Z</time></trkpt><trkpt lat="45.31629524263564" lon="10.705612097435559"><ele>46.0</ele><time>2026-04-08T11:45:08.007Z</time></trkpt><trkpt lat="45.31636156547241" lon="10.7056738004823"><ele>46.0</ele><time>2026-04-08T11:45:10.007Z</time></trkpt><trkpt lat="45.31643535155251" lon="10.70571020228054"><ele>46.0</ele><time>2026-04-08T11:45:12.007Z</time></trkpt><trkpt lat="45.31649498920548" lon="10.705761358692921"><ele>46.0</ele><time>2026-04-08T11:45:14.007Z</time></trkpt><trkpt lat="45.316562244284164" lon="10.70582661686705"><ele>46.0</ele><time>2026-04-08T11:45:16.007Z</time></trkpt><trkpt lat="45.316649706926874" lon="10.70588468071202"><ele>46.0</ele><time>2026-04-08T11:45:18.007Z</time></trkpt><trkpt lat="45.316719078907255" lon="10.705962189011817"><ele>46.0</ele><time>2026-04-08T11:45:20.007Z</time></trkpt><trkpt lat="45.316806463084056" lon="10.706021753632257"><ele>46.0</ele><time>2026-04-08T11:45:22.007Z</time></trkpt><trkpt lat="45.31687613356407" lon="10.706070732120745"><ele>46.0</ele><time>2026-04-08T11:45:24.007Z</time></trkpt><trkpt lat="45.31695779480127" lon="10.706152223350825"><ele>46.0</ele><time>2026-04-08T11:45:26.007Z</time></trkpt><trkpt lat="45.31705633338676" lon="10.706219702425754"><ele>46.0</ele><time>2026-04-08T11:45:28.007Z</time></trkpt><trkpt lat="45.31713999664233" lon="10.706289401777513"><ele>46.0</ele><time>2026-04-08T11:45:30.007Z</time></trkpt><trkpt lat="45.31722551356097" lon="10.706349316270542"><ele>46.0</ele><time>2026-04-08T11:45:32.008Z</time></trkpt><trkpt lat="45.317320146165265" lon="10.706421152754238"><ele>46.0</ele><time>2026-04-08T11:45:34.008Z</time></trkpt><trkpt lat="45.317404642335" lon="10.706494898086111"><ele>46.0</ele><time>2026-04-08T11:45:36.008Z</time></trkpt><trkpt lat="45.31747955564106" lon="10.70656802440873"><ele>46.333333333333336</ele><time>2026-04-08T11:45:38.008Z</time></trkpt><trkpt lat="45.317565110388664" lon="10.70661345446813"><ele>46.66666666666667</ele><time>2026-04-08T11:45:40.008Z</time></trkpt><trkpt lat="45.31761917313593" lon="10.706678345634847"><ele>47.0</ele><time>2026-04-08T11:45:42.008Z</time></trkpt><trkpt lat="45.31769609315208" lon="10.706731727465764"><ele>47.333333333333336</ele><time>2026-04-08T11:45:45.008Z</time></trkpt><trkpt lat="45.31775203338493" lon="10.70677810363916"><ele>47.666666666666664</ele><time>2026-04-08T11:45:47.008Z</time></trkpt><trkpt lat="45.317812685783494" lon="10.706823455865434"><ele>48.0</ele><time>2026-04-08T11:45:49.008Z</time></trkpt><trkpt lat="45.317883690958425" lon="10.706855137680586"><ele>48.0</ele><time>2026-04-08T11:45:51.008Z</time></trkpt><trkpt lat="45.317950844298274" lon="10.706909066484098"><ele>48.0</ele><time>2026-04-08T11:45:53.008Z</time></trkpt><trkpt lat="45.31802221254658" lon="10.706976023365845"><ele>48.0</ele><time>2026-04-08T11:45:55.008Z</time></trkpt><trkpt lat="45.31810712445508" lon="10.707025944030635"><ele>48.0</ele><time>2026-04-08T11:45:57.008Z</time></trkpt><trkpt lat="45.31820261940577" lon="10.707088997973964"><ele>48.0</ele><time>2026-04-08T11:45:59.008Z</time></trkpt><trkpt lat="45.31828454615556" lon="10.707171484356484"><ele>47.666666666666664</ele><time>2026-04-08T11:46:01.008Z</time></trkpt><trkpt lat="45.31836630337255" lon="10.707231940195703"><ele>47.333333333333336</ele><time>2026-04-08T11:46:03.008Z</time></trkpt><trkpt lat="45.318433050689926" lon="10.707293794247395"><ele>47.0</ele><time>2026-04-08T11:46:05.008Z</time></trkpt><trkpt lat="45.31851152926722" lon="10.707350800154268"><ele>46.66666666666667</ele><time>2026-04-08T11:46:08.008Z</time></trkpt><trkpt lat="45.31857205684676" lon="10.707389833882095"><ele>46.333333333333336</ele><time>2026-04-08T11:46:10.008Z</time></trkpt><trkpt lat="45.31857385041381" lon="10.707297881040796"><ele>46.0</ele><time>2026-04-08T11:46:48.008Z</time></trkpt><trkpt lat="45.318591143860175" lon="10.70719223001851"><ele>46.0</ele><time>2026-04-08T11:47:05.008Z</time></trkpt><trkpt lat="45.31863470725089" lon="10.707114530020046"><ele>46.0</ele><time>2026-04-08T11:47:09.008Z</time></trkpt><trkpt lat="45.31868793333252" lon="10.70703711279499"><ele>46.0</ele><time>2026-04-08T11:47:13.008Z</time></trkpt><trkpt lat="45.31874632816843" lon="10.706974890393562"><ele>46.0</ele><time>2026-04-08T11:47:20.009Z</time></trkpt><trkpt lat="45.31880211042318" lon="10.706923820996444"><ele>46.0</ele><time>2026-04-08T11:47:24.009Z</time></trkpt><trkpt lat="45.318835074759036" lon="10.707012534811641"><ele>46.0</ele><time>2026-04-08T11:48:08.003Z</time></trkpt><trkpt lat="45.31875026437267" lon="10.707068566294307"><ele>46.0</ele><time>2026-04-08T11:48:26.001Z</time></trkpt><trkpt lat="45.31868851016145" lon="10.707043098482014"><ele>46.0</ele><time>2026-04-08T11:49:01Z</time></trkpt><trkpt lat="45.3186249860782" lon="10.707042304320105"><ele>46.0</ele><time>2026-04-08T11:49:20Z</time></trkpt><trkpt lat="45.31860852537203" lon="10.707147966357368"><ele>46.0</ele><time>2026-04-08T11:49:30Z</time></trkpt><trkpt lat="45.31863980222281" lon="10.707230203303856"><ele>46.0</ele><time>2026-04-08T11:49:35Z</time></trkpt><trkpt lat="45.31859963681752" lon="10.707307271543616"><ele>46.0</ele><time>2026-04-08T11:49:53Z</time></trkpt><trkpt lat="45.31853517819759" lon="10.707346641658344"><ele>46.0</ele><time>2026-04-08T11:50:02Z</time></trkpt><trkpt lat="45.318611186243324" lon="10.707400321317392"><ele>46.0</ele><time>2026-04-08T11:50:22Z</time></trkpt><trkpt lat="45.31868234116928" lon="10.707444303365891"><ele>46.0</ele><time>2026-04-08T11:50:25Z</time></trkpt><trkpt lat="45.318745334986026" lon="10.70747998649544"><ele>46.0</ele><time>2026-04-08T11:50:27Z</time></trkpt><trkpt lat="45.31881361424804" lon="10.707537433998072"><ele>46.0</ele><time>2026-04-08T11:50:30Z</time></trkpt><trkpt lat="45.31887594296347" lon="10.707568164170121"><ele>46.0</ele><time>2026-04-08T11:50:33Z</time></trkpt><trkpt lat="45.31894638236844" lon="10.707495599741108"><ele>46.0</ele><time>2026-04-08T11:50:35Z</time></trkpt><trkpt lat="45.31900796375141" lon="10.707409873255314"><ele>46.0</ele><time>2026-04-08T11:50:37Z</time></trkpt><trkpt lat="45.3190799868539" lon="10.707319996782271"><ele>46.66666666666667</ele><time>2026-04-08T11:50:39Z</time></trkpt><trkpt lat="45.3191490582812" lon="10.707278427823285"><ele>47.333333333333336</ele><time>2026-04-08T11:50:43Z</time></trkpt><trkpt lat="45.31922487657563" lon="10.707293752739266"><ele>48.0</ele><time>2026-04-08T11:51:19Z</time></trkpt><trkpt lat="45.31927874759904" lon="10.707390563238416"><ele>48.66666666666667</ele><time>2026-04-08T11:51:23Z</time></trkpt><trkpt lat="45.319347259395315" lon="10.7074178686643"><ele>49.333333333333336</ele><time>2026-04-08T11:51:26Z</time></trkpt><trkpt lat="45.31942123217507" lon="10.707450854920951"><ele>50.0</ele><time>2026-04-08T11:51:28Z</time></trkpt><trkpt lat="45.319497633571686" lon="10.70746404468465"><ele>50.00000000000001</ele><time>2026-04-08T11:51:31Z</time></trkpt><trkpt lat="45.31957850668523" lon="10.70747085791208"><ele>50.0</ele><time>2026-04-08T11:51:33Z</time></trkpt><trkpt lat="45.3196514271112" lon="10.707503831530301"><ele>50.0</ele><time>2026-04-08T11:51:36Z</time></trkpt><trkpt lat="45.319720177104905" lon="10.707580556248939"><ele>50.0</ele><time>2026-04-08T11:51:40Z</time></trkpt><trkpt lat="45.31978731867205" lon="10.70764920294696"><ele>50.00000000000001</ele><time>2026-04-08T11:51:43Z</time></trkpt><trkpt lat="45.31987242210185" lon="10.707721624819246"><ele>50.0</ele><time>2026-04-08T11:51:46Z</time></trkpt><trkpt lat="45.319934764218736" lon="10.707773909618183"><ele>50.00000000000001</ele><time>2026-04-08T11:51:48Z</time></trkpt><trkpt lat="45.32002012733066" lon="10.707822248282516"><ele>50.0</ele><time>2026-04-08T11:51:50Z</time></trkpt><trkpt lat="45.32009409518666" lon="10.707875497747242"><ele>50.0</ele><time>2026-04-08T11:51:52Z</time></trkpt><trkpt lat="45.320156569545766" lon="10.707930590116208"><ele>50.0</ele><time>2026-04-08T11:51:54Z</time></trkpt><trkpt lat="45.32023427004016" lon="10.707998185070027"><ele>50.00000000000001</ele><time>2026-04-08T11:51:56Z</time></trkpt><trkpt lat="45.32028916217824" lon="10.708056517279228"><ele>50.0</ele><time>2026-04-08T11:51:58Z</time></trkpt><trkpt lat="45.32033207461292" lon="10.708144454354352"><ele>50.00000000000001</ele><time>2026-04-08T11:52:00Z</time></trkpt><trkpt lat="45.320381550816286" lon="10.708246504403002"><ele>50.0</ele><time>2026-04-08T11:52:03Z</time></trkpt><trkpt lat="45.32045267241425" lon="10.708311293896509"><ele>50.0</ele><time>2026-04-08T11:52:06Z</time></trkpt><trkpt lat="45.32050413331263" lon="10.708372962722661"><ele>50.0</ele><time>2026-04-08T11:52:08Z</time></trkpt><trkpt lat="45.32054139544786" lon="10.708446719165272"><ele>50.00000000000001</ele><time>2026-04-08T11:52:10Z</time></trkpt><trkpt lat="45.32060373565893" lon="10.708530749065273"><ele>50.0</ele><time>2026-04-08T11:52:14Z</time></trkpt><trkpt lat="45.320679339758094" lon="10.708587312672032"><ele>50.16666666666667</ele><time>2026-04-08T11:52:17Z</time></trkpt><trkpt lat="45.32074548421101" lon="10.70867999964065"><ele>50.333333333333336</ele><time>2026-04-08T11:52:20Z</time></trkpt><trkpt lat="45.32079666021463" lon="10.708761394513497"><ele>50.5</ele><time>2026-04-08T11:52:23Z</time></trkpt><trkpt lat="45.32087214376281" lon="10.708823232545113"><ele>50.66666666666667</ele><time>2026-04-08T11:52:25Z</time></trkpt><trkpt lat="45.320940234029905" lon="10.708868377396042"><ele>50.833333333333336</ele><time>2026-04-08T11:52:27Z</time></trkpt><trkpt lat="45.3210265379557" lon="10.708891839033626"><ele>51.0</ele><time>2026-04-08T11:52:29Z</time></trkpt><trkpt lat="45.321092752373495" lon="10.70895433310996"><ele>51.0</ele><time>2026-04-08T11:52:31Z</time></trkpt><trkpt lat="45.32115313500363" lon="10.709008709526767"><ele>51.0</ele><time>2026-04-08T11:52:33Z</time></trkpt><trkpt lat="45.32121223865089" lon="10.708963643281926"><ele>51.0</ele><time>2026-04-08T11:52:43Z</time></trkpt><trkpt lat="45.32120435384529" lon="10.708872452519135"><ele>51.0</ele><time>2026-04-08T11:52:55Z</time></trkpt><trkpt lat="45.32120326499964" lon="10.708777406607275"><ele>51.0</ele><time>2026-04-08T11:53:00.001Z</time></trkpt><trkpt lat="45.32118236659016" lon="10.708692750844886"><ele>51.0</ele><time>2026-04-08T11:53:07.001Z</time></trkpt><trkpt lat="45.321219330926574" lon="10.708773479891283"><ele>51.0</ele><time>2026-04-08T11:54:03.001Z</time></trkpt><trkpt lat="45.321234776515354" lon="10.708865085269483"><ele>51.0</ele><time>2026-04-08T11:54:16.001Z</time></trkpt><trkpt lat="45.32123694970754" lon="10.708962454730809"><ele>51.0</ele><time>2026-04-08T11:54:24.001Z</time></trkpt><trkpt lat="45.321258211167866" lon="10.709069327437973"><ele>51.0</ele><time>2026-04-08T11:54:27.001Z</time></trkpt><trkpt lat="45.3213277122265" lon="10.709104238982674"><ele>51.0</ele><time>2026-04-08T11:54:36.001Z</time></trkpt><trkpt lat="45.32126198788686" lon="10.709133731806421"><ele>51.0</ele><time>2026-04-08T11:55:07.001Z</time></trkpt><trkpt lat="45.321250672290084" lon="10.70922888205878"><ele>51.0</ele><time>2026-04-08T11:55:38Z</time></trkpt><trkpt lat="45.321321663693666" lon="10.709298191441441"><ele>51.0</ele><time>2026-04-08T11:55:44Z</time></trkpt><trkpt lat="45.32138091978054" lon="10.709344531838989"><ele>51.0</ele><time>2026-04-08T11:55:48Z</time></trkpt><trkpt lat="45.32143986925097" lon="10.709395575858053"><ele>51.0</ele><time>2026-04-08T11:55:52Z</time></trkpt><trkpt lat="45.321516785696986" lon="10.709431687682628"><ele>51.0</ele><time>2026-04-08T11:55:58Z</time></trkpt><trkpt lat="45.321574979662685" lon="10.709483382759412"><ele>51.0</ele><time>2026-04-08T11:56:02Z</time></trkpt><trkpt lat="45.32162493857838" lon="10.709545056690713"><ele>51.0</ele><time>2026-04-08T11:56:07Z</time></trkpt><trkpt lat="45.32168207311096" lon="10.709610100023005"><ele>51.0</ele><time>2026-04-08T11:56:11Z</time></trkpt><trkpt lat="45.321731441776" lon="10.709685603363683"><ele>51.0</ele><time>2026-04-08T11:56:17Z</time></trkpt><trkpt lat="45.321784575744175" lon="10.709735662930079"><ele>51.0</ele><time>2026-04-08T11:56:20Z</time></trkpt><trkpt lat="45.32182469303921" lon="10.709807104318449"><ele>51.0</ele><time>2026-04-08T11:56:24Z</time></trkpt><trkpt lat="45.321873702738905" lon="10.709892594438537"><ele>51.0</ele><time>2026-04-08T11:56:29Z</time></trkpt><trkpt lat="45.32193554380786" lon="10.709914426486584"><ele>51.0</ele><time>2026-04-08T11:56:32Z</time></trkpt><trkpt lat="45.32198501737431" lon="10.709977291485895"><ele>51.0</ele><time>2026-04-08T11:56:35Z</time></trkpt><trkpt lat="45.322025154599416" lon="10.71006975258114"><ele>51.0</ele><time>2026-04-08T11:56:39Z</time></trkpt><trkpt lat="45.32207459447898" lon="10.710129614285849"><ele>51.0</ele><time>2026-04-08T11:56:45Z</time></trkpt><trkpt lat="45.32213460052039" lon="10.710183629926776"><ele>51.0</ele><time>2026-04-08T11:56:52Z</time></trkpt><trkpt lat="45.3221976868951" lon="10.710231979953674"><ele>51.0</ele><time>2026-04-08T11:56:58Z</time></trkpt><trkpt lat="45.32228816584843" lon="10.710241736616853"><ele>51.0</ele><time>2026-04-08T11:57:02Z</time></trkpt><trkpt lat="45.32235621344002" lon="10.710250061914433"><ele>51.0</ele><time>2026-04-08T11:57:05Z</time></trkpt><trkpt lat="45.32243079543521" lon="10.710252726566651"><ele>51.0</ele><time>2026-04-08T11:57:09Z</time></trkpt><trkpt lat="45.322538553810574" lon="10.710272699463674"><ele>51.0</ele><time>2026-04-08T11:57:14Z</time></trkpt><trkpt lat="45.322567635904434" lon="10.71035527440563"><ele>50.85714285714286</ele><time>2026-04-08T11:57:17Z</time></trkpt><trkpt lat="45.32263050420869" lon="10.710371193528127"><ele>50.714285714285715</ele><time>2026-04-08T11:57:26Z</time></trkpt><trkpt lat="45.32269091571911" lon="10.710331047069015"><ele>50.57142857142857</ele><time>2026-04-08T11:57:32Z</time></trkpt><trkpt lat="45.32273762707614" lon="10.710263441232732"><ele>50.42857142857143</ele><time>2026-04-08T11:57:37Z</time></trkpt><trkpt lat="45.3228101360324" lon="10.710218660722822"><ele>50.285714285714285</ele><time>2026-04-08T11:57:41Z</time></trkpt><trkpt lat="45.32287463128153" lon="10.710152622146447"><ele>50.142857142857146</ele><time>2026-04-08T11:57:45Z</time></trkpt><trkpt lat="45.32291885838787" lon="10.710080658478496"><ele>50.0</ele><time>2026-04-08T11:57:49Z</time></trkpt><trkpt lat="45.32295672537532" lon="10.709982860181329"><ele>50.142857142857146</ele><time>2026-04-08T11:57:53Z</time></trkpt><trkpt lat="45.322906089982745" lon="10.71004777325712"><ele>50.285714285714285</ele><time>2026-04-08T11:58:04Z</time></trkpt><trkpt lat="45.32295019166454" lon="10.709954244232263"><ele>50.42857142857143</ele><time>2026-04-08T11:58:19Z</time></trkpt><trkpt lat="45.3229929749564" lon="10.709849787880454"><ele>50.57142857142857</ele><time>2026-04-08T11:58:22Z</time></trkpt><trkpt lat="45.32302742442197" lon="10.709767698561471"><ele>50.714285714285715</ele><time>2026-04-08T11:58:26Z</time></trkpt><trkpt lat="45.323067708725866" lon="10.709666956018378"><ele>50.85714285714286</ele><time>2026-04-08T11:58:30Z</time></trkpt><trkpt lat="45.323102599976515" lon="10.709585038922347"><ele>51.0</ele><time>2026-04-08T11:58:33Z</time></trkpt><trkpt lat="45.32309912151759" lon="10.709480894731806"><ele>51.285714285714285</ele><time>2026-04-08T11:58:35Z</time></trkpt><trkpt lat="45.32304877057408" lon="10.709401969667827"><ele>51.57142857142857</ele><time>2026-04-08T11:58:38Z</time></trkpt><trkpt lat="45.322988869989345" lon="10.709353016555601"><ele>51.85714285714286</ele><time>2026-04-08T11:58:42Z</time></trkpt><trkpt lat="45.32294355081271" lon="10.70928632459313"><ele>52.14285714285714</ele><time>2026-04-08T11:58:45Z</time></trkpt><trkpt lat="45.3229063686151" lon="10.709199706267976"><ele>52.42857142857142</ele><time>2026-04-08T11:58:50Z</time></trkpt><trkpt lat="45.322897534564454" lon="10.709107038782049"><ele>52.714285714285715</ele><time>2026-04-08T11:59:02Z</time></trkpt><trkpt lat="45.32297581467542" lon="10.709074578238747"><ele>53.0</ele><time>2026-04-08T11:59:44Z</time></trkpt><trkpt lat="45.323038657550036" lon="10.709090432990102"><ele>53.0</ele><time>2026-04-08T12:00:10Z</time></trkpt><trkpt lat="45.32309213334432" lon="10.709141842905089"><ele>53.0</ele><time>2026-04-08T12:00:33Z</time></trkpt><trkpt lat="45.32319466026858" lon="10.709216762433122"><ele>53.0</ele><time>2026-04-08T12:00:40Z</time></trkpt><trkpt lat="45.32327234371419" lon="10.70927295619276"><ele>53.0</ele><time>2026-04-08T12:00:42Z</time></trkpt><trkpt lat="45.3233505713955" lon="10.709346171337316"><ele>53.0</ele><time>2026-04-08T12:00:44Z</time></trkpt><trkpt lat="45.3234404505038" lon="10.709424421014182"><ele>52.599999999999994</ele><time>2026-04-08T12:00:46Z</time></trkpt><trkpt lat="45.323540910677366" lon="10.709519843326534"><ele>52.199999999999996</ele><time>2026-04-08T12:00:48Z</time></trkpt><trkpt lat="45.32358775120371" lon="10.709583089710327"><ele>51.8</ele><time>2026-04-08T12:00:49Z</time></trkpt><trkpt lat="45.32368581568885" lon="10.709710704363541"><ele>51.4</ele><time>2026-04-08T12:00:51Z</time></trkpt><trkpt lat="45.32374019165314" lon="10.70977721637509"><ele>51.0</ele><time>2026-04-08T12:00:52Z</time></trkpt><trkpt lat="45.323796331476736" lon="10.70984938016145"><ele>51.0</ele><time>2026-04-08T12:00:53Z</time></trkpt><trkpt lat="45.32384519232055" lon="10.709914915318459"><ele>51.0</ele><time>2026-04-08T12:00:54Z</time></trkpt><trkpt lat="45.32389721867489" lon="10.709980963957745"><ele>51.0</ele><time>2026-04-08T12:00:55Z</time></trkpt><trkpt lat="45.32397278357646" lon="10.710136277099453"><ele>51.0</ele><time>2026-04-08T12:00:57Z</time></trkpt><trkpt lat="45.32401910609598" lon="10.710202281061107"><ele>51.0</ele><time>2026-04-08T12:00:58Z</time></trkpt><trkpt lat="45.324065386358114" lon="10.71026622614674"><ele>51.0</ele><time>2026-04-08T12:00:59Z</time></trkpt><trkpt lat="45.324163803835894" lon="10.71037600019398"><ele>50.599999999999994</ele><time>2026-04-08T12:01:01Z</time></trkpt><trkpt lat="45.324264492485185" lon="10.710474505181084"><ele>50.2</ele><time>2026-04-08T12:01:03Z</time></trkpt><trkpt lat="45.32431526542368" lon="10.710542715677269"><ele>49.8</ele><time>2026-04-08T12:01:04Z</time></trkpt><trkpt lat="45.324403608311165" lon="10.710640932027307"><ele>49.400000000000006</ele><time>2026-04-08T12:01:06Z</time></trkpt><trkpt lat="45.32449383002099" lon="10.710743516736715"><ele>49.0</ele><time>2026-04-08T12:01:08Z</time></trkpt><trkpt lat="45.324537931364816" lon="10.710810002197716"><ele>49.0</ele><time>2026-04-08T12:01:09Z</time></trkpt><trkpt lat="45.32458143882348" lon="10.71087548883718"><ele>49.0</ele><time>2026-04-08T12:01:10Z</time></trkpt><trkpt lat="45.32463192128196" lon="10.710943590688741"><ele>49.0</ele><time>2026-04-08T12:01:11Z</time></trkpt><trkpt lat="45.32471562062128" lon="10.711038519329286"><ele>49.0</ele><time>2026-04-08T12:01:13Z</time></trkpt><trkpt lat="45.32478993663873" lon="10.711154365033362"><ele>49.0</ele><time>2026-04-08T12:01:15Z</time></trkpt><trkpt lat="45.32486755397537" lon="10.711261314817452"><ele>48.800000000000004</ele><time>2026-04-08T12:01:17Z</time></trkpt><trkpt lat="45.324941702547946" lon="10.711341112433068"><ele>48.6</ele><time>2026-04-08T12:01:19Z</time></trkpt><trkpt lat="45.32499915892201" lon="10.711404907620318"><ele>48.4</ele><time>2026-04-08T12:01:20Z</time></trkpt><trkpt lat="45.32507749207402" lon="10.711496728671687"><ele>48.2</ele><time>2026-04-08T12:01:22Z</time></trkpt><trkpt lat="45.32515747092287" lon="10.711572061725613"><ele>48.0</ele><time>2026-04-08T12:01:24Z</time></trkpt><trkpt lat="45.32523972732788" lon="10.711648193799428"><ele>48.0</ele><time>2026-04-08T12:01:25.999Z</time></trkpt><trkpt lat="45.32533384137238" lon="10.711764558136208"><ele>48.0</ele><time>2026-04-08T12:01:27.999Z</time></trkpt><trkpt lat="45.32542510669212" lon="10.711856824658973"><ele>48.0</ele><time>2026-04-08T12:01:29.999Z</time></trkpt><trkpt lat="45.32549318925298" lon="10.711940587436729"><ele>48.0</ele><time>2026-04-08T12:01:31.999Z</time></trkpt><trkpt lat="45.32555055122982" lon="10.712003024398227"><ele>48.0</ele><time>2026-04-08T12:01:32.999Z</time></trkpt><trkpt lat="45.32564089381699" lon="10.712071355962344"><ele>48.166666666666664</ele><time>2026-04-08T12:01:34.999Z</time></trkpt><trkpt lat="45.32574692908176" lon="10.712113563138965"><ele>48.33333333333333</ele><time>2026-04-08T12:01:36.999Z</time></trkpt><trkpt lat="45.32582445389583" lon="10.71213305767265"><ele>48.5</ele><time>2026-04-08T12:01:38.999Z</time></trkpt><trkpt lat="45.325888062650996" lon="10.71216434743197"><ele>48.666666666666664</ele><time>2026-04-08T12:01:40.999Z</time></trkpt><trkpt lat="45.32596675154314" lon="10.712198019189593"><ele>48.83333333333333</ele><time>2026-04-08T12:01:43.999Z</time></trkpt><trkpt lat="45.326049253219786" lon="10.712215174990975"><ele>49.0</ele><time>2026-04-08T12:01:46.999Z</time></trkpt><trkpt lat="45.32611017621311" lon="10.712237847012036"><ele>48.99999999999999</ele><time>2026-04-08T12:01:48.999Z</time></trkpt><trkpt lat="45.32620586614473" lon="10.712249817605493"><ele>49.0</ele><time>2026-04-08T12:01:51.999Z</time></trkpt><trkpt lat="45.32628938269472" lon="10.712280604930871"><ele>49.0</ele><time>2026-04-08T12:01:53.999Z</time></trkpt><trkpt lat="45.32638709936889" lon="10.712292970542833"><ele>49.0</ele><time>2026-04-08T12:01:55.999Z</time></trkpt><trkpt lat="45.32646846593171" lon="10.712278787539226"><ele>48.99999999999999</ele><time>2026-04-08T12:01:58.001Z</time></trkpt><trkpt lat="45.3265362889046" lon="10.712215642050849"><ele>49.0</ele><time>2026-04-08T12:02:01.001Z</time></trkpt><trkpt lat="45.32660574119015" lon="10.712149875092157"><ele>48.99999999999999</ele><time>2026-04-08T12:02:04.001Z</time></trkpt><trkpt lat="45.32667177113674" lon="10.712131737206976"><ele>49.0</ele><time>2026-04-08T12:02:08.001Z</time></trkpt><trkpt lat="45.32676309887819" lon="10.712141851015474"><ele>49.0</ele><time>2026-04-08T12:02:11.001Z</time></trkpt><trkpt lat="45.326844409442806" lon="10.71214113697495"><ele>49.0</ele><time>2026-04-08T12:02:13.001Z</time></trkpt><trkpt lat="45.326924517531296" lon="10.71213257756748"><ele>48.99999999999999</ele><time>2026-04-08T12:02:15.001Z</time></trkpt><trkpt lat="45.32699030102889" lon="10.71212620585395"><ele>49.0</ele><time>2026-04-08T12:02:17Z</time></trkpt><trkpt lat="45.32705463195956" lon="10.712110815910862"><ele>49.0</ele><time>2026-04-08T12:02:19Z</time></trkpt><trkpt lat="45.32713640413024" lon="10.712131433571477"><ele>49.0</ele><time>2026-04-08T12:02:22Z</time></trkpt><trkpt lat="45.327230436029886" lon="10.712150036103713"><ele>49.0</ele><time>2026-04-08T12:02:25Z</time></trkpt><trkpt lat="45.327321687534884" lon="10.712178530930956"><ele>49.0</ele><time>2026-04-08T12:02:28Z</time></trkpt><trkpt lat="45.32742700594978" lon="10.712206514269097"><ele>49.0</ele><time>2026-04-08T12:02:31Z</time></trkpt><trkpt lat="45.32751457135066" lon="10.71221435886387"><ele>48.99999999999999</ele><time>2026-04-08T12:02:34Z</time></trkpt><trkpt lat="45.32760419956383" lon="10.712222309621895"><ele>49.0</ele><time>2026-04-08T12:02:37Z</time></trkpt><trkpt lat="45.32769485094265" lon="10.71223248938864"><ele>49.0</ele><time>2026-04-08T12:02:39Z</time></trkpt><trkpt lat="45.32779190523773" lon="10.712247353290836"><ele>49.0</ele><time>2026-04-08T12:02:41Z</time></trkpt><trkpt lat="45.327881928227065" lon="10.712266458791515"><ele>48.99999999999999</ele><time>2026-04-08T12:02:43Z</time></trkpt><trkpt lat="45.32796180149337" lon="10.712269241162062"><ele>49.0</ele><time>2026-04-08T12:02:45Z</time></trkpt><trkpt lat="45.32803720963017" lon="10.712264902261612"><ele>49.166666666666664</ele><time>2026-04-08T12:02:47Z</time></trkpt><trkpt lat="45.32811898766142" lon="10.712263830984966"><ele>49.33333333333333</ele><time>2026-04-08T12:02:49Z</time></trkpt><trkpt lat="45.32819293876621" lon="10.712262367917585"><ele>49.5</ele><time>2026-04-08T12:02:51Z</time></trkpt><trkpt lat="45.32826284645298" lon="10.712249926176053"><ele>49.66666666666667</ele><time>2026-04-08T12:02:53Z</time></trkpt><trkpt lat="45.32834936226651" lon="10.712266576392791"><ele>49.833333333333336</ele><time>2026-04-08T12:02:56Z</time></trkpt><trkpt lat="45.32843426943528" lon="10.712287500962281"><ele>50.0</ele><time>2026-04-08T12:02:59Z</time></trkpt><trkpt lat="45.32852157230099" lon="10.712295936123255"><ele>50.00000000000001</ele><time>2026-04-08T12:03:02Z</time></trkpt><trkpt lat="45.32860581319656" lon="10.712314521006995"><ele>50.0</ele><time>2026-04-08T12:03:05Z</time></trkpt><trkpt lat="45.32866855484505" lon="10.712332677414775"><ele>50.0</ele><time>2026-04-08T12:03:07Z</time></trkpt><trkpt lat="45.32873678402477" lon="10.712342533652839"><ele>50.0</ele><time>2026-04-08T12:03:09Z</time></trkpt><trkpt lat="45.328816463799086" lon="10.712349748023536"><ele>50.0</ele><time>2026-04-08T12:03:11Z</time></trkpt><trkpt lat="45.32888018505464" lon="10.712348651778626"><ele>50.00000000000001</ele><time>2026-04-08T12:03:13Z</time></trkpt><trkpt lat="45.328946953887254" lon="10.71236478635065"><ele>50.0</ele><time>2026-04-08T12:03:15Z</time></trkpt><trkpt lat="45.32901707385943" lon="10.712386114548474"><ele>50.00000000000001</ele><time>2026-04-08T12:03:17Z</time></trkpt><trkpt lat="45.32908600675543" lon="10.712400274552282"><ele>50.0</ele><time>2026-04-08T12:03:19Z</time></trkpt><trkpt lat="45.329164749226585" lon="10.712426650479985"><ele>50.0</ele><time>2026-04-08T12:03:21Z</time></trkpt><trkpt lat="45.3292548816512" lon="10.712455621933072"><ele>50.0</ele><time>2026-04-08T12:03:23Z</time></trkpt><trkpt lat="45.32933940132715" lon="10.712481378552324"><ele>50.00000000000001</ele><time>2026-04-08T12:03:25Z</time></trkpt><trkpt lat="45.32941718506291" lon="10.712518495613235"><ele>50.0</ele><time>2026-04-08T12:03:27Z</time></trkpt><trkpt lat="45.32949079115355" lon="10.712551528282596"><ele>50.00000000000001</ele><time>2026-04-08T12:03:29Z</time></trkpt><trkpt lat="45.32955377231521" lon="10.71259169426666"><ele>50.0</ele><time>2026-04-08T12:03:31Z</time></trkpt><trkpt lat="45.3296470981556" lon="10.712641962191647"><ele>50.0</ele><time>2026-04-08T12:03:33Z</time></trkpt><trkpt lat="45.32973014617258" lon="10.712683147276714"><ele>50.0</ele><time>2026-04-08T12:03:35Z</time></trkpt><trkpt lat="45.32978132698611" lon="10.712766455245891"><ele>50.00000000000001</ele><time>2026-04-08T12:03:37Z</time></trkpt><trkpt lat="45.32982258280058" lon="10.712871901347274"><ele>50.0</ele><time>2026-04-08T12:03:46Z</time></trkpt><trkpt lat="45.329900224817514" lon="10.712939681814383"><ele>50.6</ele><time>2026-04-08T12:03:49Z</time></trkpt><trkpt lat="45.32996582835166" lon="10.712986619967829"><ele>51.2</ele><time>2026-04-08T12:03:51Z</time></trkpt><trkpt lat="45.33004744149695" lon="10.713034177950545"><ele>51.8</ele><time>2026-04-08T12:03:53Z</time></trkpt><trkpt lat="45.33013893743005" lon="10.7130616517739"><ele>52.4</ele><time>2026-04-08T12:03:55Z</time></trkpt><trkpt lat="45.33023363874897" lon="10.713115997150776"><ele>53.0</ele><time>2026-04-08T12:03:57Z</time></trkpt><trkpt lat="45.33033063565714" lon="10.713166994327336"><ele>53.0</ele><time>2026-04-08T12:03:58.999Z</time></trkpt><trkpt lat="45.3304263424222" lon="10.713218444907158"><ele>53.0</ele><time>2026-04-08T12:04:00.999Z</time></trkpt><trkpt lat="45.330529294847246" lon="10.713279056725113"><ele>53.0</ele><time>2026-04-08T12:04:02.999Z</time></trkpt><trkpt lat="45.33063709065924" lon="10.71334467529523"><ele>53.0</ele><time>2026-04-08T12:04:04.999Z</time></trkpt><trkpt lat="45.33074080355998" lon="10.713375114118527"><ele>53.0</ele><time>2026-04-08T12:04:06.999Z</time></trkpt><trkpt lat="45.33084777994878" lon="10.713387195610931"><ele>52.599999999999994</ele><time>2026-04-08T12:04:08.999Z</time></trkpt><trkpt lat="45.33095163447586" lon="10.713418114765972"><ele>52.199999999999996</ele><time>2026-04-08T12:04:10.999Z</time></trkpt><trkpt lat="45.33104721836489" lon="10.713444541894722"><ele>51.8</ele><time>2026-04-08T12:04:12.999Z</time></trkpt><trkpt lat="45.33114635845427" lon="10.713481933369158"><ele>51.4</ele><time>2026-04-08T12:04:14.999Z</time></trkpt><trkpt lat="45.33125938918709" lon="10.713511599980677"><ele>51.0</ele><time>2026-04-08T12:04:16.999Z</time></trkpt><trkpt lat="45.33136493608158" lon="10.713523745935914"><ele>50.599999999999994</ele><time>2026-04-08T12:04:18.999Z</time></trkpt><trkpt lat="45.33146994393123" lon="10.713552373489025"><ele>50.2</ele><time>2026-04-08T12:04:20.999Z</time></trkpt><trkpt lat="45.331573912359126" lon="10.713570379659217"><ele>49.8</ele><time>2026-04-08T12:04:22.999Z</time></trkpt><trkpt lat="45.331678480100315" lon="10.713575312598314"><ele>49.400000000000006</ele><time>2026-04-08T12:04:24.999Z</time></trkpt><trkpt lat="45.3317767058499" lon="10.713563986850158"><ele>49.0</ele><time>2026-04-08T12:04:26.999Z</time></trkpt><trkpt lat="45.33189380970787" lon="10.713539887299275"><ele>49.0</ele><time>2026-04-08T12:04:28.999Z</time></trkpt><trkpt lat="45.332001538643844" lon="10.713530511484318"><ele>49.0</ele><time>2026-04-08T12:04:30.999Z</time></trkpt><trkpt lat="45.33212083319293" lon="10.71350466478868"><ele>49.0</ele><time>2026-04-08T12:04:32.999Z</time></trkpt><trkpt lat="45.332222023355705" lon="10.713489097538458"><ele>49.0</ele><time>2026-04-08T12:04:34.999Z</time></trkpt><trkpt lat="45.332316588840406" lon="10.713468460377669"><ele>49.0</ele><time>2026-04-08T12:04:36.999Z</time></trkpt><trkpt lat="45.33241556876848" lon="10.713461626061456"><ele>49.2</ele><time>2026-04-08T12:04:38.999Z</time></trkpt><trkpt lat="45.332511829274445" lon="10.71344922580662"><ele>49.400000000000006</ele><time>2026-04-08T12:04:40.999Z</time></trkpt><trkpt lat="45.33261271698369" lon="10.713434841768176"><ele>49.6</ele><time>2026-04-08T12:04:42.999Z</time></trkpt><trkpt lat="45.332714497876424" lon="10.713417738489522"><ele>49.8</ele><time>2026-04-08T12:04:44.999Z</time></trkpt><trkpt lat="45.332817526595015" lon="10.713403701560274"><ele>50.0</ele><time>2026-04-08T12:04:46.999Z</time></trkpt><trkpt lat="45.33289387848774" lon="10.713344670792829"><ele>50.0</ele><time>2026-04-08T12:04:48.999Z</time></trkpt><trkpt lat="45.33287890757721" lon="10.713247303310197"><ele>50.0</ele><time>2026-04-08T12:04:50.999Z</time></trkpt><trkpt lat="45.33285528620524" lon="10.713102424789879"><ele>50.0</ele><time>2026-04-08T12:04:52.999Z</time></trkpt><trkpt lat="45.33283021408094" lon="10.712930147615499"><ele>50.0</ele><time>2026-04-08T12:04:54.999Z</time></trkpt><trkpt lat="45.332820673143225" lon="10.712773485873646"><ele>50.0</ele><time>2026-04-08T12:04:56.999Z</time></trkpt><trkpt lat="45.33283738347224" lon="10.712677387759683"><ele>50.4</ele><time>2026-04-08T12:04:57.999Z</time></trkpt><trkpt lat="45.332926750051826" lon="10.712603169313448"><ele>50.8</ele><time>2026-04-08T12:04:59.999Z</time></trkpt><trkpt lat="45.33303169604694" lon="10.712580801521124"><ele>51.2</ele><time>2026-04-08T12:05:01.999Z</time></trkpt><trkpt lat="45.33312822751465" lon="10.712573356061167"><ele>51.6</ele><time>2026-04-08T12:05:03.999Z</time></trkpt><trkpt lat="45.333221245347254" lon="10.712572385156022"><ele>52.0</ele><time>2026-04-08T12:05:05.999Z</time></trkpt><trkpt lat="45.33330870148278" lon="10.712544429163069"><ele>52.0</ele><time>2026-04-08T12:05:07.999Z</time></trkpt><trkpt lat="45.3333946860626" lon="10.71253604060265"><ele>52.0</ele><time>2026-04-08T12:05:09.999Z</time></trkpt><trkpt lat="45.33348210240224" lon="10.712522385606015"><ele>52.0</ele><time>2026-04-08T12:05:11.999Z</time></trkpt><trkpt lat="45.33356612172939" lon="10.712502550694333"><ele>52.0</ele><time>2026-04-08T12:05:13.999Z</time></trkpt><trkpt lat="45.333664395017806" lon="10.71251012671546"><ele>52.0</ele><time>2026-04-08T12:05:15.999Z</time></trkpt><trkpt lat="45.33376222375476" lon="10.712507143745462"><ele>52.0</ele><time>2026-04-08T12:05:17.999Z</time></trkpt><trkpt lat="45.333858137947885" lon="10.712514916509734"><ele>52.0</ele><time>2026-04-08T12:05:19.999Z</time></trkpt><trkpt lat="45.33395310917489" lon="10.712488447306642"><ele>52.0</ele><time>2026-04-08T12:05:21.999Z</time></trkpt><trkpt lat="45.33404804910753" lon="10.71245397108865"><ele>52.0</ele><time>2026-04-08T12:05:23.999Z</time></trkpt><trkpt lat="45.33413857415044" lon="10.712415514960176"><ele>52.0</ele><time>2026-04-08T12:05:25.999Z</time></trkpt><trkpt lat="45.33425157465199" lon="10.712380145661953"><ele>51.8</ele><time>2026-04-08T12:05:27.999Z</time></trkpt><trkpt lat="45.334361274033874" lon="10.712345434992566"><ele>51.6</ele><time>2026-04-08T12:05:29.999Z</time></trkpt><trkpt lat="45.33446499733161" lon="10.71232221909936"><ele>51.4</ele><time>2026-04-08T12:05:31.999Z</time></trkpt><trkpt lat="45.33456377704112" lon="10.712279820988256"><ele>51.199999999999996</ele><time>2026-04-08T12:05:33.999Z</time></trkpt><trkpt lat="45.33466781506317" lon="10.712217358862315"><ele>51.0</ele><time>2026-04-08T12:05:35.999Z</time></trkpt><trkpt lat="45.334762131320154" lon="10.712160363971678"><ele>50.833333333333336</ele><time>2026-04-08T12:05:37.999Z</time></trkpt><trkpt lat="45.334840319394104" lon="10.712103348298502"><ele>50.66666666666667</ele><time>2026-04-08T12:05:39.999Z</time></trkpt><trkpt lat="45.33491472195208" lon="10.712065748163731"><ele>50.5</ele><time>2026-04-08T12:05:41.999Z</time></trkpt><trkpt lat="45.3350047603816" lon="10.71203320601025"><ele>50.333333333333336</ele><time>2026-04-08T12:05:44.999Z</time></trkpt><trkpt lat="45.33506997717354" lon="10.711983839536273"><ele>50.16666666666667</ele><time>2026-04-08T12:05:46.999Z</time></trkpt><trkpt lat="45.3351428703742" lon="10.711938210908393"><ele>50.0</ele><time>2026-04-08T12:05:48.999Z</time></trkpt><trkpt lat="45.335188250876094" lon="10.711857036529421"><ele>50.00000000000001</ele><time>2026-04-08T12:05:50.999Z</time></trkpt><trkpt lat="45.33519385215628" lon="10.711758076915391"><ele>50.0</ele><time>2026-04-08T12:05:52.999Z</time></trkpt><trkpt lat="45.33521927285692" lon="10.711665899190269"><ele>50.0</ele><time>2026-04-08T12:05:54.999Z</time></trkpt><trkpt lat="45.33526347905065" lon="10.711571423448168"><ele>50.0</ele><time>2026-04-08T12:05:56.999Z</time></trkpt><trkpt lat="45.33530471458254" lon="10.711503511626145"><ele>50.00000000000001</ele><time>2026-04-08T12:05:58.999Z</time></trkpt><trkpt lat="45.3353728311529" lon="10.711449204949396"><ele>50.0</ele><time>2026-04-08T12:06:01.999Z</time></trkpt><trkpt lat="45.335453841561446" lon="10.711385854563535"><ele>50.00000000000001</ele><time>2026-04-08T12:06:04.999Z</time></trkpt><trkpt lat="45.33548989081572" lon="10.711279894290472"><ele>50.0</ele><time>2026-04-08T12:06:07.999Z</time></trkpt><trkpt lat="45.33552051544045" lon="10.711180457263662"><ele>50.0</ele><time>2026-04-08T12:06:10.999Z</time></trkpt><trkpt lat="45.33552070997454" lon="10.711059705394149"><ele>50.0</ele><time>2026-04-08T12:06:13.999Z</time></trkpt><trkpt lat="45.33556098066297" lon="10.710948227384074"><ele>50.00000000000001</ele><time>2026-04-08T12:06:16.999Z</time></trkpt><trkpt lat="45.33562788304574" lon="10.710888559875135"><ele>50.0</ele><time>2026-04-08T12:06:19.999Z</time></trkpt><trkpt lat="45.335712607011324" lon="10.710866961943747"><ele>50.833333333333336</ele><time>2026-04-08T12:06:21.999Z</time></trkpt><trkpt lat="45.335802329064336" lon="10.710850809228813"><ele>51.66666666666667</ele><time>2026-04-08T12:06:23.999Z</time></trkpt><trkpt lat="45.33589788902665" lon="10.710863205424474"><ele>52.5</ele><time>2026-04-08T12:06:25.999Z</time></trkpt><trkpt lat="45.33598202462465" lon="10.710868383626927"><ele>53.33333333333333</ele><time>2026-04-08T12:06:27.999Z</time></trkpt><trkpt lat="45.33606795401338" lon="10.710893034344771"><ele>54.166666666666664</ele><time>2026-04-08T12:06:29.999Z</time></trkpt><trkpt lat="45.33614909821737" lon="10.710927917371466"><ele>55.0</ele><time>2026-04-08T12:06:31.999Z</time></trkpt><trkpt lat="45.336246031267386" lon="10.71090206068318"><ele>55.0</ele><time>2026-04-08T12:06:33.999Z</time></trkpt><trkpt lat="45.33634013488018" lon="10.71085653332441"><ele>55.0</ele><time>2026-04-08T12:06:35.999Z</time></trkpt><trkpt lat="45.33643829961415" lon="10.7108034250196"><ele>55.0</ele><time>2026-04-08T12:06:37.999Z</time></trkpt><trkpt lat="45.336531962268005" lon="10.710752015816313"><ele>55.0</ele><time>2026-04-08T12:06:39.999Z</time></trkpt><trkpt lat="45.33661184292572" lon="10.710711727487226"><ele>55.0</ele><time>2026-04-08T12:06:41.999Z</time></trkpt><trkpt lat="45.336655430526086" lon="10.710635441444925"><ele>54.49999999999999</ele><time>2026-04-08T12:06:43.999Z</time></trkpt><trkpt lat="45.33671129573972" lon="10.710572185839833"><ele>54.0</ele><time>2026-04-08T12:06:46.999Z</time></trkpt><trkpt lat="45.33679780822402" lon="10.710534738696735"><ele>53.5</ele><time>2026-04-08T12:06:49.999Z</time></trkpt><trkpt lat="45.336870433401884" lon="10.710511060164833"><ele>53.0</ele><time>2026-04-08T12:06:51.999Z</time></trkpt><trkpt lat="45.33695657213224" lon="10.710518999450999"><ele>52.49999999999999</ele><time>2026-04-08T12:06:53.999Z</time></trkpt><trkpt lat="45.33702870639117" lon="10.710514246179706"><ele>52.0</ele><time>2026-04-08T12:06:55.999Z</time></trkpt><trkpt lat="45.3370923566448" lon="10.710520761498302"><ele>51.99999999999999</ele><time>2026-04-08T12:06:57.999Z</time></trkpt><trkpt lat="45.33717095578797" lon="10.710519010275327"><ele>52.0</ele><time>2026-04-08T12:06:59.999Z</time></trkpt><trkpt lat="45.3372473502713" lon="10.710520605341944"><ele>52.0</ele><time>2026-04-08T12:07:01.999Z</time></trkpt><trkpt lat="45.337335579864074" lon="10.710502110415826"><ele>52.0</ele><time>2026-04-08T12:07:03.999Z</time></trkpt><trkpt lat="45.33742206226814" lon="10.710492670669561"><ele>51.99999999999999</ele><time>2026-04-08T12:07:05.999Z</time></trkpt><trkpt lat="45.33749117585373" lon="10.71049259325934"><ele>52.0</ele><time>2026-04-08T12:07:07.999Z</time></trkpt><trkpt lat="45.33757506487139" lon="10.710488729004505"><ele>51.83333333333333</ele><time>2026-04-08T12:07:09.999Z</time></trkpt><trkpt lat="45.33765020679779" lon="10.710481144182774"><ele>51.666666666666664</ele><time>2026-04-08T12:07:11.999Z</time></trkpt><trkpt lat="45.337720472746334" lon="10.710498398372135"><ele>51.5</ele><time>2026-04-08T12:07:13.999Z</time></trkpt><trkpt lat="45.33779200470423" lon="10.710481416181079"><ele>51.33333333333333</ele><time>2026-04-08T12:07:15.999Z</time></trkpt><trkpt lat="45.33786273600036" lon="10.71046745229983"><ele>51.166666666666664</ele><time>2026-04-08T12:07:17.999Z</time></trkpt><trkpt lat="45.33794634560263" lon="10.710488647303212"><ele>51.0</ele><time>2026-04-08T12:07:20.999Z</time></trkpt><trkpt lat="45.33803124352016" lon="10.710476155596949"><ele>51.42857142857143</ele><time>2026-04-08T12:07:27.999Z</time></trkpt><trkpt lat="45.338084057110386" lon="10.710382222416996"><ele>51.85714285714286</ele><time>2026-04-08T12:07:30.999Z</time></trkpt><trkpt lat="45.33813477051803" lon="10.710320530408572"><ele>52.285714285714285</ele><time>2026-04-08T12:07:33.999Z</time></trkpt><trkpt lat="45.33810821815574" lon="10.710218179186182"><ele>52.714285714285715</ele><time>2026-04-08T12:07:38.999Z</time></trkpt><trkpt lat="45.33806240819646" lon="10.710148477816471"><ele>53.14285714285714</ele><time>2026-04-08T12:07:42.999Z</time></trkpt><trkpt lat="45.337994436892004" lon="10.710094658996713"><ele>53.57142857142857</ele><time>2026-04-08T12:07:47.999Z</time></trkpt><trkpt lat="45.33805419723428" lon="10.710046122730201"><ele>54.0</ele><time>2026-04-08T12:07:52.999Z</time></trkpt><trkpt lat="45.33811785929046" lon="10.7100829469684"><ele>54.0</ele><time>2026-04-08T12:07:55.999Z</time></trkpt><trkpt lat="45.33811090755038" lon="10.710224454581772"><ele>54.0</ele><time>2026-04-08T12:07:58.999Z</time></trkpt><trkpt lat="45.33809099539165" lon="10.710334170666894"><ele>54.0</ele><time>2026-04-08T12:08:01.999Z</time></trkpt><trkpt lat="45.3380638753753" lon="10.710422156380565"><ele>54.0</ele><time>2026-04-08T12:08:08.999Z</time></trkpt><trkpt lat="45.33809006474153" lon="10.710511571075894"><ele>54.0</ele><time>2026-04-08T12:08:11.999Z</time></trkpt><trkpt lat="45.33809562021248" lon="10.710629172974272"><ele>54.0</ele><time>2026-04-08T12:08:14.999Z</time></trkpt><trkpt lat="45.33809604683443" lon="10.710741590914562"><ele>54.0</ele><time>2026-04-08T12:08:17.999Z</time></trkpt><trkpt lat="45.33808996418047" lon="10.710841383816156"><ele>54.0</ele><time>2026-04-08T12:08:20.999Z</time></trkpt><trkpt lat="45.33808918942538" lon="10.710932972510527"><ele>54.0</ele><time>2026-04-08T12:08:22.999Z</time></trkpt><trkpt lat="45.33809939266326" lon="10.711022123065284"><ele>54.0</ele><time>2026-04-08T12:08:24.999Z</time></trkpt><trkpt lat="45.33814608015235" lon="10.711120281548448"><ele>54.0</ele><time>2026-04-08T12:08:26.999Z</time></trkpt><trkpt lat="45.33818101588476" lon="10.711230995971682"><ele>54.0</ele><time>2026-04-08T12:08:28.999Z</time></trkpt><trkpt lat="45.33822879426585" lon="10.711329355169411"><ele>53.5</ele><time>2026-04-08T12:08:30.999Z</time></trkpt><trkpt lat="45.3382627049352" lon="10.711415420331038"><ele>53.0</ele><time>2026-04-08T12:08:32.999Z</time></trkpt><trkpt lat="45.33829430294331" lon="10.711497886960013"><ele>52.5</ele><time>2026-04-08T12:08:36.999Z</time></trkpt><trkpt lat="45.338368146606825" lon="10.711647607403362"><ele>52.0</ele><time>2026-04-08T12:09:01.999Z</time></trkpt><trkpt lat="45.3384328655664" lon="10.711595318102145"><ele>51.5</ele><time>2026-04-08T12:09:05Z</time></trkpt><trkpt lat="45.33849616162812" lon="10.711579211630768"><ele>51.0</ele><time>2026-04-08T12:09:07Z</time></trkpt><trkpt lat="45.33857216550788" lon="10.711541711417567"><ele>51.0</ele><time>2026-04-08T12:09:09Z</time></trkpt><trkpt lat="45.338634202010034" lon="10.711498620749751"><ele>51.0</ele><time>2026-04-08T12:09:11Z</time></trkpt><trkpt lat="45.3386983271533" lon="10.711460812147832"><ele>51.0</ele><time>2026-04-08T12:09:13Z</time></trkpt><trkpt lat="45.33878200352104" lon="10.711436735473077"><ele>51.0</ele><time>2026-04-08T12:09:16Z</time></trkpt><trkpt lat="45.338844616692256" lon="10.711400351984405"><ele>51.0</ele><time>2026-04-08T12:09:18Z</time></trkpt><trkpt lat="45.33892151307194" lon="10.71134488513412"><ele>51.0</ele><time>2026-04-08T12:09:20Z</time></trkpt><trkpt lat="45.33898908888971" lon="10.71129849501908"><ele>51.0</ele><time>2026-04-08T12:09:22Z</time></trkpt><trkpt lat="45.33907740307449" lon="10.711271403881717"><ele>51.0</ele><time>2026-04-08T12:09:24Z</time></trkpt><trkpt lat="45.33914190941379" lon="10.71123913795365"><ele>51.0</ele><time>2026-04-08T12:09:26Z</time></trkpt><trkpt lat="45.33922700994561" lon="10.711203302730757"><ele>51.0</ele><time>2026-04-08T12:09:28Z</time></trkpt><trkpt lat="45.33929788290301" lon="10.71115556457323"><ele>51.0</ele><time>2026-04-08T12:09:30Z</time></trkpt><trkpt lat="45.33936669663829" lon="10.711110018568927"><ele>51.0</ele><time>2026-04-08T12:09:32Z</time></trkpt><trkpt lat="45.33945079402565" lon="10.711044527689658"><ele>51.0</ele><time>2026-04-08T12:09:34Z</time></trkpt><trkpt lat="45.339544817444775" lon="10.711002966204966"><ele>51.0</ele><time>2026-04-08T12:09:36Z</time></trkpt><trkpt lat="45.33963277782247" lon="10.710959980505818"><ele>51.0</ele><time>2026-04-08T12:09:39Z</time></trkpt><trkpt lat="45.33969980087178" lon="10.710902623794423"><ele>51.0</ele><time>2026-04-08T12:09:41Z</time></trkpt><trkpt lat="45.33976334688253" lon="10.710869934394527"><ele>51.0</ele><time>2026-04-08T12:09:43Z</time></trkpt><trkpt lat="45.33982406464448" lon="10.710840915699075"><ele>51.0</ele><time>2026-04-08T12:09:45Z</time></trkpt><trkpt lat="45.33988422167895" lon="10.710768582583693"><ele>51.166666666666664</ele><time>2026-04-08T12:09:47Z</time></trkpt><trkpt lat="45.339945621734095" lon="10.710733423734379"><ele>51.33333333333333</ele><time>2026-04-08T12:09:49Z</time></trkpt><trkpt lat="45.3400087727418" lon="10.710677594150898"><ele>51.5</ele><time>2026-04-08T12:09:51Z</time></trkpt><trkpt lat="45.34009888820405" lon="10.710626663035006"><ele>51.666666666666664</ele><time>2026-04-08T12:09:53Z</time></trkpt><trkpt lat="45.3401853073343" lon="10.710569286178737"><ele>51.83333333333333</ele><time>2026-04-08T12:09:55Z</time></trkpt><trkpt lat="45.34026494206047" lon="10.710502817002473"><ele>52.0</ele><time>2026-04-08T12:09:57Z</time></trkpt><trkpt lat="45.340346697187904" lon="10.710429722320349"><ele>51.99999999999999</ele><time>2026-04-08T12:09:59Z</time></trkpt><trkpt lat="45.34042246400564" lon="10.710406084811375"><ele>52.0</ele><time>2026-04-08T12:10:02Z</time></trkpt><trkpt lat="45.34050045413526" lon="10.71038422590191"><ele>52.0</ele><time>2026-04-08T12:10:04Z</time></trkpt><trkpt lat="45.34057596435236" lon="10.710339237092617"><ele>52.0</ele><time>2026-04-08T12:10:06Z</time></trkpt><trkpt lat="45.340657361883856" lon="10.710276415373565"><ele>51.99999999999999</ele><time>2026-04-08T12:10:08Z</time></trkpt><trkpt lat="45.34071901569" lon="10.710218598377658"><ele>52.0</ele><time>2026-04-08T12:10:10Z</time></trkpt><trkpt lat="45.34079322928763" lon="10.710171026896212"><ele>52.42857142857142</ele><time>2026-04-08T12:10:12Z</time></trkpt><trkpt lat="45.34085739003565" lon="10.710128330678081"><ele>52.85714285714286</ele><time>2026-04-08T12:10:14Z</time></trkpt><trkpt lat="45.34091854235699" lon="10.710092193098435"><ele>53.285714285714285</ele><time>2026-04-08T12:10:16Z</time></trkpt><trkpt lat="45.340977377544284" lon="10.710056580609624"><ele>53.71428571428571</ele><time>2026-04-08T12:10:18Z</time></trkpt><trkpt lat="45.341042221493055" lon="10.710013854548944"><ele>54.14285714285714</ele><time>2026-04-08T12:10:20Z</time></trkpt><trkpt lat="45.34110810345868" lon="10.709970142703485"><ele>54.57142857142857</ele><time>2026-04-08T12:10:22Z</time></trkpt><trkpt lat="45.34117586517222" lon="10.709936424139348"><ele>55.0</ele><time>2026-04-08T12:10:24Z</time></trkpt><trkpt lat="45.341265153671465" lon="10.709877932632034"><ele>55.0</ele><time>2026-04-08T12:10:26Z</time></trkpt><trkpt lat="45.3413610624128" lon="10.709835021871264"><ele>55.0</ele><time>2026-04-08T12:10:29Z</time></trkpt><trkpt lat="45.3414251446095" lon="10.709794396114601"><ele>55.0</ele><time>2026-04-08T12:10:31Z</time></trkpt><trkpt lat="45.34152960617296" lon="10.709768661208674"><ele>55.0</ele><time>2026-04-08T12:10:33Z</time></trkpt><trkpt lat="45.34163223321051" lon="10.709769467964502"><ele>55.0</ele><time>2026-04-08T12:10:35Z</time></trkpt><trkpt lat="45.34170685819397" lon="10.709741200972934"><ele>54.57142857142857</ele><time>2026-04-08T12:10:37Z</time></trkpt><trkpt lat="45.34177349072347" lon="10.709709696842488"><ele>54.14285714285714</ele><time>2026-04-08T12:10:39Z</time></trkpt><trkpt lat="45.34183727565482" lon="10.709679914361265"><ele>53.71428571428571</ele><time>2026-04-08T12:10:41Z</time></trkpt><trkpt lat="45.341905337285304" lon="10.70963318315743"><ele>53.285714285714285</ele><time>2026-04-08T12:10:43Z</time></trkpt><trkpt lat="45.34196380661819" lon="10.709598573168408"><ele>52.85714285714286</ele><time>2026-04-08T12:10:45Z</time></trkpt><trkpt lat="45.34205941453759" lon="10.709559693825648"><ele>52.42857142857142</ele><time>2026-04-08T12:10:48Z</time></trkpt><trkpt lat="45.342129535969875" lon="10.709550736420463"><ele>52.0</ele><time>2026-04-08T12:10:50Z</time></trkpt><trkpt lat="45.34221345488533" lon="10.709527502814517"><ele>51.83333333333333</ele><time>2026-04-08T12:10:52Z</time></trkpt><trkpt lat="45.342293063877534" lon="10.709508246945258"><ele>51.666666666666664</ele><time>2026-04-08T12:10:54Z</time></trkpt><trkpt lat="45.342382570983176" lon="10.709476565443929"><ele>51.5</ele><time>2026-04-08T12:10:56Z</time></trkpt><trkpt lat="45.34247412718041" lon="10.709438820575327"><ele>51.33333333333333</ele><time>2026-04-08T12:10:58Z</time></trkpt><trkpt lat="45.34254733849864" lon="10.709406469878132"><ele>51.166666666666664</ele><time>2026-04-08T12:11:00Z</time></trkpt><trkpt lat="45.34262203719052" lon="10.70935513753687"><ele>51.0</ele><time>2026-04-08T12:11:02Z</time></trkpt><trkpt lat="45.34269604776165" lon="10.709324944143784"><ele>52.166666666666664</ele><time>2026-04-08T12:11:04Z</time></trkpt><trkpt lat="45.342768040733425" lon="10.709300901856093"><ele>53.33333333333333</ele><time>2026-04-08T12:11:06Z</time></trkpt><trkpt lat="45.3428426430667" lon="10.709285671197476"><ele>54.5</ele><time>2026-04-08T12:11:08Z</time></trkpt><trkpt lat="45.342916080404684" lon="10.709273713992678"><ele>55.666666666666664</ele><time>2026-04-08T12:11:10Z</time></trkpt><trkpt lat="45.3429990132743" lon="10.709269606942517"><ele>56.83333333333333</ele><time>2026-04-08T12:11:12Z</time></trkpt><trkpt lat="45.343079698260226" lon="10.709257195039585"><ele>58.0</ele><time>2026-04-08T12:11:14Z</time></trkpt><trkpt lat="45.343146915166784" lon="10.709262069366519"><ele>57.99999999999999</ele><time>2026-04-08T12:11:16Z</time></trkpt><trkpt lat="45.343231518999715" lon="10.70924837409278"><ele>58.0</ele><time>2026-04-08T12:11:18Z</time></trkpt><trkpt lat="45.34329929900056" lon="10.70925052419226"><ele>58.0</ele><time>2026-04-08T12:11:20Z</time></trkpt><trkpt lat="45.34337939410399" lon="10.709235266468822"><ele>58.0</ele><time>2026-04-08T12:11:22Z</time></trkpt><trkpt lat="45.34349488393854" lon="10.709220421120293"><ele>57.99999999999999</ele><time>2026-04-08T12:11:24Z</time></trkpt><trkpt lat="45.34356591257674" lon="10.70923550360673"><ele>58.0</ele><time>2026-04-08T12:11:25Z</time></trkpt><trkpt lat="45.34367726377617" lon="10.709220188001218"><ele>58.0</ele><time>2026-04-08T12:11:27Z</time></trkpt><trkpt lat="45.34377967811522" lon="10.709210630862001"><ele>58.0</ele><time>2026-04-08T12:11:29Z</time></trkpt><trkpt lat="45.34387889792322" lon="10.709198298760036"><ele>58.0</ele><time>2026-04-08T12:11:31Z</time></trkpt><trkpt lat="45.34397324356842" lon="10.709187932735375"><ele>58.0</ele><time>2026-04-08T12:11:33Z</time></trkpt><trkpt lat="45.3440674376582" lon="10.709187172997815"><ele>58.0</ele><time>2026-04-08T12:11:35Z</time></trkpt><trkpt lat="45.34416252761894" lon="10.709174048346298"><ele>57.599999999999994</ele><time>2026-04-08T12:11:37Z</time></trkpt><trkpt lat="45.34425706412675" lon="10.709174649511347"><ele>57.199999999999996</ele><time>2026-04-08T12:11:39Z</time></trkpt><trkpt lat="45.34434061306779" lon="10.709176591573218"><ele>56.8</ele><time>2026-04-08T12:11:41Z</time></trkpt><trkpt lat="45.34443317037141" lon="10.70917261121261"><ele>56.4</ele><time>2026-04-08T12:11:43Z</time></trkpt><trkpt lat="45.344544897361985" lon="10.709162773882984"><ele>56.0</ele><time>2026-04-08T12:11:45Z</time></trkpt><trkpt lat="45.34464874125885" lon="10.709196136497203"><ele>56.16666666666667</ele><time>2026-04-08T12:11:47Z</time></trkpt><trkpt lat="45.344749090049476" lon="10.709202978963164"><ele>56.333333333333336</ele><time>2026-04-08T12:11:49Z</time></trkpt><trkpt lat="45.34482986523422" lon="10.709216359465337"><ele>56.5</ele><time>2026-04-08T12:11:51Z</time></trkpt><trkpt lat="45.34490767080583" lon="10.70922023697385"><ele>56.66666666666667</ele><time>2026-04-08T12:11:53Z</time></trkpt><trkpt lat="45.34501073093064" lon="10.709225194266267"><ele>56.833333333333336</ele><time>2026-04-08T12:11:55Z</time></trkpt><trkpt lat="45.34507609364971" lon="10.70923757208784"><ele>57.0</ele><time>2026-04-08T12:11:57Z</time></trkpt><trkpt lat="45.34515592285441" lon="10.70926543478038"><ele>57.0</ele><time>2026-04-08T12:11:59Z</time></trkpt><trkpt lat="45.345252434002425" lon="10.709264103030982"><ele>57.0</ele><time>2026-04-08T12:12:01Z</time></trkpt><trkpt lat="45.34534506609724" lon="10.709277661994195"><ele>57.0</ele><time>2026-04-08T12:12:03Z</time></trkpt><trkpt lat="45.34544092967622" lon="10.709314619761008"><ele>57.0</ele><time>2026-04-08T12:12:05Z</time></trkpt><trkpt lat="45.34554964242776" lon="10.709341161162762"><ele>57.0</ele><time>2026-04-08T12:12:07Z</time></trkpt><trkpt lat="45.345652338205895" lon="10.709357097842473"><ele>56.333333333333336</ele><time>2026-04-08T12:12:09Z</time></trkpt><trkpt lat="45.3457388094295" lon="10.709400915777664"><ele>55.66666666666667</ele><time>2026-04-08T12:12:11Z</time></trkpt><trkpt lat="45.34581326183238" lon="10.709420714116053"><ele>55.0</ele><time>2026-04-08T12:12:13Z</time></trkpt><trkpt lat="45.34590532315722" lon="10.70943768218453"><ele>54.333333333333336</ele><time>2026-04-08T12:12:15Z</time></trkpt><trkpt lat="45.34599319125989" lon="10.709444511562513"><ele>53.66666666666667</ele><time>2026-04-08T12:12:17Z</time></trkpt><trkpt lat="45.34608681417826" lon="10.709486464820063"><ele>53.0</ele><time>2026-04-08T12:12:19Z</time></trkpt><trkpt lat="45.346182487874" lon="10.709522951460748"><ele>53.0</ele><time>2026-04-08T12:12:21Z</time></trkpt><trkpt lat="45.34628565845904" lon="10.709549517548462"><ele>53.0</ele><time>2026-04-08T12:12:23Z</time></trkpt><trkpt lat="45.34638273555826" lon="10.709586506545064"><ele>53.0</ele><time>2026-04-08T12:12:25Z</time></trkpt><trkpt lat="45.346478346888155" lon="10.709614666384653"><ele>53.0</ele><time>2026-04-08T12:12:27Z</time></trkpt><trkpt lat="45.346580025770315" lon="10.709653500714138"><ele>53.0</ele><time>2026-04-08T12:12:29Z</time></trkpt><trkpt lat="45.34666360566766" lon="10.7096928736918"><ele>53.2</ele><time>2026-04-08T12:12:31Z</time></trkpt><trkpt lat="45.346755387747386" lon="10.709751069288668"><ele>53.4</ele><time>2026-04-08T12:12:33Z</time></trkpt><trkpt lat="45.34684368214594" lon="10.709789968786891"><ele>53.60000000000001</ele><time>2026-04-08T12:12:35Z</time></trkpt><trkpt lat="45.34694443446941" lon="10.709836741013874"><ele>53.800000000000004</ele><time>2026-04-08T12:12:37Z</time></trkpt><trkpt lat="45.347044595250814" lon="10.709875846533564"><ele>54.0</ele><time>2026-04-08T12:12:39Z</time></trkpt><trkpt lat="45.347141544562824" lon="10.709909290927103"><ele>54.800000000000004</ele><time>2026-04-08T12:12:41Z</time></trkpt><trkpt lat="45.34724068763543" lon="10.70994240140331"><ele>55.60000000000001</ele><time>2026-04-08T12:12:43Z</time></trkpt><trkpt lat="45.34732610699027" lon="10.709997345493457"><ele>56.4</ele><time>2026-04-08T12:12:45Z</time></trkpt><trkpt lat="45.347415694310065" lon="10.71005990563538"><ele>57.2</ele><time>2026-04-08T12:12:46.999Z</time></trkpt><trkpt lat="45.347509044409264" lon="10.710118047546645"><ele>58.0</ele><time>2026-04-08T12:12:48.999Z</time></trkpt><trkpt lat="45.34761140099138" lon="10.710182241698563"><ele>58.0</ele><time>2026-04-08T12:12:50.999Z</time></trkpt><trkpt lat="45.347704580857624" lon="10.710238148971223"><ele>58.0</ele><time>2026-04-08T12:12:52.999Z</time></trkpt><trkpt lat="45.347800103497704" lon="10.710276477489558"><ele>58.0</ele><time>2026-04-08T12:12:54.999Z</time></trkpt><trkpt lat="45.3478885789973" lon="10.710334843727601"><ele>58.0</ele><time>2026-04-08T12:12:56.999Z</time></trkpt><trkpt lat="45.34796612232584" lon="10.710426201277413"><ele>58.0</ele><time>2026-04-08T12:12:58.999Z</time></trkpt><trkpt lat="45.34804283329116" lon="10.710491593502871"><ele>57.57142857142858</ele><time>2026-04-08T12:13:00.999Z</time></trkpt><trkpt lat="45.34810546243335" lon="10.710529165015732"><ele>57.142857142857146</ele><time>2026-04-08T12:13:02.999Z</time></trkpt><trkpt lat="45.34815792942259" lon="10.710585962926046"><ele>56.714285714285715</ele><time>2026-04-08T12:13:04.999Z</time></trkpt><trkpt lat="45.34823152103038" lon="10.71067661763653"><ele>56.28571428571429</ele><time>2026-04-08T12:13:07.999Z</time></trkpt><trkpt lat="45.34829106981618" lon="10.710746253073895"><ele>55.85714285714286</ele><time>2026-04-08T12:13:10.999Z</time></trkpt><trkpt lat="45.348345695957036" lon="10.710792536811105"><ele>55.42857142857142</ele><time>2026-04-08T12:13:12.999Z</time></trkpt><trkpt lat="45.34840436079665" lon="10.710839320766244"><ele>55.0</ele><time>2026-04-08T12:13:14.999Z</time></trkpt><trkpt lat="45.34847068006174" lon="10.710885432782618"><ele>54.99999999999999</ele><time>2026-04-08T12:13:17.999Z</time></trkpt><trkpt lat="45.34853642199863" lon="10.710966190673854"><ele>55.0</ele><time>2026-04-08T12:13:20.999Z</time></trkpt><trkpt lat="45.34860299341305" lon="10.711056088034951"><ele>55.0</ele><time>2026-04-08T12:13:23.999Z</time></trkpt><trkpt lat="45.348659314854295" lon="10.711163553992087"><ele>55.0</ele><time>2026-04-08T12:13:25.999Z</time></trkpt><trkpt lat="45.34871884256032" lon="10.711245239188353"><ele>54.99999999999999</ele><time>2026-04-08T12:13:27.999Z</time></trkpt><trkpt lat="45.348772840598755" lon="10.711309145233106"><ele>55.0</ele><time>2026-04-08T12:13:29.999Z</time></trkpt><trkpt lat="45.34882249016196" lon="10.711382115342632"><ele>54.49999999999999</ele><time>2026-04-08T12:13:31.999Z</time></trkpt><trkpt lat="45.34887654408105" lon="10.71144972470112"><ele>54.0</ele><time>2026-04-08T12:13:33.999Z</time></trkpt><trkpt lat="45.34894636374534" lon="10.711546589819656"><ele>53.5</ele><time>2026-04-08T12:13:36.999Z</time></trkpt><trkpt lat="45.34900775868932" lon="10.711605825273066"><ele>53.0</ele><time>2026-04-08T12:13:38.999Z</time></trkpt><trkpt lat="45.3490430999417" lon="10.71169473046853"><ele>52.49999999999999</ele><time>2026-04-08T12:13:40.999Z</time></trkpt><trkpt lat="45.349093526433116" lon="10.71176528670338"><ele>52.0</ele><time>2026-04-08T12:13:42.999Z</time></trkpt><trkpt lat="45.34914869584444" lon="10.711838773124825"><ele>51.99999999999999</ele><time>2026-04-08T12:13:44.999Z</time></trkpt><trkpt lat="45.34919702609999" lon="10.711944058386578"><ele>52.0</ele><time>2026-04-08T12:13:47.999Z</time></trkpt><trkpt lat="45.34925210439839" lon="10.712029214234356"><ele>52.0</ele><time>2026-04-08T12:13:49.999Z</time></trkpt><trkpt lat="45.349304392038086" lon="10.712134136590144"><ele>52.0</ele><time>2026-04-08T12:13:51.999Z</time></trkpt><trkpt lat="45.349350709792965" lon="10.712238601613892"><ele>51.99999999999999</ele><time>2026-04-08T12:13:53.999Z</time></trkpt><trkpt lat="45.349394022700274" lon="10.712333175685485"><ele>52.0</ele><time>2026-04-08T12:13:55.999Z</time></trkpt><trkpt lat="45.34942605752173" lon="10.712425485525513"><ele>51.99999999999999</ele><time>2026-04-08T12:13:57.999Z</time></trkpt><trkpt lat="45.34946912779422" lon="10.712533064862326"><ele>52.0</ele><time>2026-04-08T12:13:59.999Z</time></trkpt><trkpt lat="45.349523163315546" lon="10.712648173567707"><ele>52.0</ele><time>2026-04-08T12:14:01.999Z</time></trkpt><trkpt lat="45.34956483720055" lon="10.712756758382284"><ele>52.0</ele><time>2026-04-08T12:14:03.999Z</time></trkpt><trkpt lat="45.349605576496465" lon="10.712853000724587"><ele>51.99999999999999</ele><time>2026-04-08T12:14:05.999Z</time></trkpt><trkpt lat="45.34964927183422" lon="10.71296133564397"><ele>52.0</ele><time>2026-04-08T12:14:07.999Z</time></trkpt><trkpt lat="45.349701027768006" lon="10.713086472961258"><ele>52.0</ele><time>2026-04-08T12:14:09.999Z</time></trkpt><trkpt lat="45.34974970008287" lon="10.713184625047578"><ele>52.0</ele><time>2026-04-08T12:14:11.999Z</time></trkpt><trkpt lat="45.349784126732736" lon="10.713282145390359"><ele>52.0</ele><time>2026-04-08T12:14:13.999Z</time></trkpt><trkpt lat="45.34981547486056" lon="10.71336950745769"><ele>52.0</ele><time>2026-04-08T12:14:15.999Z</time></trkpt><trkpt lat="45.3498588918291" lon="10.713446465712318"><ele>52.0</ele><time>2026-04-08T12:14:17.999Z</time></trkpt><trkpt lat="45.34988173657586" lon="10.71354084978625"><ele>52.0</ele><time>2026-04-08T12:14:19.999Z</time></trkpt><trkpt lat="45.349934325737834" lon="10.713620734088424"><ele>52.0</ele><time>2026-04-08T12:14:21.999Z</time></trkpt><trkpt lat="45.3499770796289" lon="10.713690421644671"><ele>52.0</ele><time>2026-04-08T12:14:23.999Z</time></trkpt><trkpt lat="45.350015574172716" lon="10.713780308344475"><ele>52.0</ele><time>2026-04-08T12:14:25.999Z</time></trkpt><trkpt lat="45.3500536534344" lon="10.713864108316312"><ele>52.0</ele><time>2026-04-08T12:14:27.999Z</time></trkpt><trkpt lat="45.35008137831669" lon="10.713955062113442"><ele>52.0</ele><time>2026-04-08T12:14:29.999Z</time></trkpt><trkpt lat="45.350124424246275" lon="10.71403444983107"><ele>52.0</ele><time>2026-04-08T12:14:31.999Z</time></trkpt><trkpt lat="45.35017223397328" lon="10.714118939729063"><ele>52.0</ele><time>2026-04-08T12:14:33.999Z</time></trkpt><trkpt lat="45.35021711337748" lon="10.714222168964513"><ele>52.0</ele><time>2026-04-08T12:14:35.999Z</time></trkpt><trkpt lat="45.35025611718932" lon="10.714326586414684"><ele>51.99999999999999</ele><time>2026-04-08T12:14:37.999Z</time></trkpt><trkpt lat="45.35032329843054" lon="10.71441221523285"><ele>52.0</ele><time>2026-04-08T12:14:39.999Z</time></trkpt><trkpt lat="45.350345462135195" lon="10.714517273661707"><ele>52.0</ele><time>2026-04-08T12:14:41.999Z</time></trkpt><trkpt lat="45.3503653474824" lon="10.714621424686936"><ele>52.0</ele><time>2026-04-08T12:14:43.999Z</time></trkpt><trkpt lat="45.35041196498292" lon="10.714706797144515"><ele>51.99999999999999</ele><time>2026-04-08T12:14:45.999Z</time></trkpt><trkpt lat="45.35045500652582" lon="10.714818532341974"><ele>52.0</ele><time>2026-04-08T12:14:47.999Z</time></trkpt><trkpt lat="45.350496081708016" lon="10.714931716245326"><ele>51.99999999999999</ele><time>2026-04-08T12:14:49.999Z</time></trkpt><trkpt lat="45.350530662418336" lon="10.715041327892711"><ele>52.0</ele><time>2026-04-08T12:14:51.999Z</time></trkpt><trkpt lat="45.35056317197431" lon="10.715136600240314"><ele>52.0</ele><time>2026-04-08T12:14:53.999Z</time></trkpt><trkpt lat="45.35058928688221" lon="10.715232906503251"><ele>52.0</ele><time>2026-04-08T12:14:55.999Z</time></trkpt><trkpt lat="45.35062739356528" lon="10.715340725383026"><ele>51.99999999999999</ele><time>2026-04-08T12:14:57.999Z</time></trkpt><trkpt lat="45.350665971698234" lon="10.715458144065982"><ele>52.0</ele><time>2026-04-08T12:14:59.999Z</time></trkpt><trkpt lat="45.350691364159644" lon="10.715544878109235"><ele>51.8</ele><time>2026-04-08T12:15:01.999Z</time></trkpt><trkpt lat="45.35072761982591" lon="10.715646484924617"><ele>51.6</ele><time>2026-04-08T12:15:03.999Z</time></trkpt><trkpt lat="45.35076016506448" lon="10.715750827580258"><ele>51.4</ele><time>2026-04-08T12:15:05.999Z</time></trkpt><trkpt lat="45.350804697750505" lon="10.715860350081915"><ele>51.199999999999996</ele><time>2026-04-08T12:15:07.999Z</time></trkpt><trkpt lat="45.35081640761953" lon="10.71600687375762"><ele>51.0</ele><time>2026-04-08T12:15:09.999Z</time></trkpt><trkpt lat="45.35085373929119" lon="10.7161405936329"><ele>51.333333333333336</ele><time>2026-04-08T12:15:11.999Z</time></trkpt><trkpt lat="45.35088667085638" lon="10.716247563095738"><ele>51.66666666666667</ele><time>2026-04-08T12:15:13.999Z</time></trkpt><trkpt lat="45.35092045497536" lon="10.716355648056512"><ele>52.0</ele><time>2026-04-08T12:15:15.999Z</time></trkpt><trkpt lat="45.35095390154484" lon="10.71647283340553"><ele>52.333333333333336</ele><time>2026-04-08T12:15:17.999Z</time></trkpt><trkpt lat="45.35098725640797" lon="10.716598620589005"><ele>52.66666666666667</ele><time>2026-04-08T12:15:19.999Z</time></trkpt><trkpt lat="45.35102478553079" lon="10.716716985722025"><ele>53.0</ele><time>2026-04-08T12:15:21.999Z</time></trkpt><trkpt lat="45.35106681488042" lon="10.716828263271884"><ele>52.833333333333336</ele><time>2026-04-08T12:15:23.999Z</time></trkpt><trkpt lat="45.351098559315716" lon="10.71694776888929"><ele>52.66666666666667</ele><time>2026-04-08T12:15:25.999Z</time></trkpt><trkpt lat="45.35112321182969" lon="10.717062556401924"><ele>52.5</ele><time>2026-04-08T12:15:27.999Z</time></trkpt><trkpt lat="45.351143035326416" lon="10.71719217546373"><ele>52.33333333333333</ele><time>2026-04-08T12:15:29.999Z</time></trkpt><trkpt lat="45.35117341174816" lon="10.71731472267853"><ele>52.166666666666664</ele><time>2026-04-08T12:15:31.999Z</time></trkpt><trkpt lat="45.351202890082476" lon="10.717417026919401"><ele>52.0</ele><time>2026-04-08T12:15:33.999Z</time></trkpt><trkpt lat="45.35123187256255" lon="10.717516670018563"><ele>51.99999999999999</ele><time>2026-04-08T12:15:35.999Z</time></trkpt><trkpt lat="45.35125705144277" lon="10.717611923872063"><ele>52.0</ele><time>2026-04-08T12:15:37.999Z</time></trkpt><trkpt lat="45.35129299480046" lon="10.717722341466716"><ele>52.0</ele><time>2026-04-08T12:15:39.999Z</time></trkpt><trkpt lat="45.35133822240169" lon="10.717839268765529"><ele>52.0</ele><time>2026-04-08T12:15:41.999Z</time></trkpt><trkpt lat="45.35137963280714" lon="10.71794564464915"><ele>51.99999999999999</ele><time>2026-04-08T12:15:43.999Z</time></trkpt><trkpt lat="45.35139707859552" lon="10.71804635599737"><ele>52.0</ele><time>2026-04-08T12:15:45.999Z</time></trkpt><trkpt lat="45.35142048266917" lon="10.718162327229626"><ele>51.99999999999999</ele><time>2026-04-08T12:15:47.999Z</time></trkpt><trkpt lat="45.351449070491334" lon="10.71828485362314"><ele>52.0</ele><time>2026-04-08T12:15:49.999Z</time></trkpt><trkpt lat="45.35148703060442" lon="10.718398035339902"><ele>52.0</ele><time>2026-04-08T12:15:51.999Z</time></trkpt><trkpt lat="45.35152108820904" lon="10.718482759918514"><ele>52.0</ele><time>2026-04-08T12:15:53.999Z</time></trkpt><trkpt lat="45.35154810745588" lon="10.718583715936912"><ele>51.99999999999999</ele><time>2026-04-08T12:15:55.999Z</time></trkpt><trkpt lat="45.351584051411386" lon="10.718685233777494"><ele>52.0</ele><time>2026-04-08T12:15:57.999Z</time></trkpt><trkpt lat="45.35161781531053" lon="10.718802198867133"><ele>52.0</ele><time>2026-04-08T12:15:59.999Z</time></trkpt><trkpt lat="45.3516601470713" lon="10.718924005191425"><ele>52.0</ele><time>2026-04-08T12:16:01.999Z</time></trkpt><trkpt lat="45.35170509927295" lon="10.719034462389851"><ele>52.0</ele><time>2026-04-08T12:16:03.999Z</time></trkpt><trkpt lat="45.35176077068098" lon="10.719145140738261"><ele>52.0</ele><time>2026-04-08T12:16:05.999Z</time></trkpt><trkpt lat="45.35181408627082" lon="10.719273473455795"><ele>52.0</ele><time>2026-04-08T12:16:07.999Z</time></trkpt><trkpt lat="45.35186941468447" lon="10.719378347590519"><ele>52.6</ele><time>2026-04-08T12:16:10Z</time></trkpt><trkpt lat="45.35192007538502" lon="10.719490488551726"><ele>53.2</ele><time>2026-04-08T12:16:12Z</time></trkpt><trkpt lat="45.35198489202914" lon="10.719588223302424"><ele>53.8</ele><time>2026-04-08T12:16:14Z</time></trkpt><trkpt lat="45.35205095396006" lon="10.719673125665262"><ele>54.4</ele><time>2026-04-08T12:16:16Z</time></trkpt><trkpt lat="45.35211938732415" lon="10.719765476925366"><ele>55.0</ele><time>2026-04-08T12:16:18Z</time></trkpt><trkpt lat="45.35219549141342" lon="10.719873218226068"><ele>54.83333333333333</ele><time>2026-04-08T12:16:20Z</time></trkpt><trkpt lat="45.35226725574648" lon="10.719951851393622"><ele>54.666666666666664</ele><time>2026-04-08T12:16:22Z</time></trkpt><trkpt lat="45.35234262636431" lon="10.72003945503076"><ele>54.5</ele><time>2026-04-08T12:16:24Z</time></trkpt><trkpt lat="45.352428082881644" lon="10.720106026494436"><ele>54.33333333333333</ele><time>2026-04-08T12:16:26Z</time></trkpt><trkpt lat="45.35250285054831" lon="10.720174932867712"><ele>54.166666666666664</ele><time>2026-04-08T12:16:28Z</time></trkpt><trkpt lat="45.352567075403925" lon="10.720223467400476"><ele>54.0</ele><time>2026-04-08T12:16:30Z</time></trkpt><trkpt lat="45.35263028678529" lon="10.720268318637766"><ele>54.42857142857143</ele><time>2026-04-08T12:16:32Z</time></trkpt><trkpt lat="45.35269077915112" lon="10.720294728595068"><ele>54.857142857142854</ele><time>2026-04-08T12:16:34Z</time></trkpt><trkpt lat="45.35275471241077" lon="10.720333347743074"><ele>55.285714285714285</ele><time>2026-04-08T12:16:36Z</time></trkpt><trkpt lat="45.35283537172669" lon="10.720401152703738"><ele>55.71428571428571</ele><time>2026-04-08T12:16:39Z</time></trkpt><trkpt lat="45.35289388496749" lon="10.720445443876349"><ele>56.14285714285714</ele><time>2026-04-08T12:16:41Z</time></trkpt><trkpt lat="45.35295578581025" lon="10.720484763937446"><ele>56.57142857142857</ele><time>2026-04-08T12:16:43Z</time></trkpt><trkpt lat="45.3530227003451" lon="10.720549201345644"><ele>57.0</ele><time>2026-04-08T12:16:46Z</time></trkpt><trkpt lat="45.353088826933714" lon="10.72059997652397"><ele>57.166666666666664</ele><time>2026-04-08T12:16:49Z</time></trkpt><trkpt lat="45.35316505321479" lon="10.720664717359687"><ele>57.33333333333333</ele><time>2026-04-08T12:16:52Z</time></trkpt><trkpt lat="45.353255951947695" lon="10.720707037367259"><ele>57.5</ele><time>2026-04-08T12:16:55Z</time></trkpt><trkpt lat="45.353315753187644" lon="10.720752120120341"><ele>57.666666666666664</ele><time>2026-04-08T12:16:57Z</time></trkpt><trkpt lat="45.35338431693871" lon="10.720810582865862"><ele>57.83333333333333</ele><time>2026-04-08T12:16:59Z</time></trkpt><trkpt lat="45.353442172457335" lon="10.720887828819876"><ele>58.0</ele><time>2026-04-08T12:17:01Z</time></trkpt><trkpt lat="45.35351980388348" lon="10.72094804715955"><ele>57.99999999999999</ele><time>2026-04-08T12:17:03Z</time></trkpt><trkpt lat="45.35359075798029" lon="10.720987181350177"><ele>58.0</ele><time>2026-04-08T12:17:05Z</time></trkpt><trkpt lat="45.35366787518586" lon="10.72103293053682"><ele>58.0</ele><time>2026-04-08T12:17:07Z</time></trkpt><trkpt lat="45.35373717109837" lon="10.721062151938535"><ele>58.0</ele><time>2026-04-08T12:17:09Z</time></trkpt><trkpt lat="45.35379142141765" lon="10.721123032215413"><ele>57.99999999999999</ele><time>2026-04-08T12:17:11Z</time></trkpt><trkpt lat="45.35385456976663" lon="10.721183960847975"><ele>58.0</ele><time>2026-04-08T12:17:13Z</time></trkpt><trkpt lat="45.35393410030348" lon="10.721228971402898"><ele>58.166666666666664</ele><time>2026-04-08T12:17:15Z</time></trkpt><trkpt lat="45.354005629748166" lon="10.72127063934041"><ele>58.33333333333333</ele><time>2026-04-08T12:17:17Z</time></trkpt><trkpt lat="45.354070178656876" lon="10.721297300253667"><ele>58.5</ele><time>2026-04-08T12:17:19Z</time></trkpt><trkpt lat="45.35414376723175" lon="10.721336159048963"><ele>58.66666666666667</ele><time>2026-04-08T12:17:21Z</time></trkpt><trkpt lat="45.35420945955095" lon="10.72139902794381"><ele>58.833333333333336</ele><time>2026-04-08T12:17:23Z</time></trkpt><trkpt lat="45.35427838519939" lon="10.721459659969334"><ele>59.0</ele><time>2026-04-08T12:17:26Z</time></trkpt><trkpt lat="45.35434156771872" lon="10.721488423032406"><ele>59.0</ele><time>2026-04-08T12:17:30Z</time></trkpt><trkpt lat="45.35438446776845" lon="10.721568216185311"><ele>59.0</ele><time>2026-04-08T12:17:39Z</time></trkpt><trkpt lat="45.35435504682595" lon="10.721652052473344"><ele>59.0</ele><time>2026-04-08T12:17:44Z</time></trkpt><trkpt lat="45.3542856253838" lon="10.721716338583775"><ele>59.0</ele><time>2026-04-08T12:19:21Z</time></trkpt><trkpt lat="45.35423348449097" lon="10.721810627925374"><ele>59.0</ele><time>2026-04-08T12:19:26Z</time></trkpt><trkpt lat="45.354182473483576" lon="10.721865672445675"><ele>59.0</ele><time>2026-04-08T12:19:28Z</time></trkpt><trkpt lat="45.35413539143506" lon="10.721936649714122"><ele>59.0</ele><time>2026-04-08T12:19:33Z</time></trkpt><trkpt lat="45.354082605102185" lon="10.72200660806359"><ele>59.00000000000001</ele><time>2026-04-08T12:19:36Z</time></trkpt><trkpt lat="45.354015929479075" lon="10.72208110265581"><ele>59.0</ele><time>2026-04-08T12:19:38Z</time></trkpt><trkpt lat="45.35396634659379" lon="10.722151236103223"><ele>59.0</ele><time>2026-04-08T12:19:40Z</time></trkpt><trkpt lat="45.35389482275544" lon="10.722248009081957"><ele>59.0</ele><time>2026-04-08T12:19:42Z</time></trkpt><trkpt lat="45.35383623136092" lon="10.722349515149897"><ele>59.00000000000001</ele><time>2026-04-08T12:19:44Z</time></trkpt><trkpt lat="45.353795889641724" lon="10.722432806761233"><ele>59.0</ele><time>2026-04-08T12:19:46Z</time></trkpt><trkpt lat="45.353750928683716" lon="10.722510176618064"><ele>59.00000000000001</ele><time>2026-04-08T12:19:48Z</time></trkpt><trkpt lat="45.353709386852366" lon="10.722591638327705"><ele>59.0</ele><time>2026-04-08T12:19:50Z</time></trkpt><trkpt lat="45.35364932014096" lon="10.722692515719162"><ele>59.0</ele><time>2026-04-08T12:19:52Z</time></trkpt><trkpt lat="45.3536075416091" lon="10.72279348029889"><ele>59.0</ele><time>2026-04-08T12:19:54Z</time></trkpt><trkpt lat="45.35357853495702" lon="10.72288633418134"><ele>59.00000000000001</ele><time>2026-04-08T12:19:56Z</time></trkpt><trkpt lat="45.35354909468011" lon="10.722996710824049"><ele>59.0</ele><time>2026-04-08T12:19:58Z</time></trkpt><trkpt lat="45.35351226813789" lon="10.723111840864929"><ele>58.833333333333336</ele><time>2026-04-08T12:20:00Z</time></trkpt><trkpt lat="45.35346868800182" lon="10.723214010342218"><ele>58.66666666666667</ele><time>2026-04-08T12:20:02Z</time></trkpt><trkpt lat="45.35341443750853" lon="10.723305035863524"><ele>58.5</ele><time>2026-04-08T12:20:04Z</time></trkpt><trkpt lat="45.35338579058942" lon="10.723413875369818"><ele>58.33333333333333</ele><time>2026-04-08T12:20:06Z</time></trkpt><trkpt lat="45.35336506698922" lon="10.723505458319831"><ele>58.166666666666664</ele><time>2026-04-08T12:20:08Z</time></trkpt><trkpt lat="45.353349440908296" lon="10.723605447029685"><ele>58.0</ele><time>2026-04-08T12:20:12Z</time></trkpt><trkpt lat="45.35337987216397" lon="10.72369951853097"><ele>57.666666666666664</ele><time>2026-04-08T12:20:25Z</time></trkpt><trkpt lat="45.353456779821" lon="10.723777464558214"><ele>57.33333333333333</ele><time>2026-04-08T12:20:34.999Z</time></trkpt><trkpt lat="45.353517795442045" lon="10.723817661525791"><ele>57.0</ele><time>2026-04-08T12:20:55.999Z</time></trkpt><trkpt lat="45.353582036547465" lon="10.723873889230859"><ele>56.66666666666667</ele><time>2026-04-08T12:21:19.999Z</time></trkpt><trkpt lat="45.35360573691439" lon="10.72399332851341"><ele>56.333333333333336</ele><time>2026-04-08T12:21:24.999Z</time></trkpt><trkpt lat="45.353609321169586" lon="10.724112309702981"><ele>56.0</ele><time>2026-04-08T12:21:29.999Z</time></trkpt><trkpt lat="45.35361793742231" lon="10.724240820181054"><ele>56.00000000000001</ele><time>2026-04-08T12:21:33.999Z</time></trkpt><trkpt lat="45.353602330011675" lon="10.724357202851634"><ele>56.0</ele><time>2026-04-08T12:21:36.998Z</time></trkpt><trkpt lat="45.353586238526496" lon="10.7244455599413"><ele>56.0</ele><time>2026-04-08T12:21:40.998Z</time></trkpt><trkpt lat="45.35356370011353" lon="10.724554801146434"><ele>56.0</ele><time>2026-04-08T12:21:43.998Z</time></trkpt><trkpt lat="45.35353615843837" lon="10.724651965696587"><ele>56.00000000000001</ele><time>2026-04-08T12:21:45.998Z</time></trkpt><trkpt lat="45.353529671322846" lon="10.724763826857258"><ele>56.0</ele><time>2026-04-08T12:21:48.998Z</time></trkpt><trkpt lat="45.35358366174504" lon="10.72483189836529"><ele>56.50000000000001</ele><time>2026-04-08T12:21:53.998Z</time></trkpt><trkpt lat="45.353648543165285" lon="10.724863750265184"><ele>57.0</ele><time>2026-04-08T12:21:58.998Z</time></trkpt><trkpt lat="45.35371770231895" lon="10.724935267107956"><ele>57.5</ele><time>2026-04-08T12:22:03.998Z</time></trkpt><trkpt lat="45.353771209544185" lon="10.725036283934983"><ele>58.0</ele><time>2026-04-08T12:22:06.998Z</time></trkpt><trkpt lat="45.353778066366594" lon="10.725165775651176"><ele>58.50000000000001</ele><time>2026-04-08T12:22:09.998Z</time></trkpt><trkpt lat="45.353743783935954" lon="10.725270593109167"><ele>59.0</ele><time>2026-04-08T12:22:11.998Z</time></trkpt><trkpt lat="45.35370280048279" lon="10.725361299189467"><ele>59.00000000000001</ele><time>2026-04-08T12:22:13.998Z</time></trkpt><trkpt lat="45.35366826371302" lon="10.725460278340723"><ele>59.0</ele><time>2026-04-08T12:22:15.998Z</time></trkpt><trkpt lat="45.353645633911725" lon="10.725559567929936"><ele>59.0</ele><time>2026-04-08T12:22:17.998Z</time></trkpt><trkpt lat="45.35360834768377" lon="10.725635563661431"><ele>59.0</ele><time>2026-04-08T12:22:19.998Z</time></trkpt><trkpt lat="45.35356327576792" lon="10.7257316478855"><ele>59.00000000000001</ele><time>2026-04-08T12:22:22.998Z</time></trkpt><trkpt lat="45.3535348045696" lon="10.72585796900953"><ele>59.0</ele><time>2026-04-08T12:22:25.998Z</time></trkpt><trkpt lat="45.3534821879159" lon="10.725944608667213"><ele>59.0</ele><time>2026-04-08T12:22:27.998Z</time></trkpt><trkpt lat="45.35343726740003" lon="10.72602770466011"><ele>59.0</ele><time>2026-04-08T12:22:29.998Z</time></trkpt><trkpt lat="45.3533986233296" lon="10.726109353012545"><ele>59.0</ele><time>2026-04-08T12:22:31.998Z</time></trkpt><trkpt lat="45.353353866399125" lon="10.726208565612877"><ele>59.0</ele><time>2026-04-08T12:22:33.998Z</time></trkpt><trkpt lat="45.353316903889606" lon="10.726304495134956"><ele>59.0</ele><time>2026-04-08T12:22:35.998Z</time></trkpt><trkpt lat="45.35328753929291" lon="10.726384236717655"><ele>59.0</ele><time>2026-04-08T12:22:37.998Z</time></trkpt><trkpt lat="45.353272980046114" lon="10.72648766834763"><ele>59.0</ele><time>2026-04-08T12:22:40.998Z</time></trkpt><trkpt lat="45.353232399396504" lon="10.726583245371051"><ele>59.16666666666667</ele><time>2026-04-08T12:22:43.998Z</time></trkpt><trkpt lat="45.35319188991953" lon="10.726675981437223"><ele>59.333333333333336</ele><time>2026-04-08T12:22:45.998Z</time></trkpt><trkpt lat="45.353166549873265" lon="10.726772385031248"><ele>59.5</ele><time>2026-04-08T12:22:48.998Z</time></trkpt><trkpt lat="45.35313959974584" lon="10.726855485391782"><ele>59.66666666666667</ele><time>2026-04-08T12:22:51.998Z</time></trkpt><trkpt lat="45.35309775160817" lon="10.7269485352754"><ele>59.833333333333336</ele><time>2026-04-08T12:22:54.998Z</time></trkpt><trkpt lat="45.35310350914691" lon="10.727059623022837"><ele>60.0</ele><time>2026-04-08T12:22:58.998Z</time></trkpt><trkpt lat="45.353166379648705" lon="10.727146188956224"><ele>60.57142857142857</ele><time>2026-04-08T12:23:01.998Z</time></trkpt><trkpt lat="45.35321014389576" lon="10.727216643222205"><ele>61.14285714285714</ele><time>2026-04-08T12:23:03.998Z</time></trkpt><trkpt lat="45.35326716326846" lon="10.727308276605097"><ele>61.71428571428571</ele><time>2026-04-08T12:23:05.998Z</time></trkpt><trkpt lat="45.35331088270704" lon="10.72738024785076"><ele>62.285714285714285</ele><time>2026-04-08T12:23:07.998Z</time></trkpt><trkpt lat="45.353359517348245" lon="10.727458186418087"><ele>62.85714285714285</ele><time>2026-04-08T12:23:09.998Z</time></trkpt><trkpt lat="45.353420894741625" lon="10.727509468412567"><ele>63.42857142857142</ele><time>2026-04-08T12:23:11.998Z</time></trkpt><trkpt lat="45.35348589329382" lon="10.727566079328419"><ele>64.0</ele><time>2026-04-08T12:23:13.998Z</time></trkpt><trkpt lat="45.353542510511055" lon="10.727608033270645"><ele>63.99999999999999</ele><time>2026-04-08T12:23:16Z</time></trkpt><trkpt lat="45.35362217267422" lon="10.72768658521181"><ele>64.0</ele><time>2026-04-08T12:23:19Z</time></trkpt><trkpt lat="45.353651924881994" lon="10.727776970161287"><ele>64.0</ele><time>2026-04-08T12:23:21Z</time></trkpt><trkpt lat="45.35370740705153" lon="10.72782920347439"><ele>64.0</ele><time>2026-04-08T12:23:25Z</time></trkpt><trkpt lat="45.35377720926589" lon="10.727872005868823"><ele>63.99999999999999</ele><time>2026-04-08T12:23:28Z</time></trkpt><trkpt lat="45.35387052246931" lon="10.727928422370791"><ele>64.0</ele><time>2026-04-08T12:23:30Z</time></trkpt><trkpt lat="45.353969993964085" lon="10.72802560602126"><ele>64.28571428571428</ele><time>2026-04-08T12:23:32Z</time></trkpt><trkpt lat="45.35403310077612" lon="10.728092721931041"><ele>64.57142857142857</ele><time>2026-04-08T12:23:33Z</time></trkpt><trkpt lat="45.354099389990566" lon="10.728130923080613"><ele>64.85714285714286</ele><time>2026-04-08T12:23:34Z</time></trkpt><trkpt lat="45.35416242962951" lon="10.728149438811773"><ele>65.14285714285714</ele><time>2026-04-08T12:23:35Z</time></trkpt><trkpt lat="45.35422589665587" lon="10.728174159248727"><ele>65.42857142857143</ele><time>2026-04-08T12:23:36Z</time></trkpt><trkpt lat="45.354290188050626" lon="10.72820698343376"><ele>65.71428571428571</ele><time>2026-04-08T12:23:37Z</time></trkpt><trkpt lat="45.354355692703315" lon="10.728242057021893"><ele>66.0</ele><time>2026-04-08T12:23:38Z</time></trkpt><trkpt lat="45.35442847316551" lon="10.728273503407987"><ele>66.0</ele><time>2026-04-08T12:23:39Z</time></trkpt><trkpt lat="45.35454590473123" lon="10.728335574228709"><ele>66.0</ele><time>2026-04-08T12:23:41Z</time></trkpt><trkpt lat="45.354608500923774" lon="10.72835490777412"><ele>66.0</ele><time>2026-04-08T12:23:42Z</time></trkpt><trkpt lat="45.354725692294146" lon="10.72839233580163"><ele>66.0</ele><time>2026-04-08T12:23:44Z</time></trkpt><trkpt lat="45.354797743878905" lon="10.728400461820144"><ele>66.0</ele><time>2026-04-08T12:23:45Z</time></trkpt><trkpt lat="45.354862452109025" lon="10.728413334995073"><ele>66.0</ele><time>2026-04-08T12:23:46Z</time></trkpt><trkpt lat="45.35492879045887" lon="10.728426519255576"><ele>65.39999999999999</ele><time>2026-04-08T12:23:47Z</time></trkpt><trkpt lat="45.354998784100104" lon="10.728444297041625"><ele>64.8</ele><time>2026-04-08T12:23:48Z</time></trkpt><trkpt lat="45.355114137588835" lon="10.728478922658946"><ele>64.19999999999999</ele><time>2026-04-08T12:23:50Z</time></trkpt><trkpt lat="45.355235099987375" lon="10.728492237533917"><ele>63.599999999999994</ele><time>2026-04-08T12:23:52Z</time></trkpt><trkpt lat="45.35533997392177" lon="10.728515520947983"><ele>63.0</ele><time>2026-04-08T12:23:54Z</time></trkpt><trkpt lat="45.3554353909838" lon="10.728527567272733"><ele>63.0</ele><time>2026-04-08T12:23:56Z</time></trkpt><trkpt lat="45.355529732340415" lon="10.728531762671068"><ele>63.0</ele><time>2026-04-08T12:23:58Z</time></trkpt><trkpt lat="45.355625901243016" lon="10.728534183064475"><ele>63.0</ele><time>2026-04-08T12:24:00Z</time></trkpt><trkpt lat="45.35572898551947" lon="10.728528927393814"><ele>63.0</ele><time>2026-04-08T12:24:02Z</time></trkpt><trkpt lat="45.355840743241814" lon="10.728556483455554"><ele>63.0</ele><time>2026-04-08T12:24:04Z</time></trkpt><trkpt lat="45.3559320348025" lon="10.72854883948783"><ele>62.666666666666664</ele><time>2026-04-08T12:24:06Z</time></trkpt><trkpt lat="45.35601807711899" lon="10.728548016593798"><ele>62.33333333333333</ele><time>2026-04-08T12:24:08Z</time></trkpt><trkpt lat="45.35608462282618" lon="10.728531700469706"><ele>62.0</ele><time>2026-04-08T12:24:10Z</time></trkpt><trkpt lat="45.35616740801237" lon="10.728548003302505"><ele>61.666666666666664</ele><time>2026-04-08T12:24:12Z</time></trkpt><trkpt lat="45.35624806076676" lon="10.72855766317458"><ele>61.33333333333333</ele><time>2026-04-08T12:24:14Z</time></trkpt><trkpt lat="45.35633445568059" lon="10.728562331718493"><ele>61.0</ele><time>2026-04-08T12:24:16Z</time></trkpt><trkpt lat="45.356427420309736" lon="10.728579301441084"><ele>65.4</ele><time>2026-04-08T12:24:18Z</time></trkpt><trkpt lat="45.35653339966719" lon="10.728602665150092"><ele>69.8</ele><time>2026-04-08T12:24:20Z</time></trkpt><trkpt lat="45.35666186017277" lon="10.7286228557832"><ele>74.2</ele><time>2026-04-08T12:24:22Z</time></trkpt><trkpt lat="45.35675810549728" lon="10.728648347437439"><ele>78.60000000000001</ele><time>2026-04-08T12:24:24Z</time></trkpt><trkpt lat="45.35685953270305" lon="10.728662148889104"><ele>83.0</ele><time>2026-04-08T12:24:26Z</time></trkpt><trkpt lat="45.35697517943734" lon="10.728661935646612"><ele>83.0</ele><time>2026-04-08T12:24:28Z</time></trkpt><trkpt lat="45.35706813118434" lon="10.728654670643285"><ele>83.0</ele><time>2026-04-08T12:24:30Z</time></trkpt><trkpt lat="45.35716752972966" lon="10.728664688168333"><ele>83.0</ele><time>2026-04-08T12:24:32Z</time></trkpt><trkpt lat="45.35727289378835" lon="10.72869496259117"><ele>83.0</ele><time>2026-04-08T12:24:34Z</time></trkpt><trkpt lat="45.35736947884103" lon="10.728704688072165"><ele>83.0</ele><time>2026-04-08T12:24:36Z</time></trkpt><trkpt lat="45.35747381851531" lon="10.728739035608347"><ele>82.5</ele><time>2026-04-08T12:24:38Z</time></trkpt><trkpt lat="45.357577654127766" lon="10.72876027225904"><ele>82.0</ele><time>2026-04-08T12:24:40Z</time></trkpt><trkpt lat="45.35764356947431" lon="10.72876511151982"><ele>81.5</ele><time>2026-04-08T12:24:41Z</time></trkpt><trkpt lat="45.35770943186946" lon="10.728769936541985"><ele>81.0</ele><time>2026-04-08T12:24:42Z</time></trkpt><trkpt lat="45.35777245883007" lon="10.728773665465692"><ele>80.5</ele><time>2026-04-08T12:24:43Z</time></trkpt><trkpt lat="45.35788823909133" lon="10.728784329745931"><ele>80.0</ele><time>2026-04-08T12:24:45Z</time></trkpt><trkpt lat="45.357995102700755" lon="10.728822111279936"><ele>78.75</ele><time>2026-04-08T12:24:47Z</time></trkpt><trkpt lat="45.35810793731425" lon="10.728850943320635"><ele>77.5</ele><time>2026-04-08T12:24:49Z</time></trkpt><trkpt lat="45.358221953051896" lon="10.728879413430672"><ele>76.25</ele><time>2026-04-08T12:24:51Z</time></trkpt><trkpt lat="45.35834109955612" lon="10.728909470326442"><ele>75.0</ele><time>2026-04-08T12:24:53Z</time></trkpt><trkpt lat="45.35844308992694" lon="10.728946841684769"><ele>75.0</ele><time>2026-04-08T12:24:55Z</time></trkpt><trkpt lat="45.358521608488324" lon="10.728974342494325"><ele>75.0</ele><time>2026-04-08T12:24:57Z</time></trkpt><trkpt lat="45.35859917362663" lon="10.728988007348756"><ele>75.0</ele><time>2026-04-08T12:24:59Z</time></trkpt><trkpt lat="45.35868509474455" lon="10.728973526257732"><ele>75.0</ele><time>2026-04-08T12:25:01Z</time></trkpt><trkpt lat="45.35879288484668" lon="10.729008326592453"><ele>75.0</ele><time>2026-04-08T12:25:03Z</time></trkpt><trkpt lat="45.35889609497426" lon="10.729017856383095"><ele>74.4</ele><time>2026-04-08T12:25:05Z</time></trkpt><trkpt lat="45.358994198238385" lon="10.728992780186843"><ele>73.8</ele><time>2026-04-08T12:25:07Z</time></trkpt><trkpt lat="45.359105729004796" lon="10.729009735333964"><ele>73.2</ele><time>2026-04-08T12:25:09Z</time></trkpt><trkpt lat="45.35920308957756" lon="10.72901476031723"><ele>72.6</ele><time>2026-04-08T12:25:11Z</time></trkpt><trkpt lat="45.35929857778125" lon="10.729018031869222"><ele>72.0</ele><time>2026-04-08T12:25:13Z</time></trkpt><trkpt lat="45.35937268923036" lon="10.729019487377867"><ele>72.0</ele><time>2026-04-08T12:25:15Z</time></trkpt><trkpt lat="45.35946622639923" lon="10.729031886202312"><ele>72.0</ele><time>2026-04-08T12:25:17Z</time></trkpt><trkpt lat="45.359581113874235" lon="10.729012141838485"><ele>72.0</ele><time>2026-04-08T12:25:19Z</time></trkpt><trkpt lat="45.359689225731195" lon="10.72901531715902"><ele>72.0</ele><time>2026-04-08T12:25:21Z</time></trkpt><trkpt lat="45.35979312636506" lon="10.729002176516236"><ele>72.0</ele><time>2026-04-08T12:25:22.999Z</time></trkpt><trkpt lat="45.35989750561334" lon="10.728997321895974"><ele>71.6</ele><time>2026-04-08T12:25:24.999Z</time></trkpt><trkpt lat="45.36001724340971" lon="10.729032508928746"><ele>71.2</ele><time>2026-04-08T12:25:26.999Z</time></trkpt><trkpt lat="45.360108570259186" lon="10.729061317091448"><ele>70.8</ele><time>2026-04-08T12:25:28.999Z</time></trkpt><trkpt lat="45.36020300474137" lon="10.729056481212867"><ele>70.4</ele><time>2026-04-08T12:25:30.999Z</time></trkpt><trkpt lat="45.36031169531397" lon="10.729046231799355"><ele>70.0</ele><time>2026-04-08T12:25:32.999Z</time></trkpt><trkpt lat="45.36039755313897" lon="10.729008495281908"><ele>70.0</ele><time>2026-04-08T12:25:34.999Z</time></trkpt><trkpt lat="45.36047306733643" lon="10.729022845930045"><ele>70.0</ele><time>2026-04-08T12:25:36.999Z</time></trkpt><trkpt lat="45.36056937000797" lon="10.729034673841353"><ele>70.0</ele><time>2026-04-08T12:25:38.999Z</time></trkpt><trkpt lat="45.36067527089202" lon="10.729047197519263"><ele>70.0</ele><time>2026-04-08T12:25:40.999Z</time></trkpt><trkpt lat="45.36078227782306" lon="10.729044745584922"><ele>70.0</ele><time>2026-04-08T12:25:42.999Z</time></trkpt><trkpt lat="45.360899992286114" lon="10.729038770480443"><ele>70.0</ele><time>2026-04-08T12:25:44.999Z</time></trkpt><trkpt lat="45.3610105511689" lon="10.728999009329915"><ele>70.0</ele><time>2026-04-08T12:25:46.999Z</time></trkpt><trkpt lat="45.36112185252577" lon="10.728994645760029"><ele>70.0</ele><time>2026-04-08T12:25:48.999Z</time></trkpt><trkpt lat="45.36118509842742" lon="10.729002232129664"><ele>70.0</ele><time>2026-04-08T12:25:49.999Z</time></trkpt><trkpt lat="45.36125094599325" lon="10.728991798139033"><ele>70.0</ele><time>2026-04-08T12:25:50.999Z</time></trkpt><trkpt lat="45.361369025303915" lon="10.728977728262162"><ele>70.4</ele><time>2026-04-08T12:25:52.999Z</time></trkpt><trkpt lat="45.361476161474634" lon="10.728963757851425"><ele>70.8</ele><time>2026-04-08T12:25:54.999Z</time></trkpt><trkpt lat="45.36157119229077" lon="10.728932958203652"><ele>71.2</ele><time>2026-04-08T12:25:56.999Z</time></trkpt><trkpt lat="45.36165849966456" lon="10.728907277808604"><ele>71.6</ele><time>2026-04-08T12:25:58.999Z</time></trkpt><trkpt lat="45.361737566664026" lon="10.728867847615401"><ele>72.0</ele><time>2026-04-08T12:26:00.999Z</time></trkpt><trkpt lat="45.36182162361527" lon="10.728842714290714"><ele>72.0</ele><time>2026-04-08T12:26:02.999Z</time></trkpt><trkpt lat="45.36190718595843" lon="10.72881653687387"><ele>72.0</ele><time>2026-04-08T12:26:04.999Z</time></trkpt><trkpt lat="45.361999487092795" lon="10.728763742667802"><ele>72.0</ele><time>2026-04-08T12:26:06.999Z</time></trkpt><trkpt lat="45.362084987670244" lon="10.728720652741917"><ele>72.0</ele><time>2026-04-08T12:26:08.999Z</time></trkpt><trkpt lat="45.36217322023135" lon="10.728673597613815"><ele>72.0</ele><time>2026-04-08T12:26:10.999Z</time></trkpt><trkpt lat="45.36226053317868" lon="10.72861737176926"><ele>70.8</ele><time>2026-04-08T12:26:12.999Z</time></trkpt><trkpt lat="45.36234255159929" lon="10.7285635981919"><ele>69.6</ele><time>2026-04-08T12:26:14.999Z</time></trkpt><trkpt lat="45.36242094991595" lon="10.728502124018991"><ele>68.39999999999999</ele><time>2026-04-08T12:26:16.999Z</time></trkpt><trkpt lat="45.36251738930451" lon="10.728436884437038"><ele>67.2</ele><time>2026-04-08T12:26:18.999Z</time></trkpt><trkpt lat="45.36261311599533" lon="10.728371780381096"><ele>66.0</ele><time>2026-04-08T12:26:20.999Z</time></trkpt><trkpt lat="45.36270781843329" lon="10.728307727708865"><ele>66.0</ele><time>2026-04-08T12:26:22.999Z</time></trkpt><trkpt lat="45.36280594937004" lon="10.728244089714158"><ele>66.0</ele><time>2026-04-08T12:26:24.999Z</time></trkpt><trkpt lat="45.36288778314094" lon="10.728175169028717"><ele>66.0</ele><time>2026-04-08T12:26:26.999Z</time></trkpt><trkpt lat="45.362981074542446" lon="10.728104516571499"><ele>66.0</ele><time>2026-04-08T12:26:28.999Z</time></trkpt><trkpt lat="45.36305389308138" lon="10.728036812848961"><ele>66.0</ele><time>2026-04-08T12:26:30.999Z</time></trkpt><trkpt lat="45.36315017475858" lon="10.72796997463435"><ele>65.25</ele><time>2026-04-08T12:26:32.999Z</time></trkpt><trkpt lat="45.363248429112204" lon="10.727909326475135"><ele>64.5</ele><time>2026-04-08T12:26:34.999Z</time></trkpt><trkpt lat="45.36333709020054" lon="10.7278474114295"><ele>63.75</ele><time>2026-04-08T12:26:36.999Z</time></trkpt><trkpt lat="45.36344440550388" lon="10.7277798432179"><ele>63.0</ele><time>2026-04-08T12:26:38.999Z</time></trkpt><trkpt lat="45.36356123909636" lon="10.727694437287788"><ele>63.0</ele><time>2026-04-08T12:26:40.999Z</time></trkpt><trkpt lat="45.36361989413828" lon="10.727642925106156"><ele>63.0</ele><time>2026-04-08T12:26:41.999Z</time></trkpt><trkpt lat="45.36367648672554" lon="10.727600182592012"><ele>63.0</ele><time>2026-04-08T12:26:42.999Z</time></trkpt><trkpt lat="45.36378270664376" lon="10.727506813080632"><ele>63.0</ele><time>2026-04-08T12:26:44.999Z</time></trkpt><trkpt lat="45.36386254881271" lon="10.727417940465703"><ele>63.0</ele><time>2026-04-08T12:26:46.999Z</time></trkpt><trkpt lat="45.363934510507356" lon="10.727335537794914"><ele>64.8</ele><time>2026-04-08T12:26:48.999Z</time></trkpt><trkpt lat="45.36399457442248" lon="10.727286048513891"><ele>66.6</ele><time>2026-04-08T12:26:50.999Z</time></trkpt><trkpt lat="45.36405166801248" lon="10.727228898880767"><ele>68.4</ele><time>2026-04-08T12:26:52.999Z</time></trkpt><trkpt lat="45.364135904470075" lon="10.727167318208883"><ele>70.2</ele><time>2026-04-08T12:26:54.999Z</time></trkpt><trkpt lat="45.364245895232" lon="10.727092359085681"><ele>72.0</ele><time>2026-04-08T12:26:56.999Z</time></trkpt><trkpt lat="45.36433736114225" lon="10.727014947202802"><ele>72.0</ele><time>2026-04-08T12:26:58.999Z</time></trkpt><trkpt lat="45.364438700339214" lon="10.726924722363464"><ele>72.0</ele><time>2026-04-08T12:27:00.999Z</time></trkpt><trkpt lat="45.364534000671064" lon="10.726831905332478"><ele>72.0</ele><time>2026-04-08T12:27:02.999Z</time></trkpt><trkpt lat="45.364612240481" lon="10.726752598519079"><ele>72.0</ele><time>2026-04-08T12:27:04.999Z</time></trkpt><trkpt lat="45.36468484276117" lon="10.726671766758743"><ele>72.0</ele><time>2026-04-08T12:27:06.999Z</time></trkpt><trkpt lat="45.36476660173087" lon="10.726581660555272"><ele>71.8</ele><time>2026-04-08T12:27:08.999Z</time></trkpt><trkpt lat="45.364858250807174" lon="10.726504392161605"><ele>71.6</ele><time>2026-04-08T12:27:10.999Z</time></trkpt><trkpt lat="45.36496264379033" lon="10.726419994384882"><ele>71.39999999999999</ele><time>2026-04-08T12:27:12.999Z</time></trkpt><trkpt lat="45.365057839641466" lon="10.726337412173407"><ele>71.2</ele><time>2026-04-08T12:27:14.999Z</time></trkpt><trkpt lat="45.36512681935184" lon="10.726231257275936"><ele>71.0</ele><time>2026-04-08T12:27:17.999Z</time></trkpt><trkpt lat="45.36515961992031" lon="10.726148881941407"><ele>69.66666666666667</ele><time>2026-04-08T12:27:19.999Z</time></trkpt><trkpt lat="45.365122200541435" lon="10.726000941606696"><ele>68.33333333333334</ele><time>2026-04-08T12:27:21.999Z</time></trkpt><trkpt lat="45.365100942306775" lon="10.725916028556137"><ele>67.0</ele><time>2026-04-08T12:27:22.999Z</time></trkpt><trkpt lat="45.365046342980165" lon="10.725765340146536"><ele>65.66666666666667</ele><time>2026-04-08T12:27:24.999Z</time></trkpt><trkpt lat="45.36500480131898" lon="10.725682833282761"><ele>64.33333333333333</ele><time>2026-04-08T12:27:25.999Z</time></trkpt><trkpt lat="45.36494816205914" lon="10.72561588085222"><ele>63.0</ele><time>2026-04-08T12:27:26.999Z</time></trkpt><trkpt lat="45.36489242340402" lon="10.725551249740512"><ele>63.0</ele><time>2026-04-08T12:27:27.999Z</time></trkpt><trkpt lat="45.364838929428714" lon="10.725472807323303"><ele>63.0</ele><time>2026-04-08T12:27:28.999Z</time></trkpt><trkpt lat="45.36478441342302" lon="10.72537188334301"><ele>63.0</ele><time>2026-04-08T12:27:29.999Z</time></trkpt><trkpt lat="45.364724749828696" lon="10.725264225713788"><ele>63.0</ele><time>2026-04-08T12:27:30.999Z</time></trkpt><trkpt lat="45.36468259097247" lon="10.72518405518878"><ele>63.0</ele><time>2026-04-08T12:27:31.999Z</time></trkpt><trkpt lat="45.36461850632192" lon="10.725044975660834"><ele>62.599999999999994</ele><time>2026-04-08T12:27:33.999Z</time></trkpt><trkpt lat="45.36459838103593" lon="10.724919894850316"><ele>62.199999999999996</ele><time>2026-04-08T12:27:35.999Z</time></trkpt><trkpt lat="45.364657057774444" lon="10.724844792197983"><ele>61.8</ele><time>2026-04-08T12:27:37.999Z</time></trkpt><trkpt lat="45.364735251160305" lon="10.724717997635015"><ele>61.4</ele><time>2026-04-08T12:27:39.999Z</time></trkpt><trkpt lat="45.36482181984502" lon="10.724611960552041"><ele>61.0</ele><time>2026-04-08T12:27:41.999Z</time></trkpt><trkpt lat="45.36486735483534" lon="10.724548429266386"><ele>61.0</ele><time>2026-04-08T12:27:42.999Z</time></trkpt><trkpt lat="45.36494448626489" lon="10.724432694446373"><ele>61.0</ele><time>2026-04-08T12:27:44.999Z</time></trkpt><trkpt lat="45.36503957692368" lon="10.724313858115034"><ele>61.0</ele><time>2026-04-08T12:27:46.999Z</time></trkpt><trkpt lat="45.365125454038306" lon="10.724185632142719"><ele>61.0</ele><time>2026-04-08T12:27:48.999Z</time></trkpt><trkpt lat="45.36522053563425" lon="10.724079715622548"><ele>60.83333333333333</ele><time>2026-04-08T12:27:50.999Z</time></trkpt><trkpt lat="45.365312028359924" lon="10.723957029602118"><ele>60.666666666666664</ele><time>2026-04-08T12:27:52.999Z</time></trkpt><trkpt lat="45.36535732222015" lon="10.723892631973765"><ele>60.5</ele><time>2026-04-08T12:27:53.999Z</time></trkpt><trkpt lat="45.36544701961199" lon="10.723773348651559"><ele>60.33333333333333</ele><time>2026-04-08T12:27:55.999Z</time></trkpt><trkpt lat="45.36549411775021" lon="10.72370872180435"><ele>60.166666666666664</ele><time>2026-04-08T12:27:56.999Z</time></trkpt><trkpt lat="45.36555059067997" lon="10.723649062585192"><ele>60.0</ele><time>2026-04-08T12:27:57.999Z</time></trkpt><trkpt lat="45.36560553640581" lon="10.723597666709171"><ele>59.6</ele><time>2026-04-08T12:27:58.999Z</time></trkpt><trkpt lat="45.36569966070202" lon="10.723481988681412"><ele>59.2</ele><time>2026-04-08T12:28:00.999Z</time></trkpt><trkpt lat="45.3657840777116" lon="10.723378191104105"><ele>58.8</ele><time>2026-04-08T12:28:02.999Z</time></trkpt><trkpt lat="45.36586035238406" lon="10.72328506617871"><ele>58.4</ele><time>2026-04-08T12:28:04.999Z</time></trkpt><trkpt lat="45.36590854961783" lon="10.72321164582155"><ele>58.0</ele><time>2026-04-08T12:28:05.999Z</time></trkpt><trkpt lat="45.36596305335592" lon="10.72316534991743"><ele>57.99999999999999</ele><time>2026-04-08T12:28:06.999Z</time></trkpt><trkpt lat="45.3660149615723" lon="10.723104850340091"><ele>58.0</ele><time>2026-04-08T12:28:07.999Z</time></trkpt><trkpt lat="45.36610082104451" lon="10.722987740018315"><ele>58.0</ele><time>2026-04-08T12:28:09.999Z</time></trkpt><trkpt lat="45.36615146077182" lon="10.72291908120843"><ele>58.0</ele><time>2026-04-08T12:28:10.999Z</time></trkpt><trkpt lat="45.36619885648452" lon="10.722856215366136"><ele>57.99999999999999</ele><time>2026-04-08T12:28:11.999Z</time></trkpt><trkpt lat="45.36625138524153" lon="10.722792696317214"><ele>58.0</ele><time>2026-04-08T12:28:12.999Z</time></trkpt><trkpt lat="45.36629368768774" lon="10.722725188393294"><ele>57.83333333333333</ele><time>2026-04-08T12:28:13.999Z</time></trkpt><trkpt lat="45.366337345926155" lon="10.722653507791689"><ele>57.666666666666664</ele><time>2026-04-08T12:28:14.999Z</time></trkpt><trkpt lat="45.366422073791064" lon="10.722531657420792"><ele>57.5</ele><time>2026-04-08T12:28:16.999Z</time></trkpt><trkpt lat="45.36646784502341" lon="10.722454759324789"><ele>57.33333333333333</ele><time>2026-04-08T12:28:17.999Z</time></trkpt><trkpt lat="45.36651564562248" lon="10.722378269135161"><ele>57.166666666666664</ele><time>2026-04-08T12:28:18.999Z</time></trkpt><trkpt lat="45.36655665853034" lon="10.722308812537593"><ele>57.0</ele><time>2026-04-08T12:28:19.999Z</time></trkpt><trkpt lat="45.36663871595741" lon="10.722175839524455"><ele>57.166666666666664</ele><time>2026-04-08T12:28:21.999Z</time></trkpt><trkpt lat="45.36667880447822" lon="10.722106069888293"><ele>57.33333333333333</ele><time>2026-04-08T12:28:22.999Z</time></trkpt><trkpt lat="45.36671754048854" lon="10.722033621269272"><ele>57.5</ele><time>2026-04-08T12:28:23.999Z</time></trkpt><trkpt lat="45.36678442038444" lon="10.72189725524985"><ele>57.666666666666664</ele><time>2026-04-08T12:28:25.999Z</time></trkpt><trkpt lat="45.366829048707984" lon="10.72181818575433"><ele>57.83333333333333</ele><time>2026-04-08T12:28:26.999Z</time></trkpt><trkpt lat="45.36686293539429" lon="10.721739260496337"><ele>58.0</ele><time>2026-04-08T12:28:27.999Z</time></trkpt><trkpt lat="45.36694477634729" lon="10.72159754931355"><ele>57.99999999999999</ele><time>2026-04-08T12:28:29.999Z</time></trkpt><trkpt lat="45.36702100813968" lon="10.72145925924284"><ele>58.0</ele><time>2026-04-08T12:28:31.999Z</time></trkpt><trkpt lat="45.36706233548458" lon="10.721387376368332"><ele>58.0</ele><time>2026-04-08T12:28:32.999Z</time></trkpt><trkpt lat="45.36710335649615" lon="10.721311863174154"><ele>58.0</ele><time>2026-04-08T12:28:33.999Z</time></trkpt><trkpt lat="45.367148712081935" lon="10.721241973274383"><ele>57.99999999999999</ele><time>2026-04-08T12:28:34.999Z</time></trkpt><trkpt lat="45.367186282117174" lon="10.721167851852359"><ele>58.0</ele><time>2026-04-08T12:28:35.999Z</time></trkpt><trkpt lat="45.36724485067911" lon="10.721037117727306"><ele>58.2</ele><time>2026-04-08T12:28:37.999Z</time></trkpt><trkpt lat="45.36731498347204" lon="10.720896063070091"><ele>58.4</ele><time>2026-04-08T12:28:39.999Z</time></trkpt><trkpt lat="45.367376644146276" lon="10.72075202611715"><ele>58.60000000000001</ele><time>2026-04-08T12:28:41.999Z</time></trkpt><trkpt lat="45.367405957615006" lon="10.720666863378531"><ele>58.800000000000004</ele><time>2026-04-08T12:28:42.999Z</time></trkpt><trkpt lat="45.36746017111107" lon="10.720525464632109"><ele>59.0</ele><time>2026-04-08T12:28:44.999Z</time></trkpt><trkpt lat="45.36751795958558" lon="10.720375417423297"><ele>59.0</ele><time>2026-04-08T12:28:46.999Z</time></trkpt><trkpt lat="45.36755376463338" lon="10.720283636525437"><ele>59.0</ele><time>2026-04-08T12:28:47.999Z</time></trkpt><trkpt lat="45.36759299105025" lon="10.72019728227432"><ele>59.0</ele><time>2026-04-08T12:28:48.999Z</time></trkpt><trkpt lat="45.36762797430484" lon="10.720111237703483"><ele>59.0</ele><time>2026-04-08T12:28:49.999Z</time></trkpt><trkpt lat="45.36766266640395" lon="10.720034699492311"><ele>59.0</ele><time>2026-04-08T12:28:50.999Z</time></trkpt><trkpt lat="45.36769570750293" lon="10.719947659027337"><ele>59.0</ele><time>2026-04-08T12:28:51.999Z</time></trkpt><trkpt lat="45.36772854550644" lon="10.719870487471981"><ele>59.0</ele><time>2026-04-08T12:28:52.999Z</time></trkpt><trkpt lat="45.36775621975025" lon="10.719779622785593"><ele>58.833333333333336</ele><time>2026-04-08T12:28:53.999Z</time></trkpt><trkpt lat="45.36781096898994" lon="10.719621250174496"><ele>58.66666666666667</ele><time>2026-04-08T12:28:55.999Z</time></trkpt><trkpt lat="45.3678465727414" lon="10.719529746321674"><ele>58.5</ele><time>2026-04-08T12:28:56.999Z</time></trkpt><trkpt lat="45.36787944358594" lon="10.71944039124004"><ele>58.33333333333333</ele><time>2026-04-08T12:28:57.999Z</time></trkpt><trkpt lat="45.36791518037356" lon="10.7193516275421"><ele>58.166666666666664</ele><time>2026-04-08T12:28:58.999Z</time></trkpt><trkpt lat="45.36793996345181" lon="10.719265810499534"><ele>58.0</ele><time>2026-04-08T12:28:59.999Z</time></trkpt><trkpt lat="45.36797894951077" lon="10.719101091837041"><ele>57.83333333333333</ele><time>2026-04-08T12:29:01.999Z</time></trkpt><trkpt lat="45.36800380501354" lon="10.719018462858319"><ele>57.666666666666664</ele><time>2026-04-08T12:29:02.999Z</time></trkpt><trkpt lat="45.36802900157524" lon="10.718931406927922"><ele>57.5</ele><time>2026-04-08T12:29:03.999Z</time></trkpt><trkpt lat="45.36805178506101" lon="10.718846580712837"><ele>57.33333333333333</ele><time>2026-04-08T12:29:04.999Z</time></trkpt><trkpt lat="45.36809543287338" lon="10.718681328537308"><ele>57.166666666666664</ele><time>2026-04-08T12:29:06.999Z</time></trkpt><trkpt lat="45.368118261458775" lon="10.718592811913592"><ele>57.0</ele><time>2026-04-08T12:29:07.999Z</time></trkpt><trkpt lat="45.36815618148293" lon="10.71844138549657"><ele>57.400000000000006</ele><time>2026-04-08T12:29:09.999Z</time></trkpt><trkpt lat="45.36817567301376" lon="10.718355806378245"><ele>57.800000000000004</ele><time>2026-04-08T12:29:10.999Z</time></trkpt><trkpt lat="45.3682186454564" lon="10.718194863542866"><ele>58.2</ele><time>2026-04-08T12:29:12.999Z</time></trkpt><trkpt lat="45.36825156307019" lon="10.71802415721708"><ele>58.6</ele><time>2026-04-08T12:29:14.999Z</time></trkpt><trkpt lat="45.36827427749741" lon="10.717927486748845"><ele>59.0</ele><time>2026-04-08T12:29:15.999Z</time></trkpt><trkpt lat="45.36832110544241" lon="10.717752673670384"><ele>59.2</ele><time>2026-04-08T12:29:17.999Z</time></trkpt><trkpt lat="45.36835405074102" lon="10.717584876183047"><ele>59.400000000000006</ele><time>2026-04-08T12:29:19.999Z</time></trkpt><trkpt lat="45.36837009491748" lon="10.717492520305173"><ele>59.6</ele><time>2026-04-08T12:29:20.999Z</time></trkpt><trkpt lat="45.36840735681028" lon="10.71733680553143"><ele>59.8</ele><time>2026-04-08T12:29:22.999Z</time></trkpt><trkpt lat="45.36843426805936" lon="10.717232031646457"><ele>60.0</ele><time>2026-04-08T12:29:23.999Z</time></trkpt><trkpt lat="45.36846963568254" lon="10.717139881054832"><ele>60.0</ele><time>2026-04-08T12:29:24.999Z</time></trkpt><trkpt lat="45.36848575843454" lon="10.717042124960381"><ele>60.0</ele><time>2026-04-08T12:29:25.999Z</time></trkpt><trkpt lat="45.36850919519015" lon="10.71694192271497"><ele>60.0</ele><time>2026-04-08T12:29:26.999Z</time></trkpt><trkpt lat="45.36855137495253" lon="10.716782961360593"><ele>60.0</ele><time>2026-04-08T12:29:28.999Z</time></trkpt><trkpt lat="45.36857297501643" lon="10.716689023187339"><ele>60.0</ele><time>2026-04-08T12:29:29.999Z</time></trkpt><trkpt lat="45.36859345425885" lon="10.716600848521072"><ele>60.0</ele><time>2026-04-08T12:29:30.999Z</time></trkpt><trkpt lat="45.3686153397073" lon="10.716506155992084"><ele>60.0</ele><time>2026-04-08T12:29:31.999Z</time></trkpt><trkpt lat="45.36865401116642" lon="10.716332961001605"><ele>60.0</ele><time>2026-04-08T12:29:33.999Z</time></trkpt><trkpt lat="45.36868645833251" lon="10.716161229114862"><ele>60.0</ele><time>2026-04-08T12:29:35.999Z</time></trkpt><trkpt lat="45.36872325133322" lon="10.715995969604705"><ele>60.0</ele><time>2026-04-08T12:29:37.999Z</time></trkpt><trkpt lat="45.3687642024029" lon="10.715839785626345"><ele>59.833333333333336</ele><time>2026-04-08T12:29:39.999Z</time></trkpt><trkpt lat="45.368786659458955" lon="10.715749265415589"><ele>59.66666666666667</ele><time>2026-04-08T12:29:40.999Z</time></trkpt><trkpt lat="45.36880343605064" lon="10.715654157747549"><ele>59.5</ele><time>2026-04-08T12:29:41.999Z</time></trkpt><trkpt lat="45.368829819283974" lon="10.71550141275737"><ele>59.333333333333336</ele><time>2026-04-08T12:29:43.999Z</time></trkpt><trkpt lat="45.36886432365105" lon="10.715340869535842"><ele>59.16666666666667</ele><time>2026-04-08T12:29:45.999Z</time></trkpt><trkpt lat="45.36888813034787" lon="10.715257374105807"><ele>59.0</ele><time>2026-04-08T12:29:46.999Z</time></trkpt><trkpt lat="45.368909366342635" lon="10.715161116202806"><ele>59.0</ele><time>2026-04-08T12:29:47.999Z</time></trkpt><trkpt lat="45.36893214147532" lon="10.715064166047998"><ele>59.00000000000001</ele><time>2026-04-08T12:29:48.999Z</time></trkpt><trkpt lat="45.368982962273876" lon="10.714905009593064"><ele>59.00000000000001</ele><time>2026-04-08T12:29:50.999Z</time></trkpt><trkpt lat="45.36899947106152" lon="10.714804763541318"><ele>59.0</ele><time>2026-04-08T12:29:51.999Z</time></trkpt><trkpt lat="45.369040780559224" lon="10.714632298180547"><ele>59.0</ele><time>2026-04-08T12:29:53.999Z</time></trkpt><trkpt lat="45.36907797952203" lon="10.714471474250534"><ele>58.6</ele><time>2026-04-08T12:29:55.999Z</time></trkpt><trkpt lat="45.3691188571363" lon="10.71428789076882"><ele>58.2</ele><time>2026-04-08T12:29:57.999Z</time></trkpt><trkpt lat="45.36914036915918" lon="10.714176511465913"><ele>57.800000000000004</ele><time>2026-04-08T12:29:58.999Z</time></trkpt><trkpt lat="45.369168599318584" lon="10.71401083740098"><ele>57.400000000000006</ele><time>2026-04-08T12:30:00.999Z</time></trkpt><trkpt lat="45.36918232720426" lon="10.713912560253245"><ele>57.0</ele><time>2026-04-08T12:30:01.999Z</time></trkpt><trkpt lat="45.36921534775457" lon="10.71375032009537"><ele>57.0</ele><time>2026-04-08T12:30:03.999Z</time></trkpt><trkpt lat="45.36923092346978" lon="10.713660036985717"><ele>57.0</ele><time>2026-04-08T12:30:04.999Z</time></trkpt><trkpt lat="45.36925403768862" lon="10.713504272875076"><ele>57.0</ele><time>2026-04-08T12:30:06.999Z</time></trkpt><trkpt lat="45.36925352674577" lon="10.713410227625054"><ele>57.0</ele><time>2026-04-08T12:30:07.999Z</time></trkpt><trkpt lat="45.36925937225628" lon="10.713232183928401"><ele>57.0</ele><time>2026-04-08T12:30:09.999Z</time></trkpt><trkpt lat="45.369267824095" lon="10.713072765206674"><ele>57.2</ele><time>2026-04-08T12:30:11.999Z</time></trkpt><trkpt lat="45.36927042737302" lon="10.712981535381793"><ele>57.400000000000006</ele><time>2026-04-08T12:30:12.999Z</time></trkpt><trkpt lat="45.3692672897616" lon="10.71283567883856"><ele>57.599999999999994</ele><time>2026-04-08T12:30:14.999Z</time></trkpt><trkpt lat="45.369262487414446" lon="10.71274313708418"><ele>57.8</ele><time>2026-04-08T12:30:15.999Z</time></trkpt><trkpt lat="45.36925519734573" lon="10.712588764089912"><ele>58.0</ele><time>2026-04-08T12:30:17.999Z</time></trkpt><trkpt lat="45.36925055789336" lon="10.712419882832368"><ele>57.99999999999999</ele><time>2026-04-08T12:30:19.999Z</time></trkpt><trkpt lat="45.369250470633446" lon="10.712329480713125"><ele>58.0</ele><time>2026-04-08T12:30:21.001Z</time></trkpt><trkpt lat="45.36924780703319" lon="10.71214846361326"><ele>58.0</ele><time>2026-04-08T12:30:23Z</time></trkpt><trkpt lat="45.36924884424957" lon="10.712054423680135"><ele>58.0</ele><time>2026-04-08T12:30:24Z</time></trkpt><trkpt lat="45.369250655083746" lon="10.71195400763743"><ele>57.99999999999999</ele><time>2026-04-08T12:30:25Z</time></trkpt><trkpt lat="45.36924825317795" lon="10.711860044486857"><ele>58.0</ele><time>2026-04-08T12:30:26Z</time></trkpt><trkpt lat="45.36924418401637" lon="10.71169312926896"><ele>57.8</ele><time>2026-04-08T12:30:28Z</time></trkpt><trkpt lat="45.369235881133314" lon="10.711535458106178"><ele>57.599999999999994</ele><time>2026-04-08T12:30:30Z</time></trkpt><trkpt lat="45.36922477803766" lon="10.711375446970004"><ele>57.400000000000006</ele><time>2026-04-08T12:30:32Z</time></trkpt><trkpt lat="45.36921955020868" lon="10.71122648280736"><ele>57.2</ele><time>2026-04-08T12:30:34Z</time></trkpt><trkpt lat="45.36921524392313" lon="10.711074010599496"><ele>57.0</ele><time>2026-04-08T12:30:36Z</time></trkpt><trkpt lat="45.36921504191844" lon="10.710979279795678"><ele>56.6</ele><time>2026-04-08T12:30:37Z</time></trkpt><trkpt lat="45.36921356677395" lon="10.71080988139767"><ele>56.2</ele><time>2026-04-08T12:30:39Z</time></trkpt><trkpt lat="45.36920737884826" lon="10.710720673910245"><ele>55.8</ele><time>2026-04-08T12:30:40Z</time></trkpt><trkpt lat="45.36920048927428" lon="10.710560295607518"><ele>55.4</ele><time>2026-04-08T12:30:42Z</time></trkpt><trkpt lat="45.369199673504326" lon="10.7104330567092"><ele>55.0</ele><time>2026-04-08T12:30:44Z</time></trkpt><trkpt lat="45.369192741803346" lon="10.710276968941395"><ele>55.25</ele><time>2026-04-08T12:30:46Z</time></trkpt><trkpt lat="45.369187783212595" lon="10.71011297753184"><ele>55.5</ele><time>2026-04-08T12:30:48Z</time></trkpt><trkpt lat="45.36918757521216" lon="10.709934600723537"><ele>55.75</ele><time>2026-04-08T12:30:50Z</time></trkpt><trkpt lat="45.369179533212595" lon="10.709767377040691"><ele>56.0</ele><time>2026-04-08T12:30:52Z</time></trkpt><trkpt lat="45.369182962280625" lon="10.709604261205934"><ele>56.0</ele><time>2026-04-08T12:30:54Z</time></trkpt><trkpt lat="45.36918126610851" lon="10.709444704717983"><ele>55.99999999999999</ele><time>2026-04-08T12:30:56Z</time></trkpt><trkpt lat="45.36918845228027" lon="10.709314848222942"><ele>55.99999999999999</ele><time>2026-04-08T12:30:58Z</time></trkpt><trkpt lat="45.36919723825724" lon="10.70917197980136"><ele>56.0</ele><time>2026-04-08T12:31:00Z</time></trkpt><trkpt lat="45.36921243156002" lon="10.709036872987584"><ele>56.0</ele><time>2026-04-08T12:31:01.999Z</time></trkpt><trkpt lat="45.36922612874472" lon="10.708894417388064"><ele>56.199999999999996</ele><time>2026-04-08T12:31:03.999Z</time></trkpt><trkpt lat="45.369235701358434" lon="10.708719914958445"><ele>56.39999999999999</ele><time>2026-04-08T12:31:05.999Z</time></trkpt><trkpt lat="45.369258615713875" lon="10.708567779872867"><ele>56.6</ele><time>2026-04-08T12:31:07.999Z</time></trkpt><trkpt lat="45.36929091451152" lon="10.708407497996873"><ele>56.8</ele><time>2026-04-08T12:31:09.999Z</time></trkpt><trkpt lat="45.369304466878155" lon="10.708314608866644"><ele>57.0</ele><time>2026-04-08T12:31:10.999Z</time></trkpt><trkpt lat="45.369339969951575" lon="10.70815663055254"><ele>57.0</ele><time>2026-04-08T12:31:12.999Z</time></trkpt><trkpt lat="45.36937022879122" lon="10.70799292387829"><ele>57.0</ele><time>2026-04-08T12:31:14.999Z</time></trkpt><trkpt lat="45.36942370431479" lon="10.707833749554034"><ele>57.0</ele><time>2026-04-08T12:31:16.999Z</time></trkpt><trkpt lat="45.36946849855697" lon="10.707691731310156"><ele>57.0</ele><time>2026-04-08T12:31:18.999Z</time></trkpt><trkpt lat="45.36952222497779" lon="10.707548017131963"><ele>57.0</ele><time>2026-04-08T12:31:20.999Z</time></trkpt><trkpt lat="45.36958085303836" lon="10.707409409819263"><ele>57.0</ele><time>2026-04-08T12:31:22.999Z</time></trkpt><trkpt lat="45.36964777488609" lon="10.707289668415171"><ele>57.0</ele><time>2026-04-08T12:31:24.999Z</time></trkpt><trkpt lat="45.36970302719884" lon="10.707156811299319"><ele>57.0</ele><time>2026-04-08T12:31:26.999Z</time></trkpt><trkpt lat="45.36977603972514" lon="10.707034270321952"><ele>57.0</ele><time>2026-04-08T12:31:28.999Z</time></trkpt><trkpt lat="45.369851829222924" lon="10.706916163176995"><ele>56.8</ele><time>2026-04-08T12:31:30.999Z</time></trkpt><trkpt lat="45.369929402511524" lon="10.70680035582024"><ele>56.6</ele><time>2026-04-08T12:31:32.999Z</time></trkpt><trkpt lat="45.37000725134124" lon="10.706688901984247"><ele>56.39999999999999</ele><time>2026-04-08T12:31:34.999Z</time></trkpt><trkpt lat="45.37008386590842" lon="10.706590094088671"><ele>56.199999999999996</ele><time>2026-04-08T12:31:36.999Z</time></trkpt><trkpt lat="45.37015463464776" lon="10.70647757164317"><ele>56.0</ele><time>2026-04-08T12:31:38.999Z</time></trkpt><trkpt lat="45.370237985380086" lon="10.706373031027594"><ele>56.0</ele><time>2026-04-08T12:31:40.999Z</time></trkpt><trkpt lat="45.370333052932054" lon="10.706282156218691"><ele>56.0</ele><time>2026-04-08T12:31:42.999Z</time></trkpt><trkpt lat="45.37044168293111" lon="10.706184752730275"><ele>56.0</ele><time>2026-04-08T12:31:44.999Z</time></trkpt><trkpt lat="45.37053257940598" lon="10.706067506769527"><ele>56.0</ele><time>2026-04-08T12:31:46.999Z</time></trkpt><trkpt lat="45.37062650011361" lon="10.705956844388165"><ele>56.5</ele><time>2026-04-08T12:31:48.999Z</time></trkpt><trkpt lat="45.37071432252201" lon="10.705847263300651"><ele>57.0</ele><time>2026-04-08T12:31:50.999Z</time></trkpt><trkpt lat="45.37080029316431" lon="10.705735833845905"><ele>57.5</ele><time>2026-04-08T12:31:52.999Z</time></trkpt><trkpt lat="45.37089272347998" lon="10.705630293385537"><ele>58.0</ele><time>2026-04-08T12:31:54.999Z</time></trkpt><trkpt lat="45.370979987347745" lon="10.70551939053996"><ele>58.0</ele><time>2026-04-08T12:31:56.999Z</time></trkpt><trkpt lat="45.37102907592345" lon="10.705457065372162"><ele>58.0</ele><time>2026-04-08T12:31:57.999Z</time></trkpt><trkpt lat="45.37108286228345" lon="10.70541024991848"><ele>58.0</ele><time>2026-04-08T12:31:58.999Z</time></trkpt><trkpt lat="45.371176641874214" lon="10.70529021151662"><ele>58.0</ele><time>2026-04-08T12:32:00.999Z</time></trkpt><trkpt lat="45.37126736157653" lon="10.705185366450332"><ele>58.0</ele><time>2026-04-08T12:32:02.999Z</time></trkpt><trkpt lat="45.37135890336201" lon="10.705093513250686"><ele>58.166666666666664</ele><time>2026-04-08T12:32:04.999Z</time></trkpt><trkpt lat="45.371458168198245" lon="10.704984939996521"><ele>58.33333333333333</ele><time>2026-04-08T12:32:06.999Z</time></trkpt><trkpt lat="45.3715092625775" lon="10.704923864852539"><ele>58.5</ele><time>2026-04-08T12:32:07.999Z</time></trkpt><trkpt lat="45.37160116216965" lon="10.70480481282356"><ele>58.66666666666667</ele><time>2026-04-08T12:32:09.999Z</time></trkpt><trkpt lat="45.37164481197812" lon="10.704737841114365"><ele>58.833333333333336</ele><time>2026-04-08T12:32:10.999Z</time></trkpt><trkpt lat="45.371690980349776" lon="10.704674671555292"><ele>59.0</ele><time>2026-04-08T12:32:11.999Z</time></trkpt><trkpt lat="45.37179193509672" lon="10.704561883655218"><ele>59.0</ele><time>2026-04-08T12:32:13.999Z</time></trkpt><trkpt lat="45.37188521658491" lon="10.704464183977306"><ele>59.00000000000001</ele><time>2026-04-08T12:32:15.999Z</time></trkpt><trkpt lat="45.37193286471829" lon="10.704403970120115"><ele>59.00000000000001</ele><time>2026-04-08T12:32:16.999Z</time></trkpt><trkpt lat="45.37202977033542" lon="10.704285126294796"><ele>59.0</ele><time>2026-04-08T12:32:18.999Z</time></trkpt><trkpt lat="45.37212159159248" lon="10.704151457008416"><ele>59.0</ele><time>2026-04-08T12:32:20.999Z</time></trkpt><trkpt lat="45.37218629106385" lon="10.70408016909199"><ele>58.66666666666667</ele><time>2026-04-08T12:32:21.999Z</time></trkpt><trkpt lat="45.3722725119528" lon="10.703969959486676"><ele>58.333333333333336</ele><time>2026-04-08T12:32:23.999Z</time></trkpt><trkpt lat="45.37232101306614" lon="10.703911945710828"><ele>58.0</ele><time>2026-04-08T12:32:24.999Z</time></trkpt><trkpt lat="45.37237273953455" lon="10.703851741272663"><ele>57.66666666666667</ele><time>2026-04-08T12:32:25.999Z</time></trkpt><trkpt lat="45.372423631226354" lon="10.703787344760535"><ele>57.333333333333336</ele><time>2026-04-08T12:32:26.999Z</time></trkpt><trkpt lat="45.372510046916595" lon="10.703679003592235"><ele>57.0</ele><time>2026-04-08T12:32:28.999Z</time></trkpt><trkpt lat="45.372598899147995" lon="10.703595350381432"><ele>57.166666666666664</ele><time>2026-04-08T12:32:30.999Z</time></trkpt><trkpt lat="45.372647359101904" lon="10.703533409469916"><ele>57.33333333333333</ele><time>2026-04-08T12:32:31.999Z</time></trkpt><trkpt lat="45.37269853515622" lon="10.703469363076609"><ele>57.5</ele><time>2026-04-08T12:32:32.999Z</time></trkpt><trkpt lat="45.3727671648709" lon="10.70340220638458"><ele>57.666666666666664</ele><time>2026-04-08T12:32:33.999Z</time></trkpt><trkpt lat="45.37282715986888" lon="10.70333954128481"><ele>57.83333333333333</ele><time>2026-04-08T12:32:34.999Z</time></trkpt><trkpt lat="45.37287579065079" lon="10.703282403552299"><ele>58.0</ele><time>2026-04-08T12:32:35.999Z</time></trkpt><trkpt lat="45.37296235908806" lon="10.70316648170483"><ele>57.99999999999999</ele><time>2026-04-08T12:32:37.999Z</time></trkpt><trkpt lat="45.37301116061807" lon="10.703106790811827"><ele>58.0</ele><time>2026-04-08T12:32:38.999Z</time></trkpt><trkpt lat="45.37306053217177" lon="10.70304864757308"><ele>58.0</ele><time>2026-04-08T12:32:39.999Z</time></trkpt><trkpt lat="45.373158782916704" lon="10.702934091607926"><ele>58.0</ele><time>2026-04-08T12:32:41.999Z</time></trkpt><trkpt lat="45.373205333303446" lon="10.702873541745944"><ele>57.99999999999999</ele><time>2026-04-08T12:32:42.999Z</time></trkpt><trkpt lat="45.37325554327588" lon="10.702818626434897"><ele>58.0</ele><time>2026-04-08T12:32:43.999Z</time></trkpt><trkpt lat="45.37330992579778" lon="10.702756141023183"><ele>58.00000000000001</ele><time>2026-04-08T12:32:44.999Z</time></trkpt><trkpt lat="45.373362050499345" lon="10.702698326324384"><ele>58.0</ele><time>2026-04-08T12:32:45.999Z</time></trkpt><trkpt lat="45.37341255393504" lon="10.702642642222798"><ele>58.00000000000001</ele><time>2026-04-08T12:32:46.999Z</time></trkpt><trkpt lat="45.373464724216525" lon="10.702582000710816"><ele>58.00000000000001</ele><time>2026-04-08T12:32:47.999Z</time></trkpt><trkpt lat="45.37351612747346" lon="10.702525939873327"><ele>58.0</ele><time>2026-04-08T12:32:48.999Z</time></trkpt><trkpt lat="45.3735699242865" lon="10.702473605586846"><ele>58.00000000000001</ele><time>2026-04-08T12:32:49.999Z</time></trkpt><trkpt lat="45.3736250111632" lon="10.702416941811439"><ele>58.00000000000001</ele><time>2026-04-08T12:32:50.999Z</time></trkpt><trkpt lat="45.37367995998767" lon="10.702360925429062"><ele>58.00000000000001</ele><time>2026-04-08T12:32:51.999Z</time></trkpt><trkpt lat="45.373733201427946" lon="10.702306916027974"><ele>58.0</ele><time>2026-04-08T12:32:52.999Z</time></trkpt><trkpt lat="45.373787287687485" lon="10.702256110481649"><ele>58.00000000000001</ele><time>2026-04-08T12:32:53.999Z</time></trkpt><trkpt lat="45.373839761577486" lon="10.702205736202176"><ele>58.00000000000001</ele><time>2026-04-08T12:32:54.999Z</time></trkpt><trkpt lat="45.373894129017884" lon="10.702156997556344"><ele>58.0</ele><time>2026-04-08T12:32:55.999Z</time></trkpt><trkpt lat="45.37394582712436" lon="10.702105367832793"><ele>58.00000000000001</ele><time>2026-04-08T12:32:56.999Z</time></trkpt><trkpt lat="45.37400475723693" lon="10.702060592180517"><ele>58.00000000000001</ele><time>2026-04-08T12:32:57.999Z</time></trkpt><trkpt lat="45.37406053800134" lon="10.702014054298113"><ele>58.00000000000001</ele><time>2026-04-08T12:32:58.999Z</time></trkpt><trkpt lat="45.3741163001514" lon="10.701968752294658"><ele>58.0</ele><time>2026-04-08T12:32:59.999Z</time></trkpt><trkpt lat="45.37417444339243" lon="10.701923246875813"><ele>58.00000000000001</ele><time>2026-04-08T12:33:00.999Z</time></trkpt><trkpt lat="45.37423381543118" lon="10.701877023527812"><ele>58.00000000000001</ele><time>2026-04-08T12:33:01.999Z</time></trkpt><trkpt lat="45.37429472416741" lon="10.701830661826982"><ele>58.0</ele><time>2026-04-08T12:33:02.999Z</time></trkpt><trkpt lat="45.37435466702463" lon="10.701785226686557"><ele>58.00000000000001</ele><time>2026-04-08T12:33:03.999Z</time></trkpt><trkpt lat="45.37441279055351" lon="10.70174037703708"><ele>58.00000000000001</ele><time>2026-04-08T12:33:04.999Z</time></trkpt><trkpt lat="45.37452687546676" lon="10.701646729488957"><ele>58.0</ele><time>2026-04-08T12:33:06.999Z</time></trkpt><trkpt lat="45.37458899956948" lon="10.701604609877247"><ele>58.0</ele><time>2026-04-08T12:33:07.999Z</time></trkpt><trkpt lat="45.374652631257014" lon="10.701559849549234"><ele>58.0</ele><time>2026-04-08T12:33:08.999Z</time></trkpt><trkpt lat="45.374713219321336" lon="10.701518135114641"><ele>58.0</ele><time>2026-04-08T12:33:09.999Z</time></trkpt><trkpt lat="45.374829243822894" lon="10.701441752740843"><ele>58.0</ele><time>2026-04-08T12:33:11.999Z</time></trkpt><trkpt lat="45.37494913784692" lon="10.701366594383627"><ele>58.0</ele><time>2026-04-08T12:33:13.999Z</time></trkpt><trkpt lat="45.375071987695044" lon="10.70128923027855"><ele>58.0</ele><time>2026-04-08T12:33:15.999Z</time></trkpt><trkpt lat="45.37513192498676" lon="10.70124684284931"><ele>58.0</ele><time>2026-04-08T12:33:16.999Z</time></trkpt><trkpt lat="45.375199292722726" lon="10.701203918956516"><ele>58.0</ele><time>2026-04-08T12:33:17.999Z</time></trkpt><trkpt lat="45.37530652049112" lon="10.701132856122817"><ele>58.0</ele><time>2026-04-08T12:33:19.999Z</time></trkpt><trkpt lat="45.375367014148" lon="10.701090574108438"><ele>57.99999999999999</ele><time>2026-04-08T12:33:20.999Z</time></trkpt><trkpt lat="45.37542706435138" lon="10.701047760246853"><ele>58.0</ele><time>2026-04-08T12:33:21.999Z</time></trkpt><trkpt lat="45.37554052404022" lon="10.700976141039588"><ele>58.0</ele><time>2026-04-08T12:33:23.999Z</time></trkpt><trkpt lat="45.37560023063936" lon="10.700933206164141"><ele>58.0</ele><time>2026-04-08T12:33:24.999Z</time></trkpt><trkpt lat="45.37566001956673" lon="10.700889720372507"><ele>57.99999999999999</ele><time>2026-04-08T12:33:25.999Z</time></trkpt><trkpt lat="45.37572543316631" lon="10.700845091330404"><ele>58.0</ele><time>2026-04-08T12:33:26.999Z</time></trkpt><trkpt lat="45.37578733073469" lon="10.700803862524737"><ele>58.00000000000001</ele><time>2026-04-08T12:33:27.999Z</time></trkpt><trkpt lat="45.375849954928505" lon="10.700761665412388"><ele>58.0</ele><time>2026-04-08T12:33:28.999Z</time></trkpt><trkpt lat="45.375907345448134" lon="10.700722118191516"><ele>58.00000000000001</ele><time>2026-04-08T12:33:29.999Z</time></trkpt><trkpt lat="45.375966650933" lon="10.700681029274493"><ele>58.00000000000001</ele><time>2026-04-08T12:33:30.999Z</time></trkpt><trkpt lat="45.37603392163961" lon="10.70063553122882"><ele>58.0</ele><time>2026-04-08T12:33:31.999Z</time></trkpt><trkpt lat="45.37610397842236" lon="10.700589362858407"><ele>58.00000000000001</ele><time>2026-04-08T12:33:32.999Z</time></trkpt><trkpt lat="45.37616615149407" lon="10.700546674003935"><ele>58.00000000000001</ele><time>2026-04-08T12:33:33.999Z</time></trkpt><trkpt lat="45.37622846619333" lon="10.700501572514847"><ele>57.99999999999999</ele><time>2026-04-08T12:33:34.999Z</time></trkpt><trkpt lat="45.37628941812986" lon="10.70046112685227"><ele>58.0</ele><time>2026-04-08T12:33:35.999Z</time></trkpt><trkpt lat="45.37634843361842" lon="10.70042525633981"><ele>58.0</ele><time>2026-04-08T12:33:36.999Z</time></trkpt><trkpt lat="45.37640748829631" lon="10.700388799604703"><ele>58.0</ele><time>2026-04-08T12:33:37.999Z</time></trkpt><trkpt lat="45.376470913081356" lon="10.700351526472922"><ele>57.99999999999999</ele><time>2026-04-08T12:33:38.999Z</time></trkpt><trkpt lat="45.37652986231751" lon="10.700308128870436"><ele>58.0</ele><time>2026-04-08T12:33:39.999Z</time></trkpt><trkpt lat="45.37664249413872" lon="10.700231784930935"><ele>58.0</ele><time>2026-04-08T12:33:41.999Z</time></trkpt><trkpt lat="45.37670698016114" lon="10.700189553586126"><ele>58.0</ele><time>2026-04-08T12:33:42.999Z</time></trkpt><trkpt lat="45.376814897954894" lon="10.700113189341202"><ele>58.0</ele><time>2026-04-08T12:33:44.999Z</time></trkpt><trkpt lat="45.376884074977795" lon="10.700065492474174"><ele>58.0</ele><time>2026-04-08T12:33:45.999Z</time></trkpt><trkpt lat="45.37699552289798" lon="10.699973445386794"><ele>58.0</ele><time>2026-04-08T12:33:47.999Z</time></trkpt><trkpt lat="45.37705555089758" lon="10.699926270451389"><ele>58.0</ele><time>2026-04-08T12:33:48.999Z</time></trkpt><trkpt lat="45.37717872339471" lon="10.69984221583073"><ele>58.0</ele><time>2026-04-08T12:33:50.999Z</time></trkpt><trkpt lat="45.37724039868731" lon="10.699799532560837"><ele>58.0</ele><time>2026-04-08T12:33:51.999Z</time></trkpt><trkpt lat="45.3773007042488" lon="10.699753486327735"><ele>58.0</ele><time>2026-04-08T12:33:52.999Z</time></trkpt><trkpt lat="45.37736463978751" lon="10.699706191298214"><ele>58.0</ele><time>2026-04-08T12:33:53.999Z</time></trkpt><trkpt lat="45.377481084140584" lon="10.69963404982454"><ele>58.14285714285715</ele><time>2026-04-08T12:33:55.999Z</time></trkpt><trkpt lat="45.37753762669549" lon="10.699594290399899"><ele>58.28571428571429</ele><time>2026-04-08T12:33:56.999Z</time></trkpt><trkpt lat="45.37759592975305" lon="10.699549138578673"><ele>58.42857142857143</ele><time>2026-04-08T12:33:57.999Z</time></trkpt><trkpt lat="45.377661592718766" lon="10.699510159143006"><ele>58.57142857142858</ele><time>2026-04-08T12:33:58.999Z</time></trkpt><trkpt lat="45.37772225622944" lon="10.699476200591146"><ele>58.71428571428572</ele><time>2026-04-08T12:33:59.999Z</time></trkpt><trkpt lat="45.37778934982383" lon="10.699441242258786"><ele>58.857142857142854</ele><time>2026-04-08T12:34:00.999Z</time></trkpt><trkpt lat="45.37785354182172" lon="10.699404517289485"><ele>59.0</ele><time>2026-04-08T12:34:01.999Z</time></trkpt><trkpt lat="45.37791444597479" lon="10.699367090683223"><ele>58.800000000000004</ele><time>2026-04-08T12:34:02.999Z</time></trkpt><trkpt lat="45.37802809992879" lon="10.699292572866408"><ele>58.60000000000001</ele><time>2026-04-08T12:34:04.999Z</time></trkpt><trkpt lat="45.37808766427701" lon="10.699252817212999"><ele>58.4</ele><time>2026-04-08T12:34:05.999Z</time></trkpt><trkpt lat="45.378203142737" lon="10.699176277525934"><ele>58.2</ele><time>2026-04-08T12:34:07.999Z</time></trkpt><trkpt lat="45.37831125612253" lon="10.699101527289418"><ele>58.0</ele><time>2026-04-08T12:34:09.999Z</time></trkpt><trkpt lat="45.3784215521268" lon="10.699024187404243"><ele>58.0</ele><time>2026-04-08T12:34:11.999Z</time></trkpt><trkpt lat="45.37852454281554" lon="10.698954521452908"><ele>58.0</ele><time>2026-04-08T12:34:13.999Z</time></trkpt><trkpt lat="45.37862940000521" lon="10.69888367930069"><ele>58.0</ele><time>2026-04-08T12:34:15.999Z</time></trkpt><trkpt lat="45.37869048242771" lon="10.698847729630598"><ele>58.0</ele><time>2026-04-08T12:34:16.999Z</time></trkpt><trkpt lat="45.378750002043276" lon="10.698811710198129"><ele>58.0</ele><time>2026-04-08T12:34:17.999Z</time></trkpt><trkpt lat="45.37885553134031" lon="10.69874238891575"><ele>58.2</ele><time>2026-04-08T12:34:19.999Z</time></trkpt><trkpt lat="45.37894874118708" lon="10.698672178162829"><ele>58.4</ele><time>2026-04-08T12:34:21.999Z</time></trkpt><trkpt lat="45.37906001136969" lon="10.698600798771004"><ele>58.60000000000001</ele><time>2026-04-08T12:34:23.999Z</time></trkpt><trkpt lat="45.37915655565645" lon="10.698525863671234"><ele>58.800000000000004</ele><time>2026-04-08T12:34:25.999Z</time></trkpt><trkpt lat="45.379254399331764" lon="10.698475270002618"><ele>59.0</ele><time>2026-04-08T12:34:27.999Z</time></trkpt><trkpt lat="45.379371217984364" lon="10.69841268966314"><ele>59.0</ele><time>2026-04-08T12:34:29.999Z</time></trkpt><trkpt lat="45.379460364649894" lon="10.698338307433458"><ele>59.00000000000001</ele><time>2026-04-08T12:34:31.999Z</time></trkpt><trkpt lat="45.379518909345286" lon="10.698296495166092"><ele>59.00000000000001</ele><time>2026-04-08T12:34:32.999Z</time></trkpt><trkpt lat="45.379630085172295" lon="10.698224091448616"><ele>59.0</ele><time>2026-04-08T12:34:34.999Z</time></trkpt><trkpt lat="45.37969032274511" lon="10.69817677965733"><ele>59.0</ele><time>2026-04-08T12:34:36.999Z</time></trkpt><trkpt lat="45.37979776933027" lon="10.698096763779446"><ele>59.2</ele><time>2026-04-08T12:34:38.999Z</time></trkpt><trkpt lat="45.3799163671968" lon="10.698011466464012"><ele>59.400000000000006</ele><time>2026-04-08T12:34:40.999Z</time></trkpt><trkpt lat="45.38000336655185" lon="10.697957472979931"><ele>59.6</ele><time>2026-04-08T12:34:42.999Z</time></trkpt><trkpt lat="45.38009343124347" lon="10.697897010568012"><ele>59.8</ele><time>2026-04-08T12:34:44.999Z</time></trkpt><trkpt lat="45.380178905219296" lon="10.697834501239555"><ele>60.0</ele><time>2026-04-08T12:34:46.999Z</time></trkpt><trkpt lat="45.38024139250226" lon="10.697791181738955"><ele>60.2</ele><time>2026-04-08T12:34:47.999Z</time></trkpt><trkpt lat="45.380340560199016" lon="10.697734374961621"><ele>60.4</ele><time>2026-04-08T12:34:49.999Z</time></trkpt><trkpt lat="45.380412753332664" lon="10.697687380925695"><ele>60.599999999999994</ele><time>2026-04-08T12:34:51.999Z</time></trkpt><trkpt lat="45.38051996848625" lon="10.697625336687183"><ele>60.8</ele><time>2026-04-08T12:34:53.999Z</time></trkpt><trkpt lat="45.380631253028106" lon="10.697546974022206"><ele>61.0</ele><time>2026-04-08T12:34:55.999Z</time></trkpt><trkpt lat="45.38074734163376" lon="10.697478725658192"><ele>60.99999999999999</ele><time>2026-04-08T12:34:57.999Z</time></trkpt><trkpt lat="45.38081156448527" lon="10.697432650924156"><ele>61.0</ele><time>2026-04-08T12:34:58.999Z</time></trkpt><trkpt lat="45.38088332451294" lon="10.697377980456285"><ele>61.0</ele><time>2026-04-08T12:34:59.999Z</time></trkpt><trkpt lat="45.38094587128101" lon="10.697332521116937"><ele>61.0</ele><time>2026-04-08T12:35:00.999Z</time></trkpt><trkpt lat="45.38106153845998" lon="10.69725086906924"><ele>60.99999999999999</ele><time>2026-04-08T12:35:02.999Z</time></trkpt><trkpt lat="45.38112569821463" lon="10.697215540039961"><ele>61.0</ele><time>2026-04-08T12:35:03.999Z</time></trkpt><trkpt lat="45.38118508926836" lon="10.697174387362555"><ele>61.0</ele><time>2026-04-08T12:35:04.999Z</time></trkpt><trkpt lat="45.38128233235153" lon="10.697113638255624"><ele>60.99999999999999</ele><time>2026-04-08T12:35:06.999Z</time></trkpt><trkpt lat="45.38137371378873" lon="10.697066011643138"><ele>60.99999999999999</ele><time>2026-04-08T12:35:08.999Z</time></trkpt><trkpt lat="45.381476054613074" lon="10.697021241019264"><ele>61.0</ele><time>2026-04-08T12:35:10.999Z</time></trkpt><trkpt lat="45.38157166211138" lon="10.696953525890525"><ele>61.0</ele><time>2026-04-08T12:35:12.999Z</time></trkpt><trkpt lat="45.381669092545096" lon="10.696868978572617"><ele>60.4</ele><time>2026-04-08T12:35:14.999Z</time></trkpt><trkpt lat="45.38177331741408" lon="10.696801436165808"><ele>59.8</ele><time>2026-04-08T12:35:16.999Z</time></trkpt><trkpt lat="45.38185062469766" lon="10.696757753752408"><ele>59.199999999999996</ele><time>2026-04-08T12:35:18.999Z</time></trkpt><trkpt lat="45.38194644560772" lon="10.69668370977399"><ele>58.599999999999994</ele><time>2026-04-08T12:35:20.999Z</time></trkpt><trkpt lat="45.38204642708846" lon="10.696617993342906"><ele>58.0</ele><time>2026-04-08T12:35:22.999Z</time></trkpt><trkpt lat="45.382112991990105" lon="10.69658670426391"><ele>58.599999999999994</ele><time>2026-04-08T12:35:23.999Z</time></trkpt><trkpt lat="45.382217905224486" lon="10.696554129340072"><ele>59.199999999999996</ele><time>2026-04-08T12:35:25.999Z</time></trkpt><trkpt lat="45.38229805162732" lon="10.696523540889496"><ele>59.8</ele><time>2026-04-08T12:35:27.999Z</time></trkpt><trkpt lat="45.38239110181616" lon="10.696474514957709"><ele>60.4</ele><time>2026-04-08T12:35:29.999Z</time></trkpt><trkpt lat="45.38250284964497" lon="10.696448133167932"><ele>61.0</ele><time>2026-04-08T12:35:31.999Z</time></trkpt><trkpt lat="45.38259186775687" lon="10.696425745871016"><ele>60.99999999999999</ele><time>2026-04-08T12:35:33.999Z</time></trkpt><trkpt lat="45.382670843683755" lon="10.696392712998518"><ele>61.0</ele><time>2026-04-08T12:35:35.999Z</time></trkpt><trkpt lat="45.38276024823427" lon="10.696382266673599"><ele>61.0</ele><time>2026-04-08T12:35:37.999Z</time></trkpt><trkpt lat="45.382833248347076" lon="10.696345268095197"><ele>61.0</ele><time>2026-04-08T12:35:38.999Z</time></trkpt><trkpt lat="45.38294084913514" lon="10.696328296194116"><ele>60.99999999999999</ele><time>2026-04-08T12:35:40.999Z</time></trkpt><trkpt lat="45.383013155625825" lon="10.696303469386635"><ele>61.0</ele><time>2026-04-08T12:35:41.999Z</time></trkpt><trkpt lat="45.38309313438041" lon="10.696294006617402"><ele>61.14285714285714</ele><time>2026-04-08T12:35:42.999Z</time></trkpt><trkpt lat="45.38317002134418" lon="10.696285302663817"><ele>61.285714285714285</ele><time>2026-04-08T12:35:43.999Z</time></trkpt><trkpt lat="45.38324174092227" lon="10.696262313075277"><ele>61.42857142857143</ele><time>2026-04-08T12:35:44.999Z</time></trkpt><trkpt lat="45.38331141690812" lon="10.696254014257226"><ele>61.57142857142857</ele><time>2026-04-08T12:35:45.999Z</time></trkpt><trkpt lat="45.38337957137894" lon="10.696251424103455"><ele>61.71428571428572</ele><time>2026-04-08T12:35:46.999Z</time></trkpt><trkpt lat="45.38345194027154" lon="10.696248100203077"><ele>61.85714285714286</ele><time>2026-04-08T12:35:47.999Z</time></trkpt><trkpt lat="45.383527900934574" lon="10.69624230297252"><ele>62.0</ele><time>2026-04-08T12:35:48.999Z</time></trkpt><trkpt lat="45.38364734373587" lon="10.696273587577041"><ele>62.0</ele><time>2026-04-08T12:35:50.999Z</time></trkpt><trkpt lat="45.38375530754262" lon="10.696265552200176"><ele>62.0</ele><time>2026-04-08T12:35:52.999Z</time></trkpt><trkpt lat="45.38387328820813" lon="10.69628208783445"><ele>62.0</ele><time>2026-04-08T12:35:54.999Z</time></trkpt><trkpt lat="45.38397939864146" lon="10.696298698046338"><ele>62.0</ele><time>2026-04-08T12:35:56.999Z</time></trkpt><trkpt lat="45.38406537541042" lon="10.696322204434496"><ele>62.0</ele><time>2026-04-08T12:35:58.999Z</time></trkpt><trkpt lat="45.38415129307538" lon="10.696332278003228"><ele>62.16666666666667</ele><time>2026-04-08T12:36:00.999Z</time></trkpt><trkpt lat="45.38423824483912" lon="10.69633294341009"><ele>62.333333333333336</ele><time>2026-04-08T12:36:02.999Z</time></trkpt><trkpt lat="45.38431234584671" lon="10.696340973476557"><ele>62.5</ele><time>2026-04-08T12:36:04.999Z</time></trkpt><trkpt lat="45.38439284418235" lon="10.69630486075175"><ele>62.66666666666667</ele><time>2026-04-08T12:36:07.999Z</time></trkpt><trkpt lat="45.384454595744465" lon="10.696273818481677"><ele>62.833333333333336</ele><time>2026-04-08T12:36:15.999Z</time></trkpt><trkpt lat="45.38445093018192" lon="10.696126956223077"><ele>63.0</ele><time>2026-04-08T12:36:19.999Z</time></trkpt><trkpt lat="45.38448693315751" lon="10.696029733307839"><ele>62.5</ele><time>2026-04-08T12:36:22.999Z</time></trkpt><trkpt lat="45.384518621708516" lon="10.695922955728536"><ele>62.0</ele><time>2026-04-08T12:36:25.999Z</time></trkpt><trkpt lat="45.38453655491837" lon="10.695821494034329"><ele>61.5</ele><time>2026-04-08T12:36:28.999Z</time></trkpt><trkpt lat="45.38456231663434" lon="10.695733574453916"><ele>61.0</ele><time>2026-04-08T12:36:31.999Z</time></trkpt><trkpt lat="45.38456020741203" lon="10.695633764857444"><ele>60.5</ele><time>2026-04-08T12:36:34.999Z</time></trkpt><trkpt lat="45.38460824464868" lon="10.695515782913015"><ele>60.0</ele><time>2026-04-08T12:36:36.999Z</time></trkpt><trkpt lat="45.38463808042324" lon="10.695395416923292"><ele>60.0</ele><time>2026-04-08T12:36:38.999Z</time></trkpt><trkpt lat="45.384677573954" lon="10.695269415689102"><ele>60.0</ele><time>2026-04-08T12:36:40.999Z</time></trkpt><trkpt lat="45.384697330015804" lon="10.695162462915588"><ele>60.0</ele><time>2026-04-08T12:36:42.999Z</time></trkpt><trkpt lat="45.38470493617458" lon="10.695056982953894"><ele>60.0</ele><time>2026-04-08T12:36:44.999Z</time></trkpt><trkpt lat="45.38471234548647" lon="10.694956270402905"><ele>60.0</ele><time>2026-04-08T12:36:46.999Z</time></trkpt><trkpt lat="45.384731356156045" lon="10.694863015771364"><ele>60.0</ele><time>2026-04-08T12:36:48.998Z</time></trkpt><trkpt lat="45.38475812375191" lon="10.694775766544357"><ele>60.333333333333336</ele><time>2026-04-08T12:36:50.998Z</time></trkpt><trkpt lat="45.38478389595776" lon="10.694669631680757"><ele>60.66666666666667</ele><time>2026-04-08T12:36:52.998Z</time></trkpt><trkpt lat="45.384798562960064" lon="10.694575420208285"><ele>61.0</ele><time>2026-04-08T12:36:55.998Z</time></trkpt><trkpt lat="45.38482088650598" lon="10.694481662248537"><ele>61.333333333333336</ele><time>2026-04-08T12:36:59.998Z</time></trkpt><trkpt lat="45.3848997106425" lon="10.694414553949427"><ele>61.66666666666667</ele><time>2026-04-08T12:37:03.998Z</time></trkpt><trkpt lat="45.384950974453936" lon="10.69433064884762"><ele>62.0</ele><time>2026-04-08T12:37:08.998Z</time></trkpt><trkpt lat="45.384993402737116" lon="10.694398649096666"><ele>62.00000000000001</ele><time>2026-04-08T12:37:55Z</time></trkpt><trkpt lat="45.38505765985941" lon="10.694463886521945"><ele>62.0</ele><time>2026-04-08T12:37:58Z</time></trkpt><trkpt lat="45.38513756628221" lon="10.694516860273437"><ele>62.0</ele><time>2026-04-08T12:38:02Z</time></trkpt><trkpt lat="45.38518511070748" lon="10.694578346421931"><ele>62.0</ele><time>2026-04-08T12:38:05Z</time></trkpt><trkpt lat="45.385248111343245" lon="10.694637581725717"><ele>62.00000000000001</ele><time>2026-04-08T12:38:11Z</time></trkpt><trkpt lat="45.38530782378562" lon="10.694709603639632"><ele>62.0</ele><time>2026-04-08T12:38:13Z</time></trkpt><trkpt lat="45.385373337994366" lon="10.694744082537037"><ele>62.00000000000001</ele><time>2026-04-08T12:38:15Z</time></trkpt><trkpt lat="45.38542884020445" lon="10.694821655653755"><ele>62.0</ele><time>2026-04-08T12:38:18Z</time></trkpt><trkpt lat="45.38550534586664" lon="10.694884848901308"><ele>62.0</ele><time>2026-04-08T12:38:21Z</time></trkpt><trkpt lat="45.38558379518171" lon="10.694938304085095"><ele>62.0</ele><time>2026-04-08T12:38:24Z</time></trkpt><trkpt lat="45.38563868982416" lon="10.695001872069735"><ele>62.00000000000001</ele><time>2026-04-08T12:38:28Z</time></trkpt><trkpt lat="45.38572010441824" lon="10.695096423181525"><ele>62.0</ele><time>2026-04-08T12:38:32Z</time></trkpt><trkpt lat="45.38579726766185" lon="10.695164830396603"><ele>61.833333333333336</ele><time>2026-04-08T12:38:34Z</time></trkpt><trkpt lat="45.385885408815874" lon="10.695238635244582"><ele>61.66666666666667</ele><time>2026-04-08T12:38:36Z</time></trkpt><trkpt lat="45.38596302228491" lon="10.695301456989043"><ele>61.5</ele><time>2026-04-08T12:38:38Z</time></trkpt><trkpt lat="45.3860328647106" lon="10.695349847480726"><ele>61.33333333333333</ele><time>2026-04-08T12:38:40Z</time></trkpt><trkpt lat="45.386101651327124" lon="10.695394549542414"><ele>61.166666666666664</ele><time>2026-04-08T12:38:42Z</time></trkpt><trkpt lat="45.38615846982747" lon="10.695454937111368"><ele>61.0</ele><time>2026-04-08T12:38:44Z</time></trkpt><trkpt lat="45.386224968968044" lon="10.695539908741656"><ele>60.99999999999999</ele><time>2026-04-08T12:38:47Z</time></trkpt><trkpt lat="45.386291497428985" lon="10.69559221414137"><ele>61.0</ele><time>2026-04-08T12:38:49Z</time></trkpt><trkpt lat="45.3863453169931" lon="10.695644004093914"><ele>60.99999999999999</ele><time>2026-04-08T12:38:51Z</time></trkpt><trkpt lat="45.386405273465996" lon="10.695691350485786"><ele>60.99999999999999</ele><time>2026-04-08T12:38:53Z</time></trkpt><trkpt lat="45.38646416623834" lon="10.695725458523158"><ele>61.0</ele><time>2026-04-08T12:38:55Z</time></trkpt><trkpt lat="45.386531761360324" lon="10.695763609397593"><ele>60.99999999999999</ele><time>2026-04-08T12:38:58Z</time></trkpt><trkpt lat="45.386615051544595" lon="10.695845001257162"><ele>60.99999999999999</ele><time>2026-04-08T12:39:01Z</time></trkpt><trkpt lat="45.38669077011182" lon="10.695909864673427"><ele>62.0</ele><time>2026-04-08T12:39:03Z</time></trkpt><trkpt lat="45.386780623988486" lon="10.695970390491544"><ele>62.99999999999999</ele><time>2026-04-08T12:39:05Z</time></trkpt><trkpt lat="45.386861586675145" lon="10.696054863873872"><ele>63.99999999999999</ele><time>2026-04-08T12:39:07Z</time></trkpt><trkpt lat="45.38694433525638" lon="10.696147196306706"><ele>65.0</ele><time>2026-04-08T12:39:09Z</time></trkpt><trkpt lat="45.387026332546135" lon="10.696214523479332"><ele>66.0</ele><time>2026-04-08T12:39:10.999Z</time></trkpt><trkpt lat="45.38711300723617" lon="10.696310465165217"><ele>66.0</ele><time>2026-04-08T12:39:12.999Z</time></trkpt><trkpt lat="45.387194417481126" lon="10.696392259376744"><ele>66.0</ele><time>2026-04-08T12:39:14.999Z</time></trkpt><trkpt lat="45.38727555973397" lon="10.696457449006905"><ele>66.0</ele><time>2026-04-08T12:39:16.999Z</time></trkpt><trkpt lat="45.38736145456239" lon="10.696519863207982"><ele>66.0</ele><time>2026-04-08T12:39:18.999Z</time></trkpt><trkpt lat="45.38743612072679" lon="10.696624846894279"><ele>66.0</ele><time>2026-04-08T12:39:20.999Z</time></trkpt><trkpt lat="45.38749978492733" lon="10.69671426226406"><ele>66.0</ele><time>2026-04-08T12:39:22.999Z</time></trkpt><trkpt lat="45.38756682507064" lon="10.696743875152492"><ele>66.0</ele><time>2026-04-08T12:39:24.999Z</time></trkpt><trkpt lat="45.38763033975566" lon="10.69679436445273"><ele>66.0</ele><time>2026-04-08T12:39:26.999Z</time></trkpt><trkpt lat="45.3877021868845" lon="10.696889125212493"><ele>66.0</ele><time>2026-04-08T12:39:28.999Z</time></trkpt><trkpt lat="45.387773363055366" lon="10.696970905752814"><ele>66.0</ele><time>2026-04-08T12:39:30.999Z</time></trkpt><trkpt lat="45.38786163725262" lon="10.697047181452563"><ele>66.0</ele><time>2026-04-08T12:39:32.999Z</time></trkpt><trkpt lat="45.38793541388065" lon="10.697131551466962"><ele>66.39999999999999</ele><time>2026-04-08T12:39:34.999Z</time></trkpt><trkpt lat="45.38801817924609" lon="10.697216638414234"><ele>66.8</ele><time>2026-04-08T12:39:36.999Z</time></trkpt><trkpt lat="45.38809424157182" lon="10.697280524581778"><ele>67.19999999999999</ele><time>2026-04-08T12:39:38.999Z</time></trkpt><trkpt lat="45.388160861190755" lon="10.697378114727664"><ele>67.6</ele><time>2026-04-08T12:39:40.999Z</time></trkpt><trkpt lat="45.38823897838244" lon="10.697434450908998"><ele>68.0</ele><time>2026-04-08T12:39:42.999Z</time></trkpt><trkpt lat="45.38832450405158" lon="10.697511287459044"><ele>68.0</ele><time>2026-04-08T12:39:44.999Z</time></trkpt><trkpt lat="45.38840596890882" lon="10.697602208937369"><ele>68.0</ele><time>2026-04-08T12:39:46.999Z</time></trkpt><trkpt lat="45.38848063026403" lon="10.697685092383827"><ele>68.0</ele><time>2026-04-08T12:39:48.999Z</time></trkpt><trkpt lat="45.38856097164502" lon="10.697792426320092"><ele>68.0</ele><time>2026-04-08T12:39:50.999Z</time></trkpt><trkpt lat="45.3886581702644" lon="10.697863170018534"><ele>68.0</ele><time>2026-04-08T12:39:52.999Z</time></trkpt><trkpt lat="45.388736029579356" lon="10.697950285285302"><ele>68.16666666666667</ele><time>2026-04-08T12:39:54.999Z</time></trkpt><trkpt lat="45.388815348396854" lon="10.698042057957581"><ele>68.33333333333334</ele><time>2026-04-08T12:39:56.999Z</time></trkpt><trkpt lat="45.3888962544278" lon="10.698116641332291"><ele>68.5</ele><time>2026-04-08T12:39:58.999Z</time></trkpt><trkpt lat="45.38895805752607" lon="10.698191947886851"><ele>68.66666666666667</ele><time>2026-04-08T12:40:00.999Z</time></trkpt><trkpt lat="45.38902989777906" lon="10.698251682275947"><ele>68.83333333333333</ele><time>2026-04-08T12:40:02.999Z</time></trkpt><trkpt lat="45.38909120809527" lon="10.698325357261142"><ele>69.0</ele><time>2026-04-08T12:40:04.999Z</time></trkpt><trkpt lat="45.3891626611037" lon="10.698406212321432"><ele>69.0</ele><time>2026-04-08T12:40:06.999Z</time></trkpt><trkpt lat="45.38923891146947" lon="10.69851475711772"><ele>69.0</ele><time>2026-04-08T12:40:08.999Z</time></trkpt><trkpt lat="45.38931885156436" lon="10.698585598012349"><ele>69.0</ele><time>2026-04-08T12:40:10.999Z</time></trkpt><trkpt lat="45.389402563456855" lon="10.698693124899076"><ele>69.0</ele><time>2026-04-08T12:40:12.999Z</time></trkpt><trkpt lat="45.38949593721915" lon="10.698807788315705"><ele>69.0</ele><time>2026-04-08T12:40:14.999Z</time></trkpt><trkpt lat="45.38959485676326" lon="10.698925742210298"><ele>69.0</ele><time>2026-04-08T12:40:16.999Z</time></trkpt><trkpt lat="45.38963939537392" lon="10.698998199602284"><ele>69.0</ele><time>2026-04-08T12:40:17.999Z</time></trkpt><trkpt lat="45.38970837675083" lon="10.699086622402218"><ele>69.0</ele><time>2026-04-08T12:40:19.999Z</time></trkpt><trkpt lat="45.3897954774011" lon="10.699162568551712"><ele>69.0</ele><time>2026-04-08T12:40:21.999Z</time></trkpt><trkpt lat="45.38984096954698" lon="10.699241426920567"><ele>69.0</ele><time>2026-04-08T12:40:22.999Z</time></trkpt><trkpt lat="45.38992865503688" lon="10.699378901391137"><ele>67.60000000000001</ele><time>2026-04-08T12:40:24.999Z</time></trkpt><trkpt lat="45.389976720280885" lon="10.699456550625117"><ele>66.2</ele><time>2026-04-08T12:40:25.999Z</time></trkpt><trkpt lat="45.390030299226694" lon="10.699513184391037"><ele>64.80000000000001</ele><time>2026-04-08T12:40:26.999Z</time></trkpt><trkpt lat="45.390108246199546" lon="10.69963047490081"><ele>63.400000000000006</ele><time>2026-04-08T12:40:28.999Z</time></trkpt><trkpt lat="45.390205363911164" lon="10.699727099966537"><ele>62.0</ele><time>2026-04-08T12:40:30.999Z</time></trkpt><trkpt lat="45.39029139614809" lon="10.699813438299353"><ele>62.0</ele><time>2026-04-08T12:40:32.999Z</time></trkpt><trkpt lat="45.39037481520405" lon="10.699912401573908"><ele>62.0</ele><time>2026-04-08T12:40:34.999Z</time></trkpt><trkpt lat="45.39046239942582" lon="10.700024924581252"><ele>62.0</ele><time>2026-04-08T12:40:36.999Z</time></trkpt><trkpt lat="45.39053549887747" lon="10.700124714597747"><ele>62.0</ele><time>2026-04-08T12:40:38.999Z</time></trkpt><trkpt lat="45.39058464576631" lon="10.700195333090514"><ele>62.0</ele><time>2026-04-08T12:40:39.999Z</time></trkpt><trkpt lat="45.39065476105794" lon="10.700313176778385"><ele>61.75</ele><time>2026-04-08T12:40:41.999Z</time></trkpt><trkpt lat="45.39074094857067" lon="10.70042250841254"><ele>61.5</ele><time>2026-04-08T12:40:43.999Z</time></trkpt><trkpt lat="45.39081801148946" lon="10.700500834629477"><ele>61.25</ele><time>2026-04-08T12:40:45.999Z</time></trkpt><trkpt lat="45.390897874226695" lon="10.700628077524232"><ele>61.0</ele><time>2026-04-08T12:40:47.999Z</time></trkpt><trkpt lat="45.39097165142143" lon="10.700763664677929"><ele>61.0</ele><time>2026-04-08T12:40:49.999Z</time></trkpt><trkpt lat="45.391037316525676" lon="10.70087019254264"><ele>60.99999999999999</ele><time>2026-04-08T12:40:51.999Z</time></trkpt><trkpt lat="45.39110413094305" lon="10.700959092941524"><ele>60.99999999999999</ele><time>2026-04-08T12:40:53.999Z</time></trkpt><trkpt lat="45.391177559428336" lon="10.701090146449719"><ele>61.0</ele><time>2026-04-08T12:40:55.999Z</time></trkpt><trkpt lat="45.39124579280534" lon="10.701199892320206"><ele>61.0</ele><time>2026-04-08T12:40:57.999Z</time></trkpt><trkpt lat="45.39130736835559" lon="10.701307243741098"><ele>61.33333333333333</ele><time>2026-04-08T12:40:59.999Z</time></trkpt><trkpt lat="45.39135128988395" lon="10.701411124812422"><ele>61.666666666666664</ele><time>2026-04-08T12:41:01.999Z</time></trkpt><trkpt lat="45.391406713435074" lon="10.701485161471702"><ele>62.0</ele><time>2026-04-08T12:41:03.999Z</time></trkpt><trkpt lat="45.391462854432206" lon="10.701578493823364"><ele>62.33333333333333</ele><time>2026-04-08T12:41:05.999Z</time></trkpt><trkpt lat="45.39151239342392" lon="10.70165663056133"><ele>62.666666666666664</ele><time>2026-04-08T12:41:07.999Z</time></trkpt><trkpt lat="45.39151961986564" lon="10.701540725055192"><ele>63.0</ele><time>2026-04-08T12:41:44.999Z</time></trkpt><trkpt lat="45.391572138812535" lon="10.701488070438796"><ele>63.0</ele><time>2026-04-08T12:41:47.999Z</time></trkpt><trkpt lat="45.391650742985064" lon="10.701500247865534"><ele>63.0</ele><time>2026-04-08T12:41:50.999Z</time></trkpt><trkpt lat="45.39170385559145" lon="10.701586603686293"><ele>63.0</ele><time>2026-04-08T12:41:52.999Z</time></trkpt><trkpt lat="45.391768811636865" lon="10.701701567501457"><ele>63.0</ele><time>2026-04-08T12:41:54.999Z</time></trkpt><trkpt lat="45.39185738325605" lon="10.701832177866427"><ele>63.0</ele><time>2026-04-08T12:41:56.999Z</time></trkpt><trkpt lat="45.3919521588151" lon="10.701959318347049"><ele>63.0</ele><time>2026-04-08T12:41:58.999Z</time></trkpt><trkpt lat="45.39199628963919" lon="10.702036101826346"><ele>63.0</ele><time>2026-04-08T12:41:59.999Z</time></trkpt><trkpt lat="45.39206560635941" lon="10.702169553133537"><ele>63.0</ele><time>2026-04-08T12:42:01.999Z</time></trkpt><trkpt lat="45.392136529901705" lon="10.702288280405458"><ele>63.0</ele><time>2026-04-08T12:42:03.999Z</time></trkpt><trkpt lat="45.39221334589666" lon="10.702402775514056"><ele>63.0</ele><time>2026-04-08T12:42:05.999Z</time></trkpt><trkpt lat="45.39229224759727" lon="10.70253362842318"><ele>63.0</ele><time>2026-04-08T12:42:07.999Z</time></trkpt><trkpt lat="45.39235576326261" lon="10.702642053144839"><ele>63.0</ele><time>2026-04-08T12:42:09.999Z</time></trkpt><trkpt lat="45.3924290032984" lon="10.702794391605028"><ele>63.0</ele><time>2026-04-08T12:42:11.999Z</time></trkpt><trkpt lat="45.39247010035033" lon="10.702864097560044"><ele>63.0</ele><time>2026-04-08T12:42:12.999Z</time></trkpt><trkpt lat="45.392564154663695" lon="10.70297515604531"><ele>63.0</ele><time>2026-04-08T12:42:14.999Z</time></trkpt><trkpt lat="45.3926114848133" lon="10.703042826209439"><ele>62.666666666666664</ele><time>2026-04-08T12:42:15.999Z</time></trkpt><trkpt lat="45.39265885975459" lon="10.70310689102284"><ele>62.33333333333333</ele><time>2026-04-08T12:42:16.999Z</time></trkpt><trkpt lat="45.39270779301091" lon="10.703197989284913"><ele>62.0</ele><time>2026-04-08T12:42:17.999Z</time></trkpt><trkpt lat="45.3927540374664" lon="10.703265828678479"><ele>61.666666666666664</ele><time>2026-04-08T12:42:18.999Z</time></trkpt><trkpt lat="45.3928244999902" lon="10.703372935234848"><ele>61.33333333333333</ele><time>2026-04-08T12:42:20.999Z</time></trkpt><trkpt lat="45.39289391795735" lon="10.703497994077503"><ele>61.0</ele><time>2026-04-08T12:42:22.999Z</time></trkpt><trkpt lat="45.392960401899565" lon="10.703614362284311"><ele>61.199999999999996</ele><time>2026-04-08T12:42:24.998Z</time></trkpt><trkpt lat="45.393039563026555" lon="10.703728330210124"><ele>61.39999999999999</ele><time>2026-04-08T12:42:26.998Z</time></trkpt><trkpt lat="45.393102769344374" lon="10.703824309143101"><ele>61.6</ele><time>2026-04-08T12:42:28.998Z</time></trkpt><trkpt lat="45.39314333626213" lon="10.70390127841462"><ele>61.8</ele><time>2026-04-08T12:42:29.998Z</time></trkpt><trkpt lat="45.39320832913589" lon="10.703991044666239"><ele>62.0</ele><time>2026-04-08T12:42:31.998Z</time></trkpt><trkpt lat="45.393288843819896" lon="10.70410116304365"><ele>62.00000000000001</ele><time>2026-04-08T12:42:33.998Z</time></trkpt><trkpt lat="45.39334689426298" lon="10.704186031475647"><ele>62.0</ele><time>2026-04-08T12:42:35.998Z</time></trkpt><trkpt lat="45.39336109917142" lon="10.704303265476886"><ele>62.0</ele><time>2026-04-08T12:42:37.998Z</time></trkpt><trkpt lat="45.39338071309657" lon="10.704402167900353"><ele>62.0</ele><time>2026-04-08T12:42:40.998Z</time></trkpt><trkpt lat="45.39339054117867" lon="10.704542872429746"><ele>62.00000000000001</ele><time>2026-04-08T12:42:42.998Z</time></trkpt><trkpt lat="45.39339670008322" lon="10.704697414434019"><ele>62.0</ele><time>2026-04-08T12:42:44.998Z</time></trkpt><trkpt lat="45.39340138790534" lon="10.704861138179028"><ele>61.6</ele><time>2026-04-08T12:42:46.998Z</time></trkpt><trkpt lat="45.3934007403558" lon="10.705029030476556"><ele>61.2</ele><time>2026-04-08T12:42:48.998Z</time></trkpt><trkpt lat="45.39339077911163" lon="10.705118730085074"><ele>60.8</ele><time>2026-04-08T12:42:49.998Z</time></trkpt><trkpt lat="45.393385096466" lon="10.705264672532799"><ele>60.4</ele><time>2026-04-08T12:42:51.998Z</time></trkpt><trkpt lat="45.393379055296485" lon="10.705374239966527"><ele>60.0</ele><time>2026-04-08T12:42:53.998Z</time></trkpt><trkpt lat="45.3933715875559" lon="10.70551031233339"><ele>60.0</ele><time>2026-04-08T12:42:55.998Z</time></trkpt><trkpt lat="45.393375392476585" lon="10.705646829368526"><ele>60.0</ele><time>2026-04-08T12:42:57.998Z</time></trkpt><trkpt lat="45.39336920756927" lon="10.705771684000611"><ele>60.0</ele><time>2026-04-08T12:42:59.998Z</time></trkpt><trkpt lat="45.393366509406796" lon="10.705904871675946"><ele>60.0</ele><time>2026-04-08T12:43:01.998Z</time></trkpt><trkpt lat="45.39337315464798" lon="10.706046483508008"><ele>60.0</ele><time>2026-04-08T12:43:03.998Z</time></trkpt><trkpt lat="45.393368819985504" lon="10.706176800386181"><ele>60.0</ele><time>2026-04-08T12:43:05.998Z</time></trkpt><trkpt lat="45.39336132220291" lon="10.706291019930768"><ele>60.0</ele><time>2026-04-08T12:43:07.998Z</time></trkpt><trkpt lat="45.393377882412466" lon="10.706397456096747"><ele>60.0</ele><time>2026-04-08T12:43:09.998Z</time></trkpt><trkpt lat="45.39337358976544" lon="10.706515753262464"><ele>60.0</ele><time>2026-04-08T12:43:11.998Z</time></trkpt><trkpt lat="45.393372769529265" lon="10.706615145297656"><ele>60.0</ele><time>2026-04-08T12:43:13.998Z</time></trkpt><trkpt lat="45.3933899016496" lon="10.706715397653012"><ele>60.0</ele><time>2026-04-08T12:43:15.998Z</time></trkpt><trkpt lat="45.39338748665057" lon="10.706822473009675"><ele>60.0</ele><time>2026-04-08T12:43:17.998Z</time></trkpt><trkpt lat="45.393382198408105" lon="10.70691479236836"><ele>60.0</ele><time>2026-04-08T12:43:19.998Z</time></trkpt><trkpt lat="45.39338351529309" lon="10.707017288275665"><ele>60.0</ele><time>2026-04-08T12:43:21.998Z</time></trkpt><trkpt lat="45.393376557119865" lon="10.70713368402494"><ele>60.0</ele><time>2026-04-08T12:43:23.998Z</time></trkpt><trkpt lat="45.39337400309071" lon="10.707249064296523"><ele>60.0</ele><time>2026-04-08T12:43:25.998Z</time></trkpt><trkpt lat="45.39336573547912" lon="10.707375406711925"><ele>60.0</ele><time>2026-04-08T12:43:27.998Z</time></trkpt><trkpt lat="45.39338191839193" lon="10.707481033008449"><ele>60.0</ele><time>2026-04-08T12:43:29.998Z</time></trkpt><trkpt lat="45.393384200128736" lon="10.70759422383024"><ele>60.0</ele><time>2026-04-08T12:43:31.998Z</time></trkpt><trkpt lat="45.39339113108742" lon="10.707713141141301"><ele>60.0</ele><time>2026-04-08T12:43:33.998Z</time></trkpt><trkpt lat="45.393405343411715" lon="10.70783767499145"><ele>60.0</ele><time>2026-04-08T12:43:35.998Z</time></trkpt><trkpt lat="45.39343557679151" lon="10.707956612220723"><ele>60.0</ele><time>2026-04-08T12:43:37.998Z</time></trkpt><trkpt lat="45.39345965551901" lon="10.708059230328047"><ele>60.0</ele><time>2026-04-08T12:43:39.998Z</time></trkpt><trkpt lat="45.393483340534694" lon="10.708192989214636"><ele>60.0</ele><time>2026-04-08T12:43:41.998Z</time></trkpt><trkpt lat="45.39351159096542" lon="10.70830133527723"><ele>60.0</ele><time>2026-04-08T12:43:43.998Z</time></trkpt><trkpt lat="45.39353599819916" lon="10.708418218454014"><ele>60.0</ele><time>2026-04-08T12:43:45.998Z</time></trkpt><trkpt lat="45.393579628843675" lon="10.708536127157878"><ele>60.0</ele><time>2026-04-08T12:43:47.998Z</time></trkpt><trkpt lat="45.39360921373332" lon="10.708647462008152"><ele>60.0</ele><time>2026-04-08T12:43:49.998Z</time></trkpt><trkpt lat="45.39363691803615" lon="10.708762349431446"><ele>60.0</ele><time>2026-04-08T12:43:51.998Z</time></trkpt><trkpt lat="45.39366764961536" lon="10.7088700987632"><ele>59.8</ele><time>2026-04-08T12:43:53.998Z</time></trkpt><trkpt lat="45.3937000238091" lon="10.70899959098607"><ele>59.6</ele><time>2026-04-08T12:43:55.998Z</time></trkpt><trkpt lat="45.393732740726385" lon="10.709122825127082"><ele>59.400000000000006</ele><time>2026-04-08T12:43:57.998Z</time></trkpt><trkpt lat="45.393768789251816" lon="10.709258171789516"><ele>59.2</ele><time>2026-04-08T12:43:59.998Z</time></trkpt><trkpt lat="45.393805882662" lon="10.709370093489177"><ele>59.0</ele><time>2026-04-08T12:44:01.998Z</time></trkpt><trkpt lat="45.39383971877899" lon="10.70948446074046"><ele>59.6</ele><time>2026-04-08T12:44:03.998Z</time></trkpt><trkpt lat="45.39387246910161" lon="10.709622355106353"><ele>60.2</ele><time>2026-04-08T12:44:05.998Z</time></trkpt><trkpt lat="45.393922638612224" lon="10.709722211885744"><ele>60.800000000000004</ele><time>2026-04-08T12:44:07.998Z</time></trkpt><trkpt lat="45.393962462889455" lon="10.709838410721352"><ele>61.400000000000006</ele><time>2026-04-08T12:44:09.998Z</time></trkpt><trkpt lat="45.39400716443809" lon="10.709921138386377"><ele>62.0</ele><time>2026-04-08T12:44:11.998Z</time></trkpt><trkpt lat="45.39406592896763" lon="10.710039264538358"><ele>62.0</ele><time>2026-04-08T12:44:13.998Z</time></trkpt><trkpt lat="45.39411511257565" lon="10.710140142575195"><ele>62.0</ele><time>2026-04-08T12:44:15.998Z</time></trkpt><trkpt lat="45.39418758820987" lon="10.71023088673192"><ele>62.0</ele><time>2026-04-08T12:44:17.998Z</time></trkpt><trkpt lat="45.39426809508139" lon="10.7103316598789"><ele>62.0</ele><time>2026-04-08T12:44:19.998Z</time></trkpt><trkpt lat="45.3943369193113" lon="10.710415152386144"><ele>62.0</ele><time>2026-04-08T12:44:21.998Z</time></trkpt><trkpt lat="45.39440050307717" lon="10.71049393651857"><ele>62.333333333333336</ele><time>2026-04-08T12:44:23.998Z</time></trkpt><trkpt lat="45.394470955850466" lon="10.710557231071904"><ele>62.66666666666667</ele><time>2026-04-08T12:44:25.998Z</time></trkpt><trkpt lat="45.39455287987161" lon="10.71064571362998"><ele>63.0</ele><time>2026-04-08T12:44:27.998Z</time></trkpt><trkpt lat="45.39461588188421" lon="10.710723430443018"><ele>63.33333333333333</ele><time>2026-04-08T12:44:29.998Z</time></trkpt><trkpt lat="45.39467338473057" lon="10.710814281988084"><ele>63.666666666666664</ele><time>2026-04-08T12:44:31.998Z</time></trkpt><trkpt lat="45.39471145027617" lon="10.710914257335741"><ele>64.0</ele><time>2026-04-08T12:44:34Z</time></trkpt><trkpt lat="45.394735202950294" lon="10.711008700464753"><ele>63.99999999999999</ele><time>2026-04-08T12:44:36Z</time></trkpt><trkpt lat="45.394777274776146" lon="10.711109288915639"><ele>64.0</ele><time>2026-04-08T12:44:38Z</time></trkpt><trkpt lat="45.39481292622002" lon="10.711185485939698"><ele>64.0</ele><time>2026-04-08T12:44:40Z</time></trkpt><trkpt lat="45.394840693840244" lon="10.711298600291954"><ele>64.0</ele><time>2026-04-08T12:44:43Z</time></trkpt><trkpt lat="45.394859867445575" lon="10.711441111306767"><ele>63.99999999999999</ele><time>2026-04-08T12:44:46Z</time></trkpt><trkpt lat="45.39488071803196" lon="10.711550791553812"><ele>64.0</ele><time>2026-04-08T12:44:48Z</time></trkpt><trkpt lat="45.39492178447185" lon="10.71164783475078"><ele>64.0</ele><time>2026-04-08T12:44:50Z</time></trkpt><trkpt lat="45.39495630121902" lon="10.711736687700776"><ele>63.99999999999999</ele><time>2026-04-08T12:44:52Z</time></trkpt><trkpt lat="45.394989760953365" lon="10.71183858279565"><ele>64.0</ele><time>2026-04-08T12:44:54Z</time></trkpt><trkpt lat="45.39502382017774" lon="10.711934922206503"><ele>64.0</ele><time>2026-04-08T12:44:56Z</time></trkpt><trkpt lat="45.39506319914595" lon="10.712028009433185"><ele>63.99999999999999</ele><time>2026-04-08T12:44:58Z</time></trkpt><trkpt lat="45.395084555433314" lon="10.712136554064719"><ele>64.0</ele><time>2026-04-08T12:45:00Z</time></trkpt><trkpt lat="45.39511986214011" lon="10.712216772629478"><ele>64.0</ele><time>2026-04-08T12:48:28.999Z</time></trkpt><trkpt lat="45.395155004268354" lon="10.712332024520828"><ele>64.16666666666666</ele><time>2026-04-08T12:48:31.998Z</time></trkpt><trkpt lat="45.39518677849727" lon="10.712423984753901"><ele>64.33333333333333</ele><time>2026-04-08T12:48:34.998Z</time></trkpt><trkpt lat="45.3952162911708" lon="10.712516388601227"><ele>64.5</ele><time>2026-04-08T12:48:37.998Z</time></trkpt><trkpt lat="45.39527581746879" lon="10.712613289063595"><ele>64.66666666666667</ele><time>2026-04-08T12:48:39.998Z</time></trkpt><trkpt lat="45.395311751113525" lon="10.712735050912984"><ele>64.83333333333334</ele><time>2026-04-08T12:48:41.998Z</time></trkpt><trkpt lat="45.39536216448687" lon="10.712847961408595"><ele>65.0</ele><time>2026-04-08T12:48:43.998Z</time></trkpt><trkpt lat="45.395434803444715" lon="10.712954419124358"><ele>64.83333333333334</ele><time>2026-04-08T12:48:45.998Z</time></trkpt><trkpt lat="45.39548092920325" lon="10.713074076612735"><ele>64.66666666666667</ele><time>2026-04-08T12:48:47.998Z</time></trkpt><trkpt lat="45.39551274404587" lon="10.713179869123994"><ele>64.5</ele><time>2026-04-08T12:48:49.998Z</time></trkpt><trkpt lat="45.39555242319762" lon="10.71327364452626"><ele>64.33333333333333</ele><time>2026-04-08T12:48:51.998Z</time></trkpt><trkpt lat="45.39559185858068" lon="10.71334896401902"><ele>64.16666666666666</ele><time>2026-04-08T12:48:53.998Z</time></trkpt><trkpt lat="45.39563788553969" lon="10.713435346913673"><ele>64.0</ele><time>2026-04-08T12:48:55.998Z</time></trkpt><trkpt lat="45.39568827503386" lon="10.71353128714811"><ele>64.2</ele><time>2026-04-08T12:48:57.998Z</time></trkpt><trkpt lat="45.39573809616048" lon="10.713614666387357"><ele>64.4</ele><time>2026-04-08T12:48:59.998Z</time></trkpt><trkpt lat="45.39579961031597" lon="10.713727393999372"><ele>64.6</ele><time>2026-04-08T12:49:01.998Z</time></trkpt><trkpt lat="45.39587887046969" lon="10.713857566057303"><ele>64.8</ele><time>2026-04-08T12:49:03.998Z</time></trkpt><trkpt lat="45.39594252595606" lon="10.713952418258042"><ele>65.0</ele><time>2026-04-08T12:49:05.998Z</time></trkpt><trkpt lat="45.39600632282457" lon="10.714070313980674"><ele>65.0</ele><time>2026-04-08T12:49:07.998Z</time></trkpt><trkpt lat="45.39608024376344" lon="10.714192634518717"><ele>65.0</ele><time>2026-04-08T12:49:09.998Z</time></trkpt><trkpt lat="45.39615049406618" lon="10.714300443562047"><ele>65.0</ele><time>2026-04-08T12:49:11.998Z</time></trkpt><trkpt lat="45.39622059535122" lon="10.714405124693474"><ele>65.0</ele><time>2026-04-08T12:49:13.998Z</time></trkpt><trkpt lat="45.396291853978525" lon="10.714506905529548"><ele>65.0</ele><time>2026-04-08T12:49:15.998Z</time></trkpt><trkpt lat="45.39637571944365" lon="10.714597982032785"><ele>64.6</ele><time>2026-04-08T12:49:17.998Z</time></trkpt><trkpt lat="45.39645276395979" lon="10.71468186436789"><ele>64.2</ele><time>2026-04-08T12:49:19.998Z</time></trkpt><trkpt lat="45.3965245944879" lon="10.7147770223022"><ele>63.8</ele><time>2026-04-08T12:49:21.998Z</time></trkpt><trkpt lat="45.39659201958523" lon="10.714874935160369"><ele>63.4</ele><time>2026-04-08T12:49:23.998Z</time></trkpt><trkpt lat="45.39666413238296" lon="10.714934499883395"><ele>63.0</ele><time>2026-04-08T12:49:25.998Z</time></trkpt><trkpt lat="45.396754729569935" lon="10.714995985448384"><ele>63.0</ele><time>2026-04-08T12:49:27.998Z</time></trkpt><trkpt lat="45.39685034820146" lon="10.715095323423636"><ele>63.0</ele><time>2026-04-08T12:49:29.998Z</time></trkpt><trkpt lat="45.396935131865966" lon="10.715179170632956"><ele>63.0</ele><time>2026-04-08T12:49:31.998Z</time></trkpt><trkpt lat="45.39701941238177" lon="10.71525195885233"><ele>63.0</ele><time>2026-04-08T12:49:33.998Z</time></trkpt><trkpt lat="45.397085795490256" lon="10.715328744459686"><ele>63.0</ele><time>2026-04-08T12:49:35.998Z</time></trkpt><trkpt lat="45.39717558821078" lon="10.715407882145477"><ele>64.0</ele><time>2026-04-08T12:49:37.998Z</time></trkpt><trkpt lat="45.39726011054283" lon="10.715476245874182"><ele>65.0</ele><time>2026-04-08T12:49:39.998Z</time></trkpt><trkpt lat="45.39734658198197" lon="10.715555185151166"><ele>66.0</ele><time>2026-04-08T12:49:41.998Z</time></trkpt><trkpt lat="45.397420049526666" lon="10.715607450646605"><ele>67.0</ele><time>2026-04-08T12:49:43.998Z</time></trkpt><trkpt lat="45.39749706066396" lon="10.715664634459218"><ele>68.0</ele><time>2026-04-08T12:49:45.998Z</time></trkpt><trkpt lat="45.39756809108694" lon="10.71573340245351"><ele>68.0</ele><time>2026-04-08T12:49:47.998Z</time></trkpt><trkpt lat="45.397653627650904" lon="10.715782088715065"><ele>68.0</ele><time>2026-04-08T12:49:49.998Z</time></trkpt><trkpt lat="45.397731949972744" lon="10.715811516142443"><ele>68.0</ele><time>2026-04-08T12:49:51.998Z</time></trkpt><trkpt lat="45.397822297075955" lon="10.715854716397404"><ele>68.0</ele><time>2026-04-08T12:49:53.998Z</time></trkpt><trkpt lat="45.397916937961966" lon="10.715926274396743"><ele>68.0</ele><time>2026-04-08T12:49:55.998Z</time></trkpt><trkpt lat="45.39802739252969" lon="10.715973870468678"><ele>68.2</ele><time>2026-04-08T12:49:57.998Z</time></trkpt><trkpt lat="45.398128214853365" lon="10.716007058768769"><ele>68.4</ele><time>2026-04-08T12:49:59.998Z</time></trkpt><trkpt lat="45.39822365304374" lon="10.716049771644585"><ele>68.60000000000001</ele><time>2026-04-08T12:50:01.998Z</time></trkpt><trkpt lat="45.398321549140206" lon="10.71609536972846"><ele>68.8</ele><time>2026-04-08T12:50:03.998Z</time></trkpt><trkpt lat="45.398417464773395" lon="10.716142272974402"><ele>69.0</ele><time>2026-04-08T12:50:05.998Z</time></trkpt><trkpt lat="45.398524124639145" lon="10.71617583282111"><ele>69.0</ele><time>2026-04-08T12:50:07.998Z</time></trkpt><trkpt lat="45.39862072586257" lon="10.716210094500129"><ele>69.0</ele><time>2026-04-08T12:50:09.998Z</time></trkpt><trkpt lat="45.398714815927754" lon="10.716255053086707"><ele>69.0</ele><time>2026-04-08T12:50:11.998Z</time></trkpt><trkpt lat="45.39881730849184" lon="10.716294209739422"><ele>69.0</ele><time>2026-04-08T12:50:13.998Z</time></trkpt><trkpt lat="45.398918168470644" lon="10.716343318996406"><ele>69.0</ele><time>2026-04-08T12:50:15.998Z</time></trkpt><trkpt lat="45.39902382256348" lon="10.71638445478439"><ele>68.85714285714286</ele><time>2026-04-08T12:50:17.998Z</time></trkpt><trkpt lat="45.399086452883715" lon="10.716396309810051"><ele>68.71428571428572</ele><time>2026-04-08T12:50:18.998Z</time></trkpt><trkpt lat="45.399148429759926" lon="10.716413246175732"><ele>68.57142857142857</ele><time>2026-04-08T12:50:19.998Z</time></trkpt><trkpt lat="45.39921518922511" lon="10.716439844069406"><ele>68.42857142857143</ele><time>2026-04-08T12:50:20.998Z</time></trkpt><trkpt lat="45.39928084398778" lon="10.716460438434508"><ele>68.28571428571428</ele><time>2026-04-08T12:50:21.998Z</time></trkpt><trkpt lat="45.39935472573058" lon="10.716489594918631"><ele>68.14285714285714</ele><time>2026-04-08T12:50:22.998Z</time></trkpt><trkpt lat="45.39942385105907" lon="10.71651118712947"><ele>68.0</ele><time>2026-04-08T12:50:23.998Z</time></trkpt><trkpt lat="45.399491978928914" lon="10.716548529471149"><ele>68.0</ele><time>2026-04-08T12:50:24.998Z</time></trkpt><trkpt lat="45.399617747242885" lon="10.71659698701475"><ele>68.0</ele><time>2026-04-08T12:50:26.998Z</time></trkpt><trkpt lat="45.399688113301565" lon="10.71663069341032"><ele>68.0</ele><time>2026-04-08T12:50:27.998Z</time></trkpt><trkpt lat="45.39976220358141" lon="10.716676253256022"><ele>68.0</ele><time>2026-04-08T12:50:28.998Z</time></trkpt><trkpt lat="45.39983309349501" lon="10.716715225196161"><ele>68.0</ele><time>2026-04-08T12:50:29.998Z</time></trkpt><trkpt lat="45.39990970609605" lon="10.716750762716956"><ele>68.0</ele><time>2026-04-08T12:50:30.998Z</time></trkpt><trkpt lat="45.39998610272155" lon="10.716781972306292"><ele>67.66666666666667</ele><time>2026-04-08T12:50:31.998Z</time></trkpt><trkpt lat="45.40005289502332" lon="10.716809980218452"><ele>67.33333333333334</ele><time>2026-04-08T12:50:32.998Z</time></trkpt><trkpt lat="45.40011806216005" lon="10.716841011645927"><ele>67.0</ele><time>2026-04-08T12:50:33.998Z</time></trkpt><trkpt lat="45.40025154149035" lon="10.716891315817273"><ele>66.66666666666667</ele><time>2026-04-08T12:50:35.998Z</time></trkpt><trkpt lat="45.40031627970377" lon="10.716907893865885"><ele>66.33333333333333</ele><time>2026-04-08T12:50:36.998Z</time></trkpt><trkpt lat="45.40038271268545" lon="10.716927359891693"><ele>66.0</ele><time>2026-04-08T12:50:37.998Z</time></trkpt><trkpt lat="45.40053229750909" lon="10.71694633819652"><ele>66.0</ele><time>2026-04-08T12:50:39.998Z</time></trkpt><trkpt lat="45.40060291691278" lon="10.716968125959394"><ele>66.0</ele><time>2026-04-08T12:50:40.998Z</time></trkpt><trkpt lat="45.40068102149399" lon="10.71700239023237"><ele>66.0</ele><time>2026-04-08T12:50:41.998Z</time></trkpt><trkpt lat="45.40077928303346" lon="10.71700403636428"><ele>66.0</ele><time>2026-04-08T12:50:43.998Z</time></trkpt><trkpt lat="45.40087722510376" lon="10.716880739542017"><ele>66.0</ele><time>2026-04-08T12:50:45.998Z</time></trkpt><trkpt lat="45.40092265971894" lon="10.71676692726953"><ele>65.71428571428571</ele><time>2026-04-08T12:50:46.998Z</time></trkpt><trkpt lat="45.40095426441939" lon="10.716674510805978"><ele>65.42857142857143</ele><time>2026-04-08T12:50:47.998Z</time></trkpt><trkpt lat="45.400981089619044" lon="10.716567093653186"><ele>65.14285714285714</ele><time>2026-04-08T12:50:48.998Z</time></trkpt><trkpt lat="45.40100270919632" lon="10.716472121633572"><ele>64.85714285714286</ele><time>2026-04-08T12:50:49.998Z</time></trkpt><trkpt lat="45.40102290251606" lon="10.716371212435988"><ele>64.57142857142857</ele><time>2026-04-08T12:50:50.998Z</time></trkpt><trkpt lat="45.401042287071824" lon="10.716281505434997"><ele>64.28571428571428</ele><time>2026-04-08T12:50:51.998Z</time></trkpt><trkpt lat="45.401057371670944" lon="10.716188812817213"><ele>64.0</ele><time>2026-04-08T12:50:52.998Z</time></trkpt><trkpt lat="45.4010724464552" lon="10.716100438006903"><ele>64.60000000000001</ele><time>2026-04-08T12:50:53.998Z</time></trkpt><trkpt lat="45.401109629077844" lon="10.71596368779872"><ele>65.2</ele><time>2026-04-08T12:50:55.998Z</time></trkpt><trkpt lat="45.40114403590326" lon="10.715820968332745"><ele>65.80000000000001</ele><time>2026-04-08T12:50:57.998Z</time></trkpt><trkpt lat="45.4011884932956" lon="10.715656111640728"><ele>66.4</ele><time>2026-04-08T12:50:59.998Z</time></trkpt><trkpt lat="45.401208030918475" lon="10.715566331305833"><ele>67.0</ele><time>2026-04-08T12:51:00.998Z</time></trkpt><trkpt lat="45.40124710899277" lon="10.715440241276667"><ele>67.0</ele><time>2026-04-08T12:51:02.998Z</time></trkpt><trkpt lat="45.40129545209189" lon="10.715304313552496"><ele>67.0</ele><time>2026-04-08T12:51:04.998Z</time></trkpt><trkpt lat="45.401324849600364" lon="10.715209283066566"><ele>67.0</ele><time>2026-04-08T12:51:06.998Z</time></trkpt><trkpt lat="45.40138151969276" lon="10.715100438169321"><ele>67.0</ele><time>2026-04-08T12:51:08.998Z</time></trkpt><trkpt lat="45.401419881303234" lon="10.714951755280495"><ele>67.0</ele><time>2026-04-08T12:51:10.998Z</time></trkpt><trkpt lat="45.40146590834869" lon="10.714832971254271"><ele>67.6</ele><time>2026-04-08T12:51:12.998Z</time></trkpt><trkpt lat="45.40153987044306" lon="10.714799672630425"><ele>68.2</ele><time>2026-04-08T12:51:15.998Z</time></trkpt><trkpt lat="45.401641325354156" lon="10.714859837705253"><ele>68.8</ele><time>2026-04-08T12:51:18.998Z</time></trkpt><trkpt lat="45.401734180845544" lon="10.714935324431194"><ele>69.4</ele><time>2026-04-08T12:51:20.998Z</time></trkpt><trkpt lat="45.401818916242874" lon="10.715011805033141"><ele>70.0</ele><time>2026-04-08T12:51:22.998Z</time></trkpt><trkpt lat="45.40188292660295" lon="10.715057436157453"><ele>70.0</ele><time>2026-04-08T12:51:24.998Z</time></trkpt><trkpt lat="45.40195154923124" lon="10.715146228410896"><ele>70.0</ele><time>2026-04-08T12:51:27.998Z</time></trkpt><trkpt lat="45.402007812539935" lon="10.71523516894549"><ele>70.0</ele><time>2026-04-08T12:51:29.998Z</time></trkpt><trkpt lat="45.4020365671723" lon="10.715352993936262"><ele>70.0</ele><time>2026-04-08T12:51:31.998Z</time></trkpt><trkpt lat="45.402036643607445" lon="10.715480305635655"><ele>70.0</ele><time>2026-04-08T12:51:33.998Z</time></trkpt><trkpt lat="45.40203142206371" lon="10.715623819387062"><ele>69.4</ele><time>2026-04-08T12:51:35.998Z</time></trkpt><trkpt lat="45.40203085998582" lon="10.71574662209733"><ele>68.8</ele><time>2026-04-08T12:51:37.998Z</time></trkpt><trkpt lat="45.40205774677696" lon="10.715836013311785"><ele>68.2</ele><time>2026-04-08T12:51:41Z</time></trkpt><trkpt lat="45.402136012018474" lon="10.715834028884085"><ele>67.6</ele><time>2026-04-08T12:51:43Z</time></trkpt><trkpt lat="45.402242211741154" lon="10.715834412044867"><ele>67.0</ele><time>2026-04-08T12:51:45Z</time></trkpt><trkpt lat="45.40235525142818" lon="10.715849897602293"><ele>67.0</ele><time>2026-04-08T12:51:47Z</time></trkpt><trkpt lat="45.402454388202315" lon="10.715879491633242"><ele>67.0</ele><time>2026-04-08T12:51:49Z</time></trkpt><trkpt lat="45.40254741899268" lon="10.715905933458203"><ele>67.0</ele><time>2026-04-08T12:51:51Z</time></trkpt><trkpt lat="45.402641395305125" lon="10.715933641445881"><ele>67.0</ele><time>2026-04-08T12:51:53Z</time></trkpt><trkpt lat="45.40273504608169" lon="10.715964560316882"><ele>67.0</ele><time>2026-04-08T12:51:55Z</time></trkpt><trkpt lat="45.402815713188666" lon="10.715983301708718"><ele>67.0</ele><time>2026-04-08T12:51:57Z</time></trkpt><trkpt lat="45.402917622425065" lon="10.71599023978376"><ele>67.0</ele><time>2026-04-08T12:51:59Z</time></trkpt><trkpt lat="45.40301511048897" lon="10.716025600738961"><ele>67.0</ele><time>2026-04-08T12:52:01Z</time></trkpt><trkpt lat="45.40310142755124" lon="10.716071040297878"><ele>67.0</ele><time>2026-04-08T12:52:03Z</time></trkpt><trkpt lat="45.403189279842785" lon="10.71609394369186"><ele>67.0</ele><time>2026-04-08T12:52:05Z</time></trkpt><trkpt lat="45.40326491950479" lon="10.716143436757504"><ele>66.5</ele><time>2026-04-08T12:52:07Z</time></trkpt><trkpt lat="45.40329874120598" lon="10.716236846307908"><ele>66.0</ele><time>2026-04-08T12:52:09Z</time></trkpt><trkpt lat="45.40333320516829" lon="10.71634671831565"><ele>65.5</ele><time>2026-04-08T12:52:11Z</time></trkpt><trkpt lat="45.403365108261674" lon="10.716470430294384"><ele>65.0</ele><time>2026-04-08T12:52:13Z</time></trkpt><trkpt lat="45.40338529004069" lon="10.716604143158742"><ele>64.5</ele><time>2026-04-08T12:52:15Z</time></trkpt><trkpt lat="45.40339029589589" lon="10.71673279818606"><ele>64.0</ele><time>2026-04-08T12:52:17Z</time></trkpt><trkpt lat="45.4034037117161" lon="10.716833340549375"><ele>63.83333333333333</ele><time>2026-04-08T12:52:19Z</time></trkpt><trkpt lat="45.4034189475311" lon="10.716934378192647"><ele>63.666666666666664</ele><time>2026-04-08T12:52:21Z</time></trkpt><trkpt lat="45.403417467888204" lon="10.717060859118535"><ele>63.5</ele><time>2026-04-08T12:52:23Z</time></trkpt><trkpt lat="45.40340554034295" lon="10.71719154289901"><ele>63.33333333333333</ele><time>2026-04-08T12:52:25Z</time></trkpt><trkpt lat="45.40338939699944" lon="10.717316482268513"><ele>63.166666666666664</ele><time>2026-04-08T12:52:27Z</time></trkpt><trkpt lat="45.403385587181525" lon="10.71744294636384"><ele>63.0</ele><time>2026-04-08T12:52:29Z</time></trkpt><trkpt lat="45.403402938238294" lon="10.717548025949476"><ele>63.0</ele><time>2026-04-08T12:52:31Z</time></trkpt><trkpt lat="45.40343885463582" lon="10.717641349620276"><ele>63.0</ele><time>2026-04-08T12:52:33Z</time></trkpt><trkpt lat="45.40350167299079" lon="10.717673445585639"><ele>63.0</ele><time>2026-04-08T12:52:35Z</time></trkpt><trkpt lat="45.40358056482688" lon="10.717679900311554"><ele>63.0</ele><time>2026-04-08T12:52:37Z</time></trkpt><trkpt lat="45.40366017984176" lon="10.717693618562807"><ele>63.0</ele><time>2026-04-08T12:52:39Z</time></trkpt><trkpt lat="45.403748345512156" lon="10.717706361643586"><ele>63.0</ele><time>2026-04-08T12:52:42Z</time></trkpt><trkpt lat="45.40381227631582" lon="10.717733312003297"><ele>63.333333333333336</ele><time>2026-04-08T12:52:44Z</time></trkpt><trkpt lat="45.403892659032884" lon="10.717739126108304"><ele>63.66666666666667</ele><time>2026-04-08T12:52:46Z</time></trkpt><trkpt lat="45.40395681290567" lon="10.717757469141754"><ele>64.0</ele><time>2026-04-08T12:52:48Z</time></trkpt><trkpt lat="45.40404046260543" lon="10.717770233096505"><ele>64.33333333333334</ele><time>2026-04-08T12:52:51Z</time></trkpt><trkpt lat="45.40410444248828" lon="10.717789310346463"><ele>64.66666666666667</ele><time>2026-04-08T12:52:53Z</time></trkpt><trkpt lat="45.404194551618474" lon="10.717799615651712"><ele>65.0</ele><time>2026-04-08T12:52:56Z</time></trkpt><trkpt lat="45.40426412990582" lon="10.717833637598003"><ele>65.0</ele><time>2026-04-08T12:52:58Z</time></trkpt><trkpt lat="45.404356612845696" lon="10.717841352416997"><ele>65.0</ele><time>2026-04-08T12:53:01Z</time></trkpt><trkpt lat="45.404450557175956" lon="10.717818903742867"><ele>65.0</ele><time>2026-04-08T12:53:04Z</time></trkpt><trkpt lat="45.4045239580944" lon="10.717814294853945"><ele>65.0</ele><time>2026-04-08T12:53:06Z</time></trkpt><trkpt lat="45.40459585104143" lon="10.717806227075164"><ele>65.0</ele><time>2026-04-08T12:53:08Z</time></trkpt><trkpt lat="45.40465977648663" lon="10.717801024522965"><ele>65.0</ele><time>2026-04-08T12:53:10Z</time></trkpt><trkpt lat="45.40475549021323" lon="10.717780266650914"><ele>64.83333333333334</ele><time>2026-04-08T12:53:13Z</time></trkpt><trkpt lat="45.40482458087273" lon="10.717732967642283"><ele>64.66666666666667</ele><time>2026-04-08T12:53:15Z</time></trkpt><trkpt lat="45.40489136071573" lon="10.717705535333314"><ele>64.5</ele><time>2026-04-08T12:53:17Z</time></trkpt><trkpt lat="45.40495062436942" lon="10.71767513552021"><ele>64.33333333333333</ele><time>2026-04-08T12:53:19Z</time></trkpt><trkpt lat="45.40504265254773" lon="10.717641002935519"><ele>64.16666666666666</ele><time>2026-04-08T12:53:21Z</time></trkpt><trkpt lat="45.40511289621275" lon="10.717620201880234"><ele>64.0</ele><time>2026-04-08T12:53:23Z</time></trkpt><trkpt lat="45.405196676154254" lon="10.717573454188503"><ele>63.99999999999999</ele><time>2026-04-08T12:53:26Z</time></trkpt><trkpt lat="45.4052788167672" lon="10.717518697408178"><ele>64.0</ele><time>2026-04-08T12:53:29Z</time></trkpt><trkpt lat="45.40534182111196" lon="10.717486440549086"><ele>64.0</ele><time>2026-04-08T12:53:32Z</time></trkpt><trkpt lat="45.40541612055418" lon="10.717451427087914"><ele>64.0</ele><time>2026-04-08T12:53:35Z</time></trkpt><trkpt lat="45.40547494369243" lon="10.71738116949229"><ele>63.99999999999999</ele><time>2026-04-08T12:53:38Z</time></trkpt><trkpt lat="45.40554289895757" lon="10.717305370442597"><ele>64.0</ele><time>2026-04-08T12:53:41Z</time></trkpt><trkpt lat="45.405622925558426" lon="10.717241534570245"><ele>64.57142857142857</ele><time>2026-04-08T12:53:43Z</time></trkpt><trkpt lat="45.405678965968534" lon="10.717166243227522"><ele>65.14285714285714</ele><time>2026-04-08T12:53:45Z</time></trkpt><trkpt lat="45.40574284549535" lon="10.717119247376733"><ele>65.71428571428571</ele><time>2026-04-08T12:53:47Z</time></trkpt><trkpt lat="45.40580250410093" lon="10.71706958503085"><ele>66.28571428571428</ele><time>2026-04-08T12:53:49Z</time></trkpt><trkpt lat="45.405854832633445" lon="10.71701646562967"><ele>66.85714285714286</ele><time>2026-04-08T12:53:51Z</time></trkpt><trkpt lat="45.405915108660864" lon="10.716988024879216"><ele>67.42857142857142</ele><time>2026-04-08T12:53:53Z</time></trkpt><trkpt lat="45.40599515944385" lon="10.71699263622115"><ele>68.0</ele><time>2026-04-08T12:53:55Z</time></trkpt><trkpt lat="45.40605484708344" lon="10.716926098713724"><ele>68.0</ele><time>2026-04-08T12:53:57Z</time></trkpt><trkpt lat="45.406141604189806" lon="10.7168883913885"><ele>68.0</ele><time>2026-04-08T12:54:00Z</time></trkpt><trkpt lat="45.406214036639746" lon="10.716898431187202"><ele>68.0</ele><time>2026-04-08T12:54:03Z</time></trkpt><trkpt lat="45.40628219743914" lon="10.71692109977871"><ele>68.0</ele><time>2026-04-08T12:54:16Z</time></trkpt><trkpt lat="45.406316968294426" lon="10.716820793046043"><ele>68.0</ele><time>2026-04-08T12:54:33Z</time></trkpt><trkpt lat="45.406373833287674" lon="10.716745521732747"><ele>68.0</ele><time>2026-04-08T12:54:35Z</time></trkpt><trkpt lat="45.406433089807045" lon="10.716671942180735"><ele>68.0</ele><time>2026-04-08T12:54:37Z</time></trkpt><trkpt lat="45.40649596354446" lon="10.716596063903731"><ele>68.0</ele><time>2026-04-08T12:54:39Z</time></trkpt><trkpt lat="45.40655201098978" lon="10.716528669885875"><ele>68.0</ele><time>2026-04-08T12:54:41Z</time></trkpt><trkpt lat="45.40664049511053" lon="10.7164902257498"><ele>68.0</ele><time>2026-04-08T12:54:44Z</time></trkpt><trkpt lat="45.40670035915942" lon="10.716449678720968"><ele>68.0</ele><time>2026-04-08T12:54:46Z</time></trkpt><trkpt lat="45.40676598383832" lon="10.716390893116696"><ele>68.0</ele><time>2026-04-08T12:54:48Z</time></trkpt><trkpt lat="45.40682840270356" lon="10.716347881266255"><ele>68.0</ele><time>2026-04-08T12:54:50Z</time></trkpt><trkpt lat="45.40691290954852" lon="10.716302945950902"><ele>68.0</ele><time>2026-04-08T12:54:52.999Z</time></trkpt><trkpt lat="45.40699715667816" lon="10.71626404890613"><ele>68.0</ele><time>2026-04-08T12:54:55.999Z</time></trkpt><trkpt lat="45.40707733169485" lon="10.716222150828727"><ele>68.0</ele><time>2026-04-08T12:54:58.999Z</time></trkpt><trkpt lat="45.40713933914611" lon="10.716182953710167"><ele>68.0</ele><time>2026-04-08T12:55:00.999Z</time></trkpt><trkpt lat="45.407194613517426" lon="10.71613708222524"><ele>68.0</ele><time>2026-04-08T12:55:02.999Z</time></trkpt><trkpt lat="45.40727106552184" lon="10.716068495830376"><ele>67.5</ele><time>2026-04-08T12:55:05.999Z</time></trkpt><trkpt lat="45.40735508880406" lon="10.716011547208813"><ele>67.0</ele><time>2026-04-08T12:55:08.999Z</time></trkpt><trkpt lat="45.407423699816135" lon="10.715987731217185"><ele>66.5</ele><time>2026-04-08T12:55:10.999Z</time></trkpt><trkpt lat="45.40751230952369" lon="10.715943234441019"><ele>66.0</ele><time>2026-04-08T12:55:13.999Z</time></trkpt><trkpt lat="45.40758619672367" lon="10.715926635982948"><ele>65.5</ele><time>2026-04-08T12:55:15.999Z</time></trkpt><trkpt lat="45.4076501719095" lon="10.715874275678802"><ele>65.0</ele><time>2026-04-08T12:55:17.999Z</time></trkpt><trkpt lat="45.40772523477995" lon="10.715840061223236"><ele>65.0</ele><time>2026-04-08T12:55:19.999Z</time></trkpt><trkpt lat="45.40778889734663" lon="10.715814200367104"><ele>65.0</ele><time>2026-04-08T12:55:21.999Z</time></trkpt><trkpt lat="45.40786092076782" lon="10.71581991554554"><ele>65.0</ele><time>2026-04-08T12:55:23.999Z</time></trkpt><trkpt lat="45.40793117442813" lon="10.715804835960231"><ele>65.0</ele><time>2026-04-08T12:55:25.999Z</time></trkpt><trkpt lat="45.40802694473854" lon="10.715798878613514"><ele>65.0</ele><time>2026-04-08T12:55:28.999Z</time></trkpt><trkpt lat="45.408097917252114" lon="10.715770518013798"><ele>65.0</ele><time>2026-04-08T12:55:30.999Z</time></trkpt><trkpt lat="45.408181849281696" lon="10.715748962330798"><ele>65.66666666666667</ele><time>2026-04-08T12:55:33.999Z</time></trkpt><trkpt lat="45.408256673989804" lon="10.715702319353388"><ele>66.33333333333334</ele><time>2026-04-08T12:55:35.999Z</time></trkpt><trkpt lat="45.40833220434479" lon="10.715659793268848"><ele>67.0</ele><time>2026-04-08T12:55:37.999Z</time></trkpt><trkpt lat="45.40840138119678" lon="10.715629503843191"><ele>67.66666666666667</ele><time>2026-04-08T12:55:39.999Z</time></trkpt><trkpt lat="45.40848425807735" lon="10.715600899697744"><ele>68.33333333333333</ele><time>2026-04-08T12:55:41.999Z</time></trkpt><trkpt lat="45.408559082163535" lon="10.715582303957836"><ele>69.0</ele><time>2026-04-08T12:55:43.999Z</time></trkpt><trkpt lat="45.408644554722045" lon="10.715555112542166"><ele>69.0</ele><time>2026-04-08T12:55:45.999Z</time></trkpt><trkpt lat="45.40874284256765" lon="10.715546693264455"><ele>69.0</ele><time>2026-04-08T12:55:47.999Z</time></trkpt><trkpt lat="45.408822073473466" lon="10.715530097083226"><ele>69.0</ele><time>2026-04-08T12:55:49.999Z</time></trkpt><trkpt lat="45.40890854409365" lon="10.715498239112742"><ele>69.0</ele><time>2026-04-08T12:55:51.999Z</time></trkpt><trkpt lat="45.40899812566441" lon="10.715476761734008"><ele>69.0</ele><time>2026-04-08T12:55:53.999Z</time></trkpt><trkpt lat="45.409086218720546" lon="10.715462945467406"><ele>69.0</ele><time>2026-04-08T12:55:55.999Z</time></trkpt><trkpt lat="45.40917721859141" lon="10.715436555985637"><ele>68.8</ele><time>2026-04-08T12:55:57.999Z</time></trkpt><trkpt lat="45.40928134188283" lon="10.715380826721637"><ele>68.60000000000001</ele><time>2026-04-08T12:55:59.999Z</time></trkpt><trkpt lat="45.4093651255161" lon="10.715341703403734"><ele>68.4</ele><time>2026-04-08T12:56:01.999Z</time></trkpt><trkpt lat="45.40943198219906" lon="10.715336813854318"><ele>68.2</ele><time>2026-04-08T12:56:02.999Z</time></trkpt><trkpt lat="45.40953615698587" lon="10.715310455972416"><ele>68.0</ele><time>2026-04-08T12:56:04.999Z</time></trkpt><trkpt lat="45.40962190301694" lon="10.715312981176584"><ele>67.5</ele><time>2026-04-08T12:56:06.999Z</time></trkpt><trkpt lat="45.409708021084185" lon="10.715299592819747"><ele>67.0</ele><time>2026-04-08T12:56:08.999Z</time></trkpt><trkpt lat="45.40978577364187" lon="10.715279861149762"><ele>66.5</ele><time>2026-04-08T12:56:10.999Z</time></trkpt><trkpt lat="45.40986987647605" lon="10.715266018951999"><ele>66.0</ele><time>2026-04-08T12:56:12.999Z</time></trkpt><trkpt lat="45.40995731202256" lon="10.715216516439067"><ele>65.5</ele><time>2026-04-08T12:56:14.999Z</time></trkpt><trkpt lat="45.41003521990418" lon="10.715171355633037"><ele>65.0</ele><time>2026-04-08T12:56:16.999Z</time></trkpt><trkpt lat="45.41011968697481" lon="10.715147888757963"><ele>65.8</ele><time>2026-04-08T12:56:18.999Z</time></trkpt><trkpt lat="45.4102171385575" lon="10.715132818320967"><ele>66.6</ele><time>2026-04-08T12:56:20.999Z</time></trkpt><trkpt lat="45.41031657589489" lon="10.715122295555059"><ele>67.4</ele><time>2026-04-08T12:56:22.999Z</time></trkpt><trkpt lat="45.41041207394659" lon="10.715102895793896"><ele>68.2</ele><time>2026-04-08T12:56:24.999Z</time></trkpt><trkpt lat="45.41050545844722" lon="10.71507912401638"><ele>69.0</ele><time>2026-04-08T12:56:26.999Z</time></trkpt><trkpt lat="45.41058449313933" lon="10.715027555413116"><ele>69.0</ele><time>2026-04-08T12:56:28.999Z</time></trkpt><trkpt lat="45.4106713454377" lon="10.714973716429675"><ele>69.0</ele><time>2026-04-08T12:56:30.999Z</time></trkpt><trkpt lat="45.41076808136113" lon="10.714941214330297"><ele>69.0</ele><time>2026-04-08T12:56:32.999Z</time></trkpt><trkpt lat="45.410868568064906" lon="10.714946931837442"><ele>69.0</ele><time>2026-04-08T12:56:34.999Z</time></trkpt><trkpt lat="45.410963096947455" lon="10.714958282764965"><ele>69.0</ele><time>2026-04-08T12:56:36.999Z</time></trkpt><trkpt lat="45.411066610373275" lon="10.714941554911354"><ele>69.0</ele><time>2026-04-08T12:56:38.999Z</time></trkpt><trkpt lat="45.411180143887066" lon="10.714908640878521"><ele>69.0</ele><time>2026-04-08T12:56:40.999Z</time></trkpt><trkpt lat="45.41129226272998" lon="10.71488527265775"><ele>69.0</ele><time>2026-04-08T12:56:42.999Z</time></trkpt><trkpt lat="45.4113774678417" lon="10.714856788811066"><ele>69.0</ele><time>2026-04-08T12:56:44.998Z</time></trkpt><trkpt lat="45.411467945834" lon="10.714821430308309"><ele>69.0</ele><time>2026-04-08T12:56:46.998Z</time></trkpt><trkpt lat="45.4115568520369" lon="10.714789500463525"><ele>68.5</ele><time>2026-04-08T12:56:48.998Z</time></trkpt><trkpt lat="45.41164358198744" lon="10.714747264707494"><ele>68.0</ele><time>2026-04-08T12:56:50.998Z</time></trkpt><trkpt lat="45.41172744220047" lon="10.714697666176672"><ele>67.5</ele><time>2026-04-08T12:56:52.998Z</time></trkpt><trkpt lat="45.41181762030021" lon="10.714666836845444"><ele>67.0</ele><time>2026-04-08T12:56:54.998Z</time></trkpt><trkpt lat="45.41188251734018" lon="10.714633872403232"><ele>66.5</ele><time>2026-04-08T12:56:56.998Z</time></trkpt><trkpt lat="45.41195532397302" lon="10.714598057446128"><ele>66.0</ele><time>2026-04-08T12:56:58.998Z</time></trkpt><trkpt lat="45.412026113855724" lon="10.714564873781635"><ele>66.0</ele><time>2026-04-08T12:57:00.998Z</time></trkpt><trkpt lat="45.41209121377844" lon="10.714509370282126"><ele>66.0</ele><time>2026-04-08T12:57:02.998Z</time></trkpt><trkpt lat="45.41216225882606" lon="10.71447364851682"><ele>66.0</ele><time>2026-04-08T12:57:04.998Z</time></trkpt><trkpt lat="45.412244312360684" lon="10.714445104420085"><ele>66.0</ele><time>2026-04-08T12:57:06.998Z</time></trkpt><trkpt lat="45.41234346498692" lon="10.714400432270411"><ele>66.0</ele><time>2026-04-08T12:57:08.998Z</time></trkpt><trkpt lat="45.41244787793968" lon="10.714377631524345"><ele>66.0</ele><time>2026-04-08T12:57:10.998Z</time></trkpt><trkpt lat="45.41252929932381" lon="10.714349455213746"><ele>66.83333333333333</ele><time>2026-04-08T12:57:12.998Z</time></trkpt><trkpt lat="45.41262001074825" lon="10.714328795946262"><ele>67.66666666666667</ele><time>2026-04-08T12:57:14.998Z</time></trkpt><trkpt lat="45.412695256930945" lon="10.714315489840097"><ele>68.5</ele><time>2026-04-08T12:57:16.998Z</time></trkpt><trkpt lat="45.41278011325204" lon="10.714312122217587"><ele>69.33333333333334</ele><time>2026-04-08T12:57:18.998Z</time></trkpt><trkpt lat="45.412868087906354" lon="10.714301821275562"><ele>70.16666666666667</ele><time>2026-04-08T12:57:20.998Z</time></trkpt><trkpt lat="45.41294854855823" lon="10.714286695193088"><ele>71.0</ele><time>2026-04-08T12:57:22.998Z</time></trkpt><trkpt lat="45.41302460988304" lon="10.714278897784748"><ele>71.0</ele><time>2026-04-08T12:57:24.998Z</time></trkpt><trkpt lat="45.41310724051707" lon="10.714275216711753"><ele>71.0</ele><time>2026-04-08T12:57:26.998Z</time></trkpt><trkpt lat="45.413186460855364" lon="10.714244824377083"><ele>71.0</ele><time>2026-04-08T12:57:28.998Z</time></trkpt><trkpt lat="45.413280492949546" lon="10.714226291870087"><ele>71.0</ele><time>2026-04-08T12:57:30.998Z</time></trkpt><trkpt lat="45.413363203565915" lon="10.714197456793027"><ele>71.0</ele><time>2026-04-08T12:57:32.998Z</time></trkpt><trkpt lat="45.41344499900403" lon="10.714176923980734"><ele>71.0</ele><time>2026-04-08T12:57:34.998Z</time></trkpt><trkpt lat="45.41352835727601" lon="10.714137173953281"><ele>71.0</ele><time>2026-04-08T12:57:36.998Z</time></trkpt><trkpt lat="45.413588581628304" lon="10.714090436573454"><ele>71.0</ele><time>2026-04-08T12:57:38.998Z</time></trkpt><trkpt lat="45.41365633939995" lon="10.71404845054297"><ele>71.0</ele><time>2026-04-08T12:57:40.998Z</time></trkpt><trkpt lat="45.41375839288039" lon="10.714016386974619"><ele>71.0</ele><time>2026-04-08T12:57:42.998Z</time></trkpt><trkpt lat="45.413827794727794" lon="10.71397302766246"><ele>71.0</ele><time>2026-04-08T12:57:44.998Z</time></trkpt><trkpt lat="45.41390802589185" lon="10.71394057374179"><ele>71.0</ele><time>2026-04-08T12:57:46.998Z</time></trkpt><trkpt lat="45.413985005867154" lon="10.713908863075632"><ele>71.2</ele><time>2026-04-08T12:57:48.998Z</time></trkpt><trkpt lat="45.41408487232938" lon="10.71387950833093"><ele>71.39999999999999</ele><time>2026-04-08T12:57:50.998Z</time></trkpt><trkpt lat="45.41417516841368" lon="10.713860542411597"><ele>71.6</ele><time>2026-04-08T12:57:52.998Z</time></trkpt><trkpt lat="45.414260099716856" lon="10.713826244474985"><ele>71.8</ele><time>2026-04-08T12:57:54.998Z</time></trkpt><trkpt lat="45.4143432960925" lon="10.713804664480069"><ele>72.0</ele><time>2026-04-08T12:57:56.998Z</time></trkpt><trkpt lat="45.4144307600847" lon="10.713783905855307"><ele>72.00000000000001</ele><time>2026-04-08T12:57:58.998Z</time></trkpt><trkpt lat="45.41450570815582" lon="10.713745574772826"><ele>72.0</ele><time>2026-04-08T12:58:00.998Z</time></trkpt><trkpt lat="45.414583153306566" lon="10.713716960409972"><ele>72.0</ele><time>2026-04-08T12:58:02.998Z</time></trkpt><trkpt lat="45.41465252516133" lon="10.713698998444864"><ele>72.0</ele><time>2026-04-08T12:58:04.998Z</time></trkpt><trkpt lat="45.414714211037634" lon="10.713674158985572"><ele>72.0</ele><time>2026-04-08T12:58:06.998Z</time></trkpt><trkpt lat="45.414782320287095" lon="10.713667521560602"><ele>72.00000000000001</ele><time>2026-04-08T12:58:08.998Z</time></trkpt><trkpt lat="45.414852021252294" lon="10.713706937795866"><ele>72.0</ele><time>2026-04-08T12:58:11.998Z</time></trkpt><trkpt lat="45.41488036068768" lon="10.713831906254136"><ele>72.0</ele><time>2026-04-08T12:58:14.998Z</time></trkpt><trkpt lat="45.41487710412946" lon="10.713940578808598"><ele>72.0</ele><time>2026-04-08T12:58:16.998Z</time></trkpt><trkpt lat="45.414878821575144" lon="10.714060996480717"><ele>72.0</ele><time>2026-04-08T12:58:18.998Z</time></trkpt><trkpt lat="45.41486347268267" lon="10.714203611922485"><ele>72.0</ele><time>2026-04-08T12:58:20.998Z</time></trkpt><trkpt lat="45.41484780567212" lon="10.714365068599772"><ele>72.0</ele><time>2026-04-08T12:58:22.998Z</time></trkpt><trkpt lat="45.414846035138225" lon="10.714478334786955"><ele>71.33333333333333</ele><time>2026-04-08T12:58:23.998Z</time></trkpt><trkpt lat="45.414836988182486" lon="10.71465912773456"><ele>70.66666666666667</ele><time>2026-04-08T12:58:25.998Z</time></trkpt><trkpt lat="45.414833341294965" lon="10.714757709763106"><ele>70.0</ele><time>2026-04-08T12:58:26.998Z</time></trkpt><trkpt lat="45.41483468359431" lon="10.714860399552657"><ele>69.33333333333334</ele><time>2026-04-08T12:58:27.998Z</time></trkpt><trkpt lat="45.41483345917136" lon="10.714953090520769"><ele>68.66666666666667</ele><time>2026-04-08T12:58:28.998Z</time></trkpt><trkpt lat="45.41483097131098" lon="10.71505608418342"><ele>68.0</ele><time>2026-04-08T12:58:29.998Z</time></trkpt><trkpt lat="45.4148279928068" lon="10.715162941431627"><ele>68.16666666666667</ele><time>2026-04-08T12:58:30.998Z</time></trkpt><trkpt lat="45.414823866179844" lon="10.715271862854786"><ele>68.33333333333334</ele><time>2026-04-08T12:58:31.998Z</time></trkpt><trkpt lat="45.414818806854704" lon="10.71536177431041"><ele>68.5</ele><time>2026-04-08T12:58:32.998Z</time></trkpt><trkpt lat="45.414834093198785" lon="10.715484100067515"><ele>68.66666666666667</ele><time>2026-04-08T12:58:34.998Z</time></trkpt><trkpt lat="45.41486673966804" lon="10.715597427210303"><ele>68.83333333333333</ele><time>2026-04-08T12:58:36.998Z</time></trkpt><trkpt lat="45.41494056271327" lon="10.715647970060726"><ele>69.0</ele><time>2026-04-08T12:58:38.998Z</time></trkpt><trkpt lat="45.415004884051584" lon="10.715666260720813"><ele>69.0</ele><time>2026-04-08T12:58:39.998Z</time></trkpt><trkpt lat="45.41507364413294" lon="10.715696114559007"><ele>69.0</ele><time>2026-04-08T12:58:40.998Z</time></trkpt><trkpt lat="45.415200723430054" lon="10.715678859698205"><ele>69.0</ele><time>2026-04-08T12:58:42.998Z</time></trkpt><trkpt lat="45.41530580907601" lon="10.71566678983869"><ele>69.0</ele><time>2026-04-08T12:58:45Z</time></trkpt><trkpt lat="45.41536975799265" lon="10.715661664928296"><ele>69.0</ele><time>2026-04-08T12:58:46Z</time></trkpt><trkpt lat="45.41544083543441" lon="10.71565532542769"><ele>69.0</ele><time>2026-04-08T12:58:47Z</time></trkpt><trkpt lat="45.4155555731543" lon="10.71562892056531"><ele>69.0</ele><time>2026-04-08T12:58:49Z</time></trkpt><trkpt lat="45.4156679073493" lon="10.715596228770321"><ele>69.0</ele><time>2026-04-08T12:58:51Z</time></trkpt><trkpt lat="45.41579279528651" lon="10.715565803765992"><ele>69.0</ele><time>2026-04-08T12:58:53Z</time></trkpt><trkpt lat="45.415879157965506" lon="10.715517544903374"><ele>69.0</ele><time>2026-04-08T12:58:55Z</time></trkpt><trkpt lat="45.415975321833834" lon="10.715465095195452"><ele>69.0</ele><time>2026-04-08T12:58:57Z</time></trkpt><trkpt lat="45.41606626856457" lon="10.715402807001242"><ele>69.0</ele><time>2026-04-08T12:58:59Z</time></trkpt><trkpt lat="45.416166591857134" lon="10.715350094325846"><ele>69.0</ele><time>2026-04-08T12:59:01Z</time></trkpt><trkpt lat="45.41626442596996" lon="10.715292340240232"><ele>69.0</ele><time>2026-04-08T12:59:03Z</time></trkpt><trkpt lat="45.41637911672919" lon="10.715227254854875"><ele>69.0</ele><time>2026-04-08T12:59:05Z</time></trkpt><trkpt lat="45.41646638974752" lon="10.715151883625644"><ele>69.0</ele><time>2026-04-08T12:59:07Z</time></trkpt><trkpt lat="45.416544007519924" lon="10.715083996852035"><ele>68.60000000000001</ele><time>2026-04-08T12:59:09Z</time></trkpt><trkpt lat="45.41664857758313" lon="10.714980313949326"><ele>68.2</ele><time>2026-04-08T12:59:11Z</time></trkpt><trkpt lat="45.41674166209281" lon="10.714885076934593"><ele>67.80000000000001</ele><time>2026-04-08T12:59:13Z</time></trkpt><trkpt lat="45.41679420994614" lon="10.714828463483855"><ele>67.4</ele><time>2026-04-08T12:59:14Z</time></trkpt><trkpt lat="45.41684523383932" lon="10.714764517904129"><ele>67.0</ele><time>2026-04-08T12:59:15Z</time></trkpt><trkpt lat="45.41693771297812" lon="10.7146519092908"><ele>67.0</ele><time>2026-04-08T12:59:17Z</time></trkpt><trkpt lat="45.41700257835554" lon="10.714594847039832"><ele>67.0</ele><time>2026-04-08T12:59:18Z</time></trkpt><trkpt lat="45.417100189792194" lon="10.714487962716735"><ele>67.0</ele><time>2026-04-08T12:59:20Z</time></trkpt><trkpt lat="45.41718728039009" lon="10.714369689968326"><ele>67.0</ele><time>2026-04-08T12:59:22Z</time></trkpt><trkpt lat="45.417237105749166" lon="10.714307015477653"><ele>67.0</ele><time>2026-04-08T12:59:23Z</time></trkpt><trkpt lat="45.41733663805125" lon="10.714194698376707"><ele>67.25</ele><time>2026-04-08T12:59:25Z</time></trkpt><trkpt lat="45.41740872208423" lon="10.714082392431406"><ele>67.5</ele><time>2026-04-08T12:59:27Z</time></trkpt><trkpt lat="45.41749784172198" lon="10.713957532980823"><ele>67.75</ele><time>2026-04-08T12:59:29Z</time></trkpt><trkpt lat="45.41756849704864" lon="10.713827048119558"><ele>68.0</ele><time>2026-04-08T12:59:31Z</time></trkpt><trkpt lat="45.417650148203656" lon="10.713707487265363"><ele>68.5</ele><time>2026-04-08T12:59:33Z</time></trkpt><trkpt lat="45.417707273301154" lon="10.71356482374067"><ele>69.0</ele><time>2026-04-08T12:59:35Z</time></trkpt><trkpt lat="45.41776463645522" lon="10.713433742964064"><ele>69.5</ele><time>2026-04-08T12:59:37Z</time></trkpt><trkpt lat="45.41782575468134" lon="10.71328494398745"><ele>70.0</ele><time>2026-04-08T12:59:39Z</time></trkpt><trkpt lat="45.41788671971042" lon="10.713131825627366"><ele>70.0</ele><time>2026-04-08T12:59:41Z</time></trkpt><trkpt lat="45.417920704684896" lon="10.713040995835955"><ele>70.0</ele><time>2026-04-08T12:59:42Z</time></trkpt><trkpt lat="45.41794731315307" lon="10.712956455257801"><ele>70.0</ele><time>2026-04-08T12:59:43Z</time></trkpt><trkpt lat="45.41798322443145" lon="10.71286054746678"><ele>70.0</ele><time>2026-04-08T12:59:44Z</time></trkpt><trkpt lat="45.418012083450655" lon="10.712759226186659"><ele>70.0</ele><time>2026-04-08T12:59:45Z</time></trkpt><trkpt lat="45.41804275630785" lon="10.712667386744252"><ele>70.0</ele><time>2026-04-08T12:59:46Z</time></trkpt><trkpt lat="45.41807219219654" lon="10.712581509050008"><ele>70.0</ele><time>2026-04-08T12:59:47Z</time></trkpt><trkpt lat="45.41811540899694" lon="10.712436879690298"><ele>70.6</ele><time>2026-04-08T12:59:49Z</time></trkpt><trkpt lat="45.41815221740478" lon="10.712279113351842"><ele>71.2</ele><time>2026-04-08T12:59:51Z</time></trkpt><trkpt lat="45.41818434129022" lon="10.712086565119398"><ele>71.8</ele><time>2026-04-08T12:59:53Z</time></trkpt><trkpt lat="45.418210842760224" lon="10.711983737087353"><ele>72.4</ele><time>2026-04-08T12:59:54Z</time></trkpt><trkpt lat="45.418238558064445" lon="10.711823013856574"><ele>73.0</ele><time>2026-04-08T12:59:56Z</time></trkpt><trkpt lat="45.41824996008124" lon="10.711675744991657"><ele>73.0</ele><time>2026-04-08T12:59:58Z</time></trkpt><trkpt lat="45.4182603218468" lon="10.71152539857715"><ele>73.0</ele><time>2026-04-08T13:00:00Z</time></trkpt><trkpt lat="45.41829436948133" lon="10.711361781929488"><ele>73.0</ele><time>2026-04-08T13:00:02Z</time></trkpt><trkpt lat="45.41834010113937" lon="10.711181405424687"><ele>73.0</ele><time>2026-04-08T13:00:04Z</time></trkpt><trkpt lat="45.41836606837328" lon="10.711090766132042"><ele>73.0</ele><time>2026-04-08T13:00:05Z</time></trkpt><trkpt lat="45.41838804581022" lon="10.71099873360572"><ele>73.83333333333333</ele><time>2026-04-08T13:00:06Z</time></trkpt><trkpt lat="45.418425630288596" lon="10.710807662679528"><ele>74.66666666666666</ele><time>2026-04-08T13:00:08Z</time></trkpt><trkpt lat="45.41844847352475" lon="10.710723505569058"><ele>75.5</ele><time>2026-04-08T13:00:09Z</time></trkpt><trkpt lat="45.418473732106676" lon="10.710581150318678"><ele>76.33333333333333</ele><time>2026-04-08T13:00:11Z</time></trkpt><trkpt lat="45.41848911925061" lon="10.71049248528335"><ele>77.16666666666667</ele><time>2026-04-08T13:00:12Z</time></trkpt><trkpt lat="45.41850294765871" lon="10.710403302467174"><ele>78.0</ele><time>2026-04-08T13:00:13Z</time></trkpt><trkpt lat="45.41854278145648" lon="10.710221784916314"><ele>78.5</ele><time>2026-04-08T13:00:15Z</time></trkpt><trkpt lat="45.41858012780762" lon="10.710067378843295"><ele>79.0</ele><time>2026-04-08T13:00:17Z</time></trkpt><trkpt lat="45.41859838053016" lon="10.709973308864074"><ele>79.5</ele><time>2026-04-08T13:00:18Z</time></trkpt><trkpt lat="45.418615517981266" lon="10.709872923525472"><ele>80.0</ele><time>2026-04-08T13:00:19Z</time></trkpt><trkpt lat="45.418634064617166" lon="10.709766084040243"><ele>80.5</ele><time>2026-04-08T13:00:20Z</time></trkpt><trkpt lat="45.418654812964" lon="10.709676972438412"><ele>81.0</ele><time>2026-04-08T13:00:21Z</time></trkpt><trkpt lat="45.418694875205475" lon="10.709508927662961"><ele>81.16666666666667</ele><time>2026-04-08T13:00:23Z</time></trkpt><trkpt lat="45.41872509548689" lon="10.709341241398974"><ele>81.33333333333333</ele><time>2026-04-08T13:00:25Z</time></trkpt><trkpt lat="45.41873432117312" lon="10.709241558548687"><ele>81.5</ele><time>2026-04-08T13:00:26Z</time></trkpt><trkpt lat="45.41874202804446" lon="10.709122608030775"><ele>81.66666666666666</ele><time>2026-04-08T13:00:27Z</time></trkpt><trkpt lat="45.41875187851534" lon="10.709021834541026"><ele>81.83333333333333</ele><time>2026-04-08T13:00:28Z</time></trkpt><trkpt lat="45.418758624043825" lon="10.708926357361456"><ele>82.0</ele><time>2026-04-08T13:00:29Z</time></trkpt><trkpt lat="45.41878122688579" lon="10.70884248312371"><ele>79.8</ele><time>2026-04-08T13:00:30Z</time></trkpt><trkpt lat="45.41882668527864" lon="10.708676929802733"><ele>77.6</ele><time>2026-04-08T13:00:32Z</time></trkpt><trkpt lat="45.41884960032948" lon="10.708568391356708"><ele>75.39999999999999</ele><time>2026-04-08T13:00:33Z</time></trkpt><trkpt lat="45.418881455938674" lon="10.708402657014716"><ele>73.19999999999999</ele><time>2026-04-08T13:00:35Z</time></trkpt><trkpt lat="45.41889387020731" lon="10.708311913253105"><ele>71.0</ele><time>2026-04-08T13:00:36Z</time></trkpt><trkpt lat="45.41892090969846" lon="10.708152127959847"><ele>71.0</ele><time>2026-04-08T13:00:37.999Z</time></trkpt><trkpt lat="45.41894951523381" lon="10.7079910565061"><ele>71.0</ele><time>2026-04-08T13:00:39.999Z</time></trkpt><trkpt lat="45.41896342577572" lon="10.707898545271702"><ele>71.0</ele><time>2026-04-08T13:00:40.999Z</time></trkpt><trkpt lat="45.41900500576022" lon="10.707727452355524"><ele>71.0</ele><time>2026-04-08T13:00:42.999Z</time></trkpt><trkpt lat="45.41902074492633" lon="10.707637961413257"><ele>71.0</ele><time>2026-04-08T13:00:43.999Z</time></trkpt><trkpt lat="45.419042651687725" lon="10.707533704073514"><ele>71.0</ele><time>2026-04-08T13:00:44.999Z</time></trkpt><trkpt lat="45.419078431594535" lon="10.707360839184377"><ele>71.0</ele><time>2026-04-08T13:00:46.999Z</time></trkpt><trkpt lat="45.41910063442751" lon="10.707263543721515"><ele>71.0</ele><time>2026-04-08T13:00:47.999Z</time></trkpt><trkpt lat="45.41912463192919" lon="10.707176364289566"><ele>71.0</ele><time>2026-04-08T13:00:48.999Z</time></trkpt><trkpt lat="45.41914505474072" lon="10.707083464747766"><ele>71.0</ele><time>2026-04-08T13:00:49.999Z</time></trkpt><trkpt lat="45.41916806487695" lon="10.706910543901866"><ele>70.6</ele><time>2026-04-08T13:00:51.999Z</time></trkpt><trkpt lat="45.41919849917057" lon="10.706740836933026"><ele>70.19999999999999</ele><time>2026-04-08T13:00:53.999Z</time></trkpt><trkpt lat="45.41923190335562" lon="10.706565541332717"><ele>69.80000000000001</ele><time>2026-04-08T13:00:55.999Z</time></trkpt><trkpt lat="45.41924131975713" lon="10.706463593067712"><ele>69.4</ele><time>2026-04-08T13:00:56.999Z</time></trkpt><trkpt lat="45.41925707103051" lon="10.706353319683457"><ele>69.0</ele><time>2026-04-08T13:00:57.999Z</time></trkpt><trkpt lat="45.419273960405235" lon="10.706256411641053"><ele>69.0</ele><time>2026-04-08T13:00:58.999Z</time></trkpt><trkpt lat="45.41932379805772" lon="10.706091375171228"><ele>69.0</ele><time>2026-04-08T13:01:00.999Z</time></trkpt><trkpt lat="45.41935017785391" lon="10.705988443983028"><ele>69.0</ele><time>2026-04-08T13:01:01.999Z</time></trkpt><trkpt lat="45.41937178974432" lon="10.705880062564223"><ele>69.0</ele><time>2026-04-08T13:01:02.999Z</time></trkpt><trkpt lat="45.41940194230353" lon="10.705713864277078"><ele>69.0</ele><time>2026-04-08T13:01:04.999Z</time></trkpt><trkpt lat="45.41941509118647" lon="10.70562593107665"><ele>69.0</ele><time>2026-04-08T13:01:05.999Z</time></trkpt><trkpt lat="45.41943187785696" lon="10.705537893631769"><ele>69.0</ele><time>2026-04-08T13:01:06.999Z</time></trkpt><trkpt lat="45.41944863787426" lon="10.705437177326223"><ele>69.0</ele><time>2026-04-08T13:01:07.999Z</time></trkpt><trkpt lat="45.419505146986644" lon="10.705284384812492"><ele>69.0</ele><time>2026-04-08T13:01:09.999Z</time></trkpt><trkpt lat="45.41952864339192" lon="10.705196527741867"><ele>69.0</ele><time>2026-04-08T13:01:10.999Z</time></trkpt><trkpt lat="45.41954624224841" lon="10.705104265540292"><ele>69.0</ele><time>2026-04-08T13:01:11.999Z</time></trkpt><trkpt lat="45.41957129241169" lon="10.705013739329727"><ele>68.83333333333333</ele><time>2026-04-08T13:01:12.999Z</time></trkpt><trkpt lat="45.419595906590565" lon="10.70491755478442"><ele>68.66666666666667</ele><time>2026-04-08T13:01:13.999Z</time></trkpt><trkpt lat="45.4196396816478" lon="10.70474972920902"><ele>68.5</ele><time>2026-04-08T13:01:15.999Z</time></trkpt><trkpt lat="45.41966703715615" lon="10.704666289891094"><ele>68.33333333333334</ele><time>2026-04-08T13:01:16.999Z</time></trkpt><trkpt lat="45.41969332431624" lon="10.704581887978302"><ele>68.16666666666667</ele><time>2026-04-08T13:01:17.999Z</time></trkpt><trkpt lat="45.419720374636746" lon="10.704493713193314"><ele>68.0</ele><time>2026-04-08T13:01:18.999Z</time></trkpt><trkpt lat="45.41975199908893" lon="10.704401659847683"><ele>67.83333333333334</ele><time>2026-04-08T13:01:19.999Z</time></trkpt><trkpt lat="45.419784592902325" lon="10.70430664894716"><ele>67.66666666666667</ele><time>2026-04-08T13:01:20.999Z</time></trkpt><trkpt lat="45.419812713892995" lon="10.704210439816029"><ele>67.5</ele><time>2026-04-08T13:01:21.999Z</time></trkpt><trkpt lat="45.41984740287345" lon="10.704118311151863"><ele>67.33333333333333</ele><time>2026-04-08T13:01:22.999Z</time></trkpt><trkpt lat="45.41990303228125" lon="10.70396204308815"><ele>67.16666666666666</ele><time>2026-04-08T13:01:24.999Z</time></trkpt><trkpt lat="45.41993364458926" lon="10.703881448568676"><ele>67.0</ele><time>2026-04-08T13:01:25.999Z</time></trkpt><trkpt lat="45.41996689391218" lon="10.70380146020595"><ele>67.0</ele><time>2026-04-08T13:01:26.999Z</time></trkpt><trkpt lat="45.42001242125719" lon="10.703731555471567"><ele>67.0</ele><time>2026-04-08T13:01:27.999Z</time></trkpt><trkpt lat="45.42004961076327" lon="10.7036543668144"><ele>67.0</ele><time>2026-04-08T13:01:28.999Z</time></trkpt><trkpt lat="45.42012812021755" lon="10.703500992342992"><ele>67.0</ele><time>2026-04-08T13:01:30.999Z</time></trkpt><trkpt lat="45.42016655325472" lon="10.703424614507735"><ele>67.0</ele><time>2026-04-08T13:01:31.999Z</time></trkpt><trkpt lat="45.42021009619714" lon="10.703350887742626"><ele>67.0</ele><time>2026-04-08T13:01:32.999Z</time></trkpt><trkpt lat="45.42028760625015" lon="10.70321290054648"><ele>67.2</ele><time>2026-04-08T13:01:34.999Z</time></trkpt><trkpt lat="45.420333000492676" lon="10.703138943966504"><ele>67.4</ele><time>2026-04-08T13:01:35.999Z</time></trkpt><trkpt lat="45.420368718610824" lon="10.703057785027246"><ele>67.6</ele><time>2026-04-08T13:01:36.999Z</time></trkpt><trkpt lat="45.42041657870855" lon="10.702977847863702"><ele>67.8</ele><time>2026-04-08T13:01:37.999Z</time></trkpt><trkpt lat="45.42049533910952" lon="10.702847724428016"><ele>68.0</ele><time>2026-04-08T13:01:39.999Z</time></trkpt><trkpt lat="45.42058330296938" lon="10.702705714573096"><ele>67.2</ele><time>2026-04-08T13:01:41.999Z</time></trkpt><trkpt lat="45.42066699320615" lon="10.702569056217365"><ele>66.4</ele><time>2026-04-08T13:01:43.999Z</time></trkpt><trkpt lat="45.42075853076933" lon="10.702447071486088"><ele>65.60000000000001</ele><time>2026-04-08T13:01:45.999Z</time></trkpt><trkpt lat="45.420808301148966" lon="10.702384039759426"><ele>64.8</ele><time>2026-04-08T13:01:46.999Z</time></trkpt><trkpt lat="45.42089237876805" lon="10.70226067446352"><ele>64.0</ele><time>2026-04-08T13:01:48.999Z</time></trkpt><trkpt lat="45.420973931287314" lon="10.702161835691276"><ele>64.0</ele><time>2026-04-08T13:01:50.999Z</time></trkpt><trkpt lat="45.421048682457645" lon="10.702050855939731"><ele>64.0</ele><time>2026-04-08T13:01:52.999Z</time></trkpt><trkpt lat="45.42109165439682" lon="10.701982656558107"><ele>64.0</ele><time>2026-04-08T13:01:53.999Z</time></trkpt><trkpt lat="45.421141191271495" lon="10.701920646743577"><ele>64.0</ele><time>2026-04-08T13:01:54.999Z</time></trkpt><trkpt lat="45.421244396769396" lon="10.701792650171003"><ele>64.0</ele><time>2026-04-08T13:01:56.999Z</time></trkpt><trkpt lat="45.421334046782036" lon="10.701696473239052"><ele>64.0</ele><time>2026-04-08T13:01:58.999Z</time></trkpt><trkpt lat="45.42143351709151" lon="10.701575190831841"><ele>64.0</ele><time>2026-04-08T13:02:00.999Z</time></trkpt><trkpt lat="45.42148831885256" lon="10.701522402119322"><ele>64.0</ele><time>2026-04-08T13:02:01.999Z</time></trkpt><trkpt lat="45.42158661445949" lon="10.701425796059393"><ele>64.0</ele><time>2026-04-08T13:02:03.999Z</time></trkpt><trkpt lat="45.421657291108716" lon="10.701375153874917"><ele>64.0</ele><time>2026-04-08T13:02:04.999Z</time></trkpt><trkpt lat="45.421764664824686" lon="10.701264651844202"><ele>64.0</ele><time>2026-04-08T13:02:06.999Z</time></trkpt><trkpt lat="45.421855618833185" lon="10.701161166646834"><ele>64.0</ele><time>2026-04-08T13:02:08.999Z</time></trkpt><trkpt lat="45.42194821616141" lon="10.701068274990902"><ele>64.0</ele><time>2026-04-08T13:02:10.999Z</time></trkpt><trkpt lat="45.42204601766503" lon="10.700993718970738"><ele>64.0</ele><time>2026-04-08T13:02:12.999Z</time></trkpt><trkpt lat="45.42215086002515" lon="10.700923105177363"><ele>65.0</ele><time>2026-04-08T13:02:14.999Z</time></trkpt><trkpt lat="45.42223193362839" lon="10.700856821674298"><ele>66.0</ele><time>2026-04-08T13:02:16.999Z</time></trkpt><trkpt lat="45.42234132089142" lon="10.700786914759444"><ele>67.0</ele><time>2026-04-08T13:02:18.999Z</time></trkpt><trkpt lat="45.42242198138351" lon="10.700736263423382"><ele>68.0</ele><time>2026-04-08T13:02:20.999Z</time></trkpt><trkpt lat="45.42251985532182" lon="10.700685432107239"><ele>69.0</ele><time>2026-04-08T13:02:22.999Z</time></trkpt><trkpt lat="45.42257525669935" lon="10.700638317025508"><ele>69.0</ele><time>2026-04-08T13:02:24.999Z</time></trkpt><trkpt lat="45.422682546969945" lon="10.700587402472996"><ele>69.0</ele><time>2026-04-08T13:02:26.999Z</time></trkpt><trkpt lat="45.42276838672595" lon="10.70055585939133"><ele>69.0</ele><time>2026-04-08T13:02:27.999Z</time></trkpt><trkpt lat="45.42287652382134" lon="10.700499110763383"><ele>69.0</ele><time>2026-04-08T13:02:29.999Z</time></trkpt><trkpt lat="45.42298497170251" lon="10.700425764873453"><ele>69.0</ele><time>2026-04-08T13:02:31.999Z</time></trkpt><trkpt lat="45.42308393381835" lon="10.700366022683232"><ele>68.0</ele><time>2026-04-08T13:02:33.999Z</time></trkpt><trkpt lat="45.42316096885748" lon="10.700322553365458"><ele>67.0</ele><time>2026-04-08T13:02:34.999Z</time></trkpt><trkpt lat="45.42327384890965" lon="10.7002654597142"><ele>66.0</ele><time>2026-04-08T13:02:36.999Z</time></trkpt><trkpt lat="45.42339081054156" lon="10.700220101660936"><ele>65.0</ele><time>2026-04-08T13:02:38.999Z</time></trkpt><trkpt lat="45.423470352850636" lon="10.70019764432094"><ele>64.0</ele><time>2026-04-08T13:02:39.999Z</time></trkpt><trkpt lat="45.42356277244732" lon="10.70017338348698"><ele>64.0</ele><time>2026-04-08T13:02:41.999Z</time></trkpt><trkpt lat="45.42366309914524" lon="10.700131746143366"><ele>64.0</ele><time>2026-04-08T13:02:43.999Z</time></trkpt><trkpt lat="45.42374755768749" lon="10.700072634695386"><ele>64.0</ele><time>2026-04-08T13:02:45.999Z</time></trkpt><trkpt lat="45.423867780549955" lon="10.700028961112352"><ele>64.0</ele><time>2026-04-08T13:02:47.999Z</time></trkpt><trkpt lat="45.42397030345557" lon="10.700007013153122"><ele>64.0</ele><time>2026-04-08T13:02:49.999Z</time></trkpt><trkpt lat="45.42408339285189" lon="10.700000051034076"><ele>63.49999999999999</ele><time>2026-04-08T13:02:51.999Z</time></trkpt><trkpt lat="45.42420066116047" lon="10.699978871037095"><ele>63.0</ele><time>2026-04-08T13:02:53.999Z</time></trkpt><trkpt lat="45.424274490244784" lon="10.699968259620743"><ele>62.5</ele><time>2026-04-08T13:02:54.999Z</time></trkpt><trkpt lat="45.42434807893144" lon="10.699960187905498"><ele>62.0</ele><time>2026-04-08T13:02:55.999Z</time></trkpt><trkpt lat="45.42442071621874" lon="10.699954267493654"><ele>61.49999999999999</ele><time>2026-04-08T13:02:56.999Z</time></trkpt><trkpt lat="45.424485421544816" lon="10.699965126811193"><ele>61.0</ele><time>2026-04-08T13:02:57.999Z</time></trkpt><trkpt lat="45.424549167784555" lon="10.699970740147048"><ele>60.99999999999999</ele><time>2026-04-08T13:02:58.999Z</time></trkpt><trkpt lat="45.424615783196174" lon="10.699975432436789"><ele>61.0</ele><time>2026-04-08T13:02:59.999Z</time></trkpt><trkpt lat="45.42468482365854" lon="10.699973335140895"><ele>61.0</ele><time>2026-04-08T13:03:00.999Z</time></trkpt><trkpt lat="45.424817715845805" lon="10.699964926479815"><ele>61.0</ele><time>2026-04-08T13:03:02.999Z</time></trkpt><trkpt lat="45.42488308649795" lon="10.699951756403278"><ele>60.99999999999999</ele><time>2026-04-08T13:03:03.999Z</time></trkpt><trkpt lat="45.424968763215446" lon="10.69994697309175"><ele>61.0</ele><time>2026-04-08T13:03:04.999Z</time></trkpt><trkpt lat="45.425032006453485" lon="10.699951168672731"><ele>61.83333333333333</ele><time>2026-04-08T13:03:05.999Z</time></trkpt><trkpt lat="45.42510006532587" lon="10.699958821677631"><ele>62.666666666666664</ele><time>2026-04-08T13:03:06.999Z</time></trkpt><trkpt lat="45.42516463041698" lon="10.699969491274397"><ele>63.5</ele><time>2026-04-08T13:03:07.999Z</time></trkpt><trkpt lat="45.4252902056199" lon="10.699970512956174"><ele>64.33333333333333</ele><time>2026-04-08T13:03:09.999Z</time></trkpt><trkpt lat="45.42537080792105" lon="10.699974959269145"><ele>65.16666666666667</ele><time>2026-04-08T13:03:10.999Z</time></trkpt><trkpt lat="45.42544357797466" lon="10.699986826153973"><ele>66.0</ele><time>2026-04-08T13:03:11.999Z</time></trkpt><trkpt lat="45.42551435815034" lon="10.700001361432832"><ele>66.0</ele><time>2026-04-08T13:03:12.999Z</time></trkpt><trkpt lat="45.4255803813141" lon="10.70000937818472"><ele>66.0</ele><time>2026-04-08T13:03:13.999Z</time></trkpt><trkpt lat="45.42564747419859" lon="10.700016226345229"><ele>66.0</ele><time>2026-04-08T13:03:14.999Z</time></trkpt><trkpt lat="45.425715870763874" lon="10.700014826461771"><ele>66.0</ele><time>2026-04-08T13:03:15.999Z</time></trkpt><trkpt lat="45.425782232979934" lon="10.700017710321195"><ele>66.0</ele><time>2026-04-08T13:03:16.999Z</time></trkpt><trkpt lat="45.425854054123285" lon="10.700032381690333"><ele>66.0</ele><time>2026-04-08T13:03:17.999Z</time></trkpt><trkpt lat="45.42592341714106" lon="10.70004373241521"><ele>66.0</ele><time>2026-04-08T13:03:18.999Z</time></trkpt><trkpt lat="45.42598653323149" lon="10.700056528064556"><ele>66.0</ele><time>2026-04-08T13:03:19.999Z</time></trkpt><trkpt lat="45.42605815813421" lon="10.700062287313035"><ele>66.0</ele><time>2026-04-08T13:03:20.999Z</time></trkpt><trkpt lat="45.426123733223235" lon="10.700067294976366"><ele>66.0</ele><time>2026-04-08T13:03:21.999Z</time></trkpt><trkpt lat="45.42619041091907" lon="10.70007168513741"><ele>66.0</ele><time>2026-04-08T13:03:22.999Z</time></trkpt><trkpt lat="45.42631981059405" lon="10.700080223423967"><ele>66.0</ele><time>2026-04-08T13:03:24.999Z</time></trkpt><trkpt lat="45.42644005529558" lon="10.700099167148297"><ele>66.0</ele><time>2026-04-08T13:03:26.999Z</time></trkpt><trkpt lat="45.4265494370698" lon="10.700103294972818"><ele>66.0</ele><time>2026-04-08T13:03:28.999Z</time></trkpt><trkpt lat="45.42661784699321" lon="10.700104652896076"><ele>66.0</ele><time>2026-04-08T13:03:29.999Z</time></trkpt><trkpt lat="45.426687246601745" lon="10.700114959119254"><ele>66.0</ele><time>2026-04-08T13:03:30.999Z</time></trkpt><trkpt lat="45.42682681318489" lon="10.700119154026414"><ele>66.0</ele><time>2026-04-08T13:03:32.999Z</time></trkpt><trkpt lat="45.42694623641264" lon="10.700141371689709"><ele>66.0</ele><time>2026-04-08T13:03:34.999Z</time></trkpt><trkpt lat="45.42705265150496" lon="10.70015399318912"><ele>66.0</ele><time>2026-04-08T13:03:36.999Z</time></trkpt><trkpt lat="45.42717156360323" lon="10.700152541167183"><ele>66.0</ele><time>2026-04-08T13:03:38.999Z</time></trkpt><trkpt lat="45.427234851142536" lon="10.700154720827564"><ele>66.0</ele><time>2026-04-08T13:03:39.999Z</time></trkpt><trkpt lat="45.4273572752435" lon="10.70018611101695"><ele>66.0</ele><time>2026-04-08T13:03:41.999Z</time></trkpt><trkpt lat="45.4274236809401" lon="10.700209049645974"><ele>66.39999999999999</ele><time>2026-04-08T13:03:42.999Z</time></trkpt><trkpt lat="45.427485661506175" lon="10.700228881454652"><ele>66.8</ele><time>2026-04-08T13:03:43.999Z</time></trkpt><trkpt lat="45.42758611667244" lon="10.700231138506737"><ele>67.19999999999999</ele><time>2026-04-08T13:03:45.999Z</time></trkpt><trkpt lat="45.427698954668024" lon="10.70024438708737"><ele>67.6</ele><time>2026-04-08T13:03:47.999Z</time></trkpt><trkpt lat="45.427817487032705" lon="10.700257814876702"><ele>68.0</ele><time>2026-04-08T13:03:49.999Z</time></trkpt><trkpt lat="45.42788086339187" lon="10.700270263545425"><ele>67.4</ele><time>2026-04-08T13:03:50.999Z</time></trkpt><trkpt lat="45.42797265728518" lon="10.700271345273892"><ele>66.8</ele><time>2026-04-08T13:03:52.999Z</time></trkpt><trkpt lat="45.42808060639511" lon="10.700287010466472"><ele>66.2</ele><time>2026-04-08T13:03:54.999Z</time></trkpt><trkpt lat="45.42819446566449" lon="10.700301452313145"><ele>65.6</ele><time>2026-04-08T13:03:56.999Z</time></trkpt><trkpt lat="45.428311444407896" lon="10.700312875415271"><ele>65.0</ele><time>2026-04-08T13:03:58.999Z</time></trkpt><trkpt lat="45.428394455588695" lon="10.700321094103952"><ele>65.0</ele><time>2026-04-08T13:04:00.999Z</time></trkpt><trkpt lat="45.4285005779552" lon="10.700340298663077"><ele>65.0</ele><time>2026-04-08T13:04:02.999Z</time></trkpt><trkpt lat="45.428602080885646" lon="10.700330478040554"><ele>65.0</ele><time>2026-04-08T13:04:04.999Z</time></trkpt><trkpt lat="45.42869775876297" lon="10.700304119496266"><ele>65.0</ele><time>2026-04-08T13:04:06.999Z</time></trkpt><trkpt lat="45.42875880608319" lon="10.70026633732785"><ele>65.0</ele><time>2026-04-08T13:04:07.999Z</time></trkpt><trkpt lat="45.428821903047755" lon="10.700242421742866"><ele>65.0</ele><time>2026-04-08T13:04:09.999Z</time></trkpt><trkpt lat="45.4288953623623" lon="10.700241334588236"><ele>65.6</ele><time>2026-04-08T13:04:11.999Z</time></trkpt><trkpt lat="45.42898101419979" lon="10.700245658239949"><ele>66.2</ele><time>2026-04-08T13:04:13.999Z</time></trkpt><trkpt lat="45.429086109349626" lon="10.700255418863192"><ele>66.8</ele><time>2026-04-08T13:04:15.999Z</time></trkpt><trkpt lat="45.42919857860653" lon="10.70029645335886"><ele>67.4</ele><time>2026-04-08T13:04:17.999Z</time></trkpt><trkpt lat="45.42926642720273" lon="10.700316301970553"><ele>68.0</ele><time>2026-04-08T13:04:20.999Z</time></trkpt><trkpt lat="45.429345989977286" lon="10.70028365045749"><ele>66.4</ele><time>2026-04-08T13:04:22.999Z</time></trkpt><trkpt lat="45.42944060668848" lon="10.700253106511065"><ele>64.8</ele><time>2026-04-08T13:04:24.999Z</time></trkpt><trkpt lat="45.429530641734715" lon="10.700259529907491"><ele>63.2</ele><time>2026-04-08T13:04:26.999Z</time></trkpt><trkpt lat="45.429596947610904" lon="10.700264099933676"><ele>61.6</ele><time>2026-04-08T13:04:27.999Z</time></trkpt><trkpt lat="45.429705325994775" lon="10.700274421854175"><ele>60.0</ele><time>2026-04-08T13:04:29.999Z</time></trkpt><trkpt lat="45.42981490712627" lon="10.700278229522842"><ele>60.0</ele><time>2026-04-08T13:04:31.999Z</time></trkpt><trkpt lat="45.429878201838925" lon="10.70027457439577"><ele>60.0</ele><time>2026-04-08T13:04:32.999Z</time></trkpt><trkpt lat="45.42999721814186" lon="10.70027223026838"><ele>60.0</ele><time>2026-04-08T13:04:34.999Z</time></trkpt><trkpt lat="45.43011007760836" lon="10.700268044656738"><ele>60.0</ele><time>2026-04-08T13:04:36.999Z</time></trkpt><trkpt lat="45.43021873895761" lon="10.700275645317946"><ele>60.0</ele><time>2026-04-08T13:04:38.999Z</time></trkpt><trkpt lat="45.430325702533764" lon="10.700273712746531"><ele>60.0</ele><time>2026-04-08T13:04:40.999Z</time></trkpt><trkpt lat="45.43043229453668" lon="10.700269990495928"><ele>60.0</ele><time>2026-04-08T13:04:42.999Z</time></trkpt><trkpt lat="45.43055033896469" lon="10.700240540116745"><ele>60.0</ele><time>2026-04-08T13:04:44.999Z</time></trkpt><trkpt lat="45.43061694921641" lon="10.7002359382615"><ele>60.0</ele><time>2026-04-08T13:04:45.999Z</time></trkpt><trkpt lat="45.43068234365854" lon="10.700227164920628"><ele>60.0</ele><time>2026-04-08T13:04:46.999Z</time></trkpt><trkpt lat="45.430745664942584" lon="10.70022632708696"><ele>60.0</ele><time>2026-04-08T13:04:47.999Z</time></trkpt><trkpt lat="45.43085886270819" lon="10.700216909305666"><ele>61.2</ele><time>2026-04-08T13:04:49.999Z</time></trkpt><trkpt lat="45.43096619588176" lon="10.700199401514233"><ele>62.4</ele><time>2026-04-08T13:04:51.999Z</time></trkpt><trkpt lat="45.431071275493515" lon="10.700174302981754"><ele>63.599999999999994</ele><time>2026-04-08T13:04:53.999Z</time></trkpt><trkpt lat="45.43118403654721" lon="10.70017170504257"><ele>64.8</ele><time>2026-04-08T13:04:55.999Z</time></trkpt><trkpt lat="45.43129019794337" lon="10.700159831634675"><ele>66.0</ele><time>2026-04-08T13:04:57.999Z</time></trkpt><trkpt lat="45.43135289418806" lon="10.700174229095987"><ele>66.39999999999999</ele><time>2026-04-08T13:04:58.999Z</time></trkpt><trkpt lat="45.431447125951735" lon="10.700169971335647"><ele>66.8</ele><time>2026-04-08T13:05:00.999Z</time></trkpt><trkpt lat="45.431542300567564" lon="10.700168285679295"><ele>67.19999999999999</ele><time>2026-04-08T13:05:02.999Z</time></trkpt><trkpt lat="45.431659628255204" lon="10.70013775097209"><ele>67.6</ele><time>2026-04-08T13:05:04.999Z</time></trkpt><trkpt lat="45.43176935334657" lon="10.700104553761005"><ele>68.0</ele><time>2026-04-08T13:05:06.999Z</time></trkpt><trkpt lat="45.431885573355025" lon="10.700077863527635"><ele>68.0</ele><time>2026-04-08T13:05:08.999Z</time></trkpt><trkpt lat="45.431976932036626" lon="10.700056476474591"><ele>68.0</ele><time>2026-04-08T13:05:10.999Z</time></trkpt><trkpt lat="45.43207673167496" lon="10.700040781356845"><ele>68.0</ele><time>2026-04-08T13:05:12.999Z</time></trkpt><trkpt lat="45.43217376098573" lon="10.700036136098424"><ele>68.0</ele><time>2026-04-08T13:05:14.999Z</time></trkpt><trkpt lat="45.43227583986918" lon="10.700011202484813"><ele>68.0</ele><time>2026-04-08T13:05:16.999Z</time></trkpt><trkpt lat="45.43237793959882" lon="10.69998369429085"><ele>66.8</ele><time>2026-04-08T13:05:18.999Z</time></trkpt><trkpt lat="45.43244085033513" lon="10.699974914299977"><ele>65.6</ele><time>2026-04-08T13:05:19.999Z</time></trkpt><trkpt lat="45.432562188849744" lon="10.699955161281654"><ele>64.4</ele><time>2026-04-08T13:05:21.999Z</time></trkpt><trkpt lat="45.432675520265974" lon="10.699921124085238"><ele>63.2</ele><time>2026-04-08T13:05:23.999Z</time></trkpt><trkpt lat="45.432790420258186" lon="10.699889739806487"><ele>62.0</ele><time>2026-04-08T13:05:25.999Z</time></trkpt><trkpt lat="45.43289943933111" lon="10.699854818507603"><ele>62.2</ele><time>2026-04-08T13:05:27.999Z</time></trkpt><trkpt lat="45.43301747335687" lon="10.699814483474942"><ele>62.400000000000006</ele><time>2026-04-08T13:05:29.999Z</time></trkpt><trkpt lat="45.43312009871997" lon="10.699772808526035"><ele>62.599999999999994</ele><time>2026-04-08T13:05:31.998Z</time></trkpt><trkpt lat="45.43323147060611" lon="10.699719817500945"><ele>62.8</ele><time>2026-04-08T13:05:33.998Z</time></trkpt><trkpt lat="45.4333182796931" lon="10.699670505757833"><ele>63.0</ele><time>2026-04-08T13:05:35.998Z</time></trkpt><trkpt lat="45.43341049213505" lon="10.69962082976243"><ele>63.0</ele><time>2026-04-08T13:05:37.998Z</time></trkpt><trkpt lat="45.433481189810415" lon="10.699565122565193"><ele>63.0</ele><time>2026-04-08T13:05:39.998Z</time></trkpt><trkpt lat="45.433553775019625" lon="10.699522977841694"><ele>63.0</ele><time>2026-04-08T13:05:41.998Z</time></trkpt><trkpt lat="45.433629881104416" lon="10.699483827818998"><ele>63.0</ele><time>2026-04-08T13:05:43.997Z</time></trkpt><trkpt lat="45.43371266409511" lon="10.699438482748944"><ele>63.0</ele><time>2026-04-08T13:05:45.997Z</time></trkpt><trkpt lat="45.433782195902204" lon="10.699392372140789"><ele>63.0</ele><time>2026-04-08T13:05:47.997Z</time></trkpt><trkpt lat="45.43384765208207" lon="10.699352065637244"><ele>62.666666666666664</ele><time>2026-04-08T13:05:50Z</time></trkpt><trkpt lat="45.43391927655584" lon="10.699281973338472"><ele>62.33333333333333</ele><time>2026-04-08T13:05:52Z</time></trkpt><trkpt lat="45.433988303538456" lon="10.699217843224886"><ele>62.0</ele><time>2026-04-08T13:05:54Z</time></trkpt><trkpt lat="45.434047891397206" lon="10.699160611597263"><ele>61.666666666666664</ele><time>2026-04-08T13:05:56Z</time></trkpt><trkpt lat="45.434120746182806" lon="10.699089248258405"><ele>61.33333333333333</ele><time>2026-04-08T13:05:59Z</time></trkpt><trkpt lat="45.43419969939596" lon="10.69904517866172"><ele>61.0</ele><time>2026-04-08T13:06:02Z</time></trkpt><trkpt lat="45.43428443791155" lon="10.69899080351034"><ele>60.99999999999999</ele><time>2026-04-08T13:06:05Z</time></trkpt><trkpt lat="45.43434669083958" lon="10.698970731474025"><ele>61.0</ele><time>2026-04-08T13:06:07Z</time></trkpt><trkpt lat="45.434422542350454" lon="10.6989265554833"><ele>60.99999999999999</ele><time>2026-04-08T13:06:10Z</time></trkpt><trkpt lat="45.43448646665347" lon="10.698868576330403"><ele>60.99999999999999</ele><time>2026-04-08T13:06:12Z</time></trkpt><trkpt lat="45.43454315380786" lon="10.698819413705204"><ele>61.0</ele><time>2026-04-08T13:06:14Z</time></trkpt><trkpt lat="45.434607006487866" lon="10.69877393818953"><ele>60.99999999999999</ele><time>2026-04-08T13:06:16Z</time></trkpt><trkpt lat="45.43467634616527" lon="10.698701436038474"><ele>60.99999999999999</ele><time>2026-04-08T13:06:18Z</time></trkpt><trkpt lat="45.43473417161768" lon="10.69863354931085"><ele>61.71428571428571</ele><time>2026-04-08T13:06:20Z</time></trkpt><trkpt lat="45.4347888348306" lon="10.698579724433765"><ele>62.42857142857143</ele><time>2026-04-08T13:06:22Z</time></trkpt><trkpt lat="45.43484849894282" lon="10.698521177720053"><ele>63.14285714285714</ele><time>2026-04-08T13:06:24Z</time></trkpt><trkpt lat="45.43490668199669" lon="10.698474153456575"><ele>63.857142857142854</ele><time>2026-04-08T13:06:26Z</time></trkpt><trkpt lat="45.434974349467375" lon="10.698402230687577"><ele>64.57142857142857</ele><time>2026-04-08T13:06:29Z</time></trkpt><trkpt lat="45.43503803795507" lon="10.69832256210163"><ele>65.28571428571428</ele><time>2026-04-08T13:06:34Z</time></trkpt><trkpt lat="45.43510881901008" lon="10.698318839243145"><ele>66.0</ele><time>2026-04-08T13:06:36.999Z</time></trkpt><trkpt lat="45.43516828625919" lon="10.698269115176979"><ele>66.0</ele><time>2026-04-08T13:06:40.999Z</time></trkpt><trkpt lat="45.43525513172229" lon="10.698206176325979"><ele>66.0</ele><time>2026-04-08T13:06:43.999Z</time></trkpt><trkpt lat="45.43532512111123" lon="10.698150283437554"><ele>66.0</ele><time>2026-04-08T13:06:46.999Z</time></trkpt><trkpt lat="45.43538514643075" lon="10.698116126478837"><ele>66.0</ele><time>2026-04-08T13:06:49.999Z</time></trkpt><trkpt lat="45.4354455606019" lon="10.698082400740166"><ele>66.0</ele><time>2026-04-08T13:06:51.999Z</time></trkpt><trkpt lat="45.43547830184434" lon="10.697989826623909"><ele>66.0</ele><time>2026-04-08T13:06:54.999Z</time></trkpt><trkpt lat="45.4355336950442" lon="10.697906192548055"><ele>65.71428571428571</ele><time>2026-04-08T13:06:58.999Z</time></trkpt><trkpt lat="45.43559943760048" lon="10.697839896541517"><ele>65.42857142857143</ele><time>2026-04-08T13:07:02.999Z</time></trkpt><trkpt lat="45.435665396460024" lon="10.697778256115015"><ele>65.14285714285714</ele><time>2026-04-08T13:07:06.999Z</time></trkpt><trkpt lat="45.435722331735434" lon="10.69772587692371"><ele>64.85714285714286</ele><time>2026-04-08T13:07:08.999Z</time></trkpt><trkpt lat="45.435787131068444" lon="10.697685388760569"><ele>64.57142857142857</ele><time>2026-04-08T13:07:10.999Z</time></trkpt><trkpt lat="45.435860097241196" lon="10.69769722313439"><ele>64.28571428571428</ele><time>2026-04-08T13:07:16.999Z</time></trkpt><trkpt lat="45.43589561281044" lon="10.697614991436705"><ele>64.0</ele><time>2026-04-08T13:07:21.999Z</time></trkpt><trkpt lat="45.43590482635026" lon="10.697521941918428"><ele>65.16666666666666</ele><time>2026-04-08T13:07:25.999Z</time></trkpt><trkpt lat="45.43589585139507" lon="10.697431049589019"><ele>66.33333333333333</ele><time>2026-04-08T13:07:32.999Z</time></trkpt><trkpt lat="45.43588912202458" lon="10.697326319146248"><ele>67.5</ele><time>2026-04-08T13:07:42.999Z</time></trkpt><trkpt lat="45.4358492811658" lon="10.697216514887081"><ele>68.66666666666667</ele><time>2026-04-08T13:07:45.999Z</time></trkpt><trkpt lat="45.4358215902731" lon="10.697133941751042"><ele>69.83333333333334</ele><time>2026-04-08T13:07:47.999Z</time></trkpt><trkpt lat="45.43579434919614" lon="10.697032611743197"><ele>71.0</ele><time>2026-04-08T13:07:49.999Z</time></trkpt><trkpt lat="45.435755360967114" lon="10.696908661211696"><ele>71.83333333333334</ele><time>2026-04-08T13:07:51.999Z</time></trkpt><trkpt lat="45.4357276943219" lon="10.696772313931035"><ele>72.66666666666667</ele><time>2026-04-08T13:07:53.999Z</time></trkpt><trkpt lat="45.435751740687586" lon="10.696646815955342"><ele>73.5</ele><time>2026-04-08T13:07:55.999Z</time></trkpt><trkpt lat="45.435755745715824" lon="10.696528051757078"><ele>74.33333333333333</ele><time>2026-04-08T13:07:57.999Z</time></trkpt><trkpt lat="45.43574622799495" lon="10.696438888318257"><ele>75.16666666666666</ele><time>2026-04-08T13:08:01.999Z</time></trkpt><trkpt lat="45.435748887742925" lon="10.696345913315147"><ele>76.0</ele><time>2026-04-08T13:08:05.999Z</time></trkpt><trkpt lat="45.43574342363008" lon="10.69622821584977"><ele>76.0</ele><time>2026-04-08T13:08:09.999Z</time></trkpt><trkpt lat="45.43573341213464" lon="10.69612656291335"><ele>76.0</ele><time>2026-04-08T13:08:14.999Z</time></trkpt><trkpt lat="45.4357212547986" lon="10.696027971325705"><ele>76.0</ele><time>2026-04-08T13:08:17.999Z</time></trkpt><trkpt lat="45.43571101270576" lon="10.695929819930345"><ele>76.0</ele><time>2026-04-08T13:08:20.999Z</time></trkpt><trkpt lat="45.435709843152" lon="10.695818666198532"><ele>76.0</ele><time>2026-04-08T13:08:24.999Z</time></trkpt><trkpt lat="45.43573916776078" lon="10.695733796951796"><ele>76.0</ele><time>2026-04-08T13:08:26.999Z</time></trkpt><trkpt lat="45.43576799218519" lon="10.695648034208173"><ele>76.0</ele><time>2026-04-08T13:08:29.999Z</time></trkpt><trkpt lat="45.43579066160509" lon="10.695558736447195"><ele>75.85714285714285</ele><time>2026-04-08T13:08:32.999Z</time></trkpt><trkpt lat="45.435777095632304" lon="10.69545383520667"><ele>75.71428571428572</ele><time>2026-04-08T13:08:36.999Z</time></trkpt><trkpt lat="45.43574494242225" lon="10.695367831102837"><ele>75.57142857142857</ele><time>2026-04-08T13:08:39.999Z</time></trkpt><trkpt lat="45.43573812859013" lon="10.695259531522703"><ele>75.42857142857142</ele><time>2026-04-08T13:08:42.999Z</time></trkpt><trkpt lat="45.43576264906086" lon="10.695151236040864"><ele>75.28571428571428</ele><time>2026-04-08T13:08:45.999Z</time></trkpt><trkpt lat="45.43582857483513" lon="10.695119119530705"><ele>75.14285714285714</ele><time>2026-04-08T13:08:48.999Z</time></trkpt><trkpt lat="45.435886112549554" lon="10.695081464943394"><ele>75.0</ele><time>2026-04-08T13:08:51.999Z</time></trkpt><trkpt lat="45.43593996385771" lon="10.695034362072084"><ele>75.0</ele><time>2026-04-08T13:08:57.999Z</time></trkpt><trkpt lat="45.436007348862276" lon="10.695004445170275"><ele>75.0</ele><time>2026-04-08T13:09:00.999Z</time></trkpt><trkpt lat="45.43602942871771" lon="10.694920103582778"><ele>75.0</ele><time>2026-04-08T13:09:03.999Z</time></trkpt><trkpt lat="45.4360545584573" lon="10.694824612758673"><ele>75.0</ele><time>2026-04-08T13:09:06.999Z</time></trkpt><trkpt lat="45.4360912066577" lon="10.694712047155248"><ele>75.0</ele><time>2026-04-08T13:09:09.999Z</time></trkpt><trkpt lat="45.43610506962234" lon="10.694585678081793"><ele>75.0</ele><time>2026-04-08T13:09:12.999Z</time></trkpt><trkpt lat="45.436103458156204" lon="10.69447573691091"><ele>75.0</ele><time>2026-04-08T13:09:14.999Z</time></trkpt><trkpt lat="45.436105825423695" lon="10.694352101216058"><ele>75.0</ele><time>2026-04-08T13:09:17.999Z</time></trkpt><trkpt lat="45.43612865743107" lon="10.69424036325623"><ele>75.0</ele><time>2026-04-08T13:09:20.999Z</time></trkpt><trkpt lat="45.436136605017985" lon="10.694144117297757"><ele>75.0</ele><time>2026-04-08T13:09:23.999Z</time></trkpt><trkpt lat="45.436135498339944" lon="10.694047527057032"><ele>75.0</ele><time>2026-04-08T13:09:28.999Z</time></trkpt><trkpt lat="45.43614930190988" lon="10.69392887199591"><ele>75.0</ele><time>2026-04-08T13:09:31.999Z</time></trkpt><trkpt lat="45.436145324421524" lon="10.69383697380305"><ele>75.0</ele><time>2026-04-08T13:09:33.999Z</time></trkpt><trkpt lat="45.43613839920078" lon="10.693720267834937"><ele>75.0</ele><time>2026-04-08T13:09:35.999Z</time></trkpt><trkpt lat="45.43614600678998" lon="10.693630080553135"><ele>75.0</ele><time>2026-04-08T13:09:37.999Z</time></trkpt><trkpt lat="45.43615562987617" lon="10.69350321201414"><ele>75.0</ele><time>2026-04-08T13:09:39.999Z</time></trkpt><trkpt lat="45.43616502732968" lon="10.693389660117438"><ele>75.0</ele><time>2026-04-08T13:09:41.999Z</time></trkpt><trkpt lat="45.436157643902405" lon="10.693271915754524"><ele>75.0</ele><time>2026-04-08T13:09:43.999Z</time></trkpt><trkpt lat="45.43616613055713" lon="10.693142959458177"><ele>75.33333333333333</ele><time>2026-04-08T13:09:45.999Z</time></trkpt><trkpt lat="45.436180798002695" lon="10.693024516121374"><ele>75.66666666666667</ele><time>2026-04-08T13:09:47.999Z</time></trkpt><trkpt lat="45.43616626884201" lon="10.692883197458983"><ele>76.0</ele><time>2026-04-08T13:09:49.999Z</time></trkpt><trkpt lat="45.43616415150863" lon="10.692772597083124"><ele>76.33333333333334</ele><time>2026-04-08T13:09:51.999Z</time></trkpt><trkpt lat="45.436174649318644" lon="10.692638225960561"><ele>76.66666666666667</ele><time>2026-04-08T13:09:54.999Z</time></trkpt><trkpt lat="45.436183317551695" lon="10.692532313148286"><ele>77.0</ele><time>2026-04-08T13:09:56.999Z</time></trkpt><trkpt lat="45.436195465188334" lon="10.6924326444727"><ele>77.0</ele><time>2026-04-08T13:09:58.999Z</time></trkpt><trkpt lat="45.43620205525554" lon="10.692331449931244"><ele>77.0</ele><time>2026-04-08T13:10:01.999Z</time></trkpt><trkpt lat="45.43623784520306" lon="10.692228462629867"><ele>77.0</ele><time>2026-04-08T13:10:04.999Z</time></trkpt><trkpt lat="45.43625009694683" lon="10.692113582788833"><ele>77.0</ele><time>2026-04-08T13:10:07.999Z</time></trkpt><trkpt lat="45.43628765345652" lon="10.69199655222711"><ele>77.0</ele><time>2026-04-08T13:10:11.999Z</time></trkpt><trkpt lat="45.43631900583117" lon="10.691916848020654"><ele>77.0</ele><time>2026-04-08T13:10:13.999Z</time></trkpt><trkpt lat="45.43635507576284" lon="10.691809794479258"><ele>77.0</ele><time>2026-04-08T13:10:16.999Z</time></trkpt><trkpt lat="45.43641183242085" lon="10.69174148632669"><ele>77.0</ele><time>2026-04-08T13:10:19.999Z</time></trkpt><trkpt lat="45.436483572205674" lon="10.691711941925721"><ele>77.0</ele><time>2026-04-08T13:10:21.999Z</time></trkpt><trkpt lat="45.4365497690815" lon="10.691689271894798"><ele>77.0</ele><time>2026-04-08T13:10:23.999Z</time></trkpt><trkpt lat="45.43661527099691" lon="10.691650979088699"><ele>77.0</ele><time>2026-04-08T13:10:25.999Z</time></trkpt><trkpt lat="45.436693671951325" lon="10.691587185955324"><ele>77.0</ele><time>2026-04-08T13:10:28.999Z</time></trkpt><trkpt lat="45.4367590694934" lon="10.69156803835528"><ele>77.0</ele><time>2026-04-08T13:10:30.999Z</time></trkpt><trkpt lat="45.43684354383771" lon="10.691529647024945"><ele>77.0</ele><time>2026-04-08T13:10:33.999Z</time></trkpt><trkpt lat="45.43692287675477" lon="10.69151153559196"><ele>77.0</ele><time>2026-04-08T13:10:35.999Z</time></trkpt><trkpt lat="45.43699573255817" lon="10.69149361701101"><ele>77.0</ele><time>2026-04-08T13:10:37.999Z</time></trkpt><trkpt lat="45.43706716918584" lon="10.691471228135653"><ele>77.0</ele><time>2026-04-08T13:10:41.999Z</time></trkpt><trkpt lat="45.4371565622691" lon="10.691432147462493"><ele>77.0</ele><time>2026-04-08T13:10:45.999Z</time></trkpt><trkpt lat="45.43723121298784" lon="10.691398186036025"><ele>77.0</ele><time>2026-04-08T13:10:47.999Z</time></trkpt><trkpt lat="45.43733105318317" lon="10.691366249280398"><ele>76.33333333333334</ele><time>2026-04-08T13:10:49.999Z</time></trkpt><trkpt lat="45.43743888961812" lon="10.691301049826711"><ele>75.66666666666667</ele><time>2026-04-08T13:10:51.999Z</time></trkpt><trkpt lat="45.43755228124526" lon="10.691273667011101"><ele>75.0</ele><time>2026-04-08T13:10:53.999Z</time></trkpt><trkpt lat="45.43762656144223" lon="10.691247693990855"><ele>74.33333333333333</ele><time>2026-04-08T13:10:55.999Z</time></trkpt><trkpt lat="45.43768700645588" lon="10.69121858683218"><ele>73.66666666666666</ele><time>2026-04-08T13:10:57.999Z</time></trkpt><trkpt lat="45.43775193954895" lon="10.691263552271106"><ele>73.0</ele><time>2026-04-08T13:11:00.999Z</time></trkpt><trkpt lat="45.43778543666866" lon="10.691364132320633"><ele>73.0</ele><time>2026-04-08T13:11:10.999Z</time></trkpt><trkpt lat="45.43783973138993" lon="10.691435461518013"><ele>73.0</ele><time>2026-04-08T13:11:14.999Z</time></trkpt><trkpt lat="45.437877881608166" lon="10.69154339495135"><ele>73.0</ele><time>2026-04-08T13:11:17.999Z</time></trkpt><trkpt lat="45.43791807638472" lon="10.691624953631136"><ele>73.0</ele><time>2026-04-08T13:11:19.998Z</time></trkpt><trkpt lat="45.4379638496351" lon="10.691701791734696"><ele>73.0</ele><time>2026-04-08T13:11:22.998Z</time></trkpt><trkpt lat="45.437989665454225" lon="10.691792181450502"><ele>73.0</ele><time>2026-04-08T13:11:26.998Z</time></trkpt><trkpt lat="45.438013310115394" lon="10.691880154325181"><ele>73.0</ele><time>2026-04-08T13:11:29.998Z</time></trkpt><trkpt lat="45.43803827386345" lon="10.691974464551016"><ele>72.83333333333333</ele><time>2026-04-08T13:11:32.998Z</time></trkpt><trkpt lat="45.43807811459037" lon="10.692095869880287"><ele>72.66666666666666</ele><time>2026-04-08T13:11:35.998Z</time></trkpt><trkpt lat="45.438146779787026" lon="10.692164353271762"><ele>72.5</ele><time>2026-04-08T13:11:39.998Z</time></trkpt><trkpt lat="45.43821748796592" lon="10.692196748285433"><ele>72.33333333333333</ele><time>2026-04-08T13:11:42.998Z</time></trkpt><trkpt lat="45.43827776049706" lon="10.692267165819061"><ele>72.16666666666667</ele><time>2026-04-08T13:11:44.998Z</time></trkpt><trkpt lat="45.43832555134938" lon="10.692331528645644"><ele>72.0</ele><time>2026-04-08T13:11:46.998Z</time></trkpt><trkpt lat="45.43837648093332" lon="10.692402511548725"><ele>72.0</ele><time>2026-04-08T13:11:50.998Z</time></trkpt><trkpt lat="45.4383625308612" lon="10.692500897919736"><ele>72.0</ele><time>2026-04-08T13:11:54.998Z</time></trkpt><trkpt lat="45.43831278722581" lon="10.69260275333944"><ele>72.0</ele><time>2026-04-08T13:11:57.998Z</time></trkpt><trkpt lat="45.43826713125749" lon="10.692682134385409"><ele>72.0</ele><time>2026-04-08T13:11:59.998Z</time></trkpt><trkpt lat="45.43819186573793" lon="10.692745803719239"><ele>72.0</ele><time>2026-04-08T13:12:03.998Z</time></trkpt><trkpt lat="45.438111967515916" lon="10.692766875979745"><ele>72.0</ele><time>2026-04-08T13:12:05.998Z</time></trkpt><trkpt lat="45.43804862310406" lon="10.692781639979023"><ele>72.00000000000001</ele><time>2026-04-08T13:12:08.998Z</time></trkpt><trkpt lat="45.43800406119643" lon="10.692709668078166"><ele>72.0</ele><time>2026-04-08T13:12:11.998Z</time></trkpt><trkpt lat="45.43795874685544" lon="10.692782502998925"><ele>72.0</ele><time>2026-04-08T13:12:14.998Z</time></trkpt><trkpt lat="45.43794874843068" lon="10.69290289918584"><ele>72.0</ele><time>2026-04-08T13:12:23.998Z</time></trkpt><trkpt lat="45.437937490059284" lon="10.692999805755608"><ele>72.0</ele><time>2026-04-08T13:12:27.998Z</time></trkpt><trkpt lat="45.43791956188768" lon="10.693092893655347"><ele>72.00000000000001</ele><time>2026-04-08T13:12:32.998Z</time></trkpt><trkpt lat="45.4379801705611" lon="10.69315524568863"><ele>72.0</ele><time>2026-04-08T13:12:46.998Z</time></trkpt><trkpt lat="45.43802295084124" lon="10.693229187632731"><ele>72.14285714285715</ele><time>2026-04-08T13:12:54.998Z</time></trkpt><trkpt lat="45.4379848247905" lon="10.693142354820043"><ele>72.28571428571429</ele><time>2026-04-08T13:13:02Z</time></trkpt><trkpt lat="45.43793849623145" lon="10.69306737135295"><ele>72.42857142857143</ele><time>2026-04-08T13:13:13Z</time></trkpt><trkpt lat="45.437979760549936" lon="10.692990399235761"><ele>72.57142857142858</ele><time>2026-04-08T13:13:18Z</time></trkpt><trkpt lat="45.43803867045742" lon="10.692927485869985"><ele>72.71428571428572</ele><time>2026-04-08T13:13:22Z</time></trkpt><trkpt lat="45.43798135393324" lon="10.692978382719318"><ele>72.85714285714286</ele><time>2026-04-08T13:13:41Z</time></trkpt><trkpt lat="45.437929026525474" lon="10.693029934227658"><ele>73.0</ele><time>2026-04-08T13:13:46Z</time></trkpt><trkpt lat="45.43793431106093" lon="10.693121581388512"><ele>73.0</ele><time>2026-04-08T13:14:07Z</time></trkpt><trkpt lat="45.43796074623518" lon="10.693205060324416"><ele>73.0</ele><time>2026-04-08T13:14:16Z</time></trkpt><trkpt lat="45.43795536249778" lon="10.693108807542098"><ele>73.0</ele><time>2026-04-08T13:14:29.999Z</time></trkpt><trkpt lat="45.43796124426703" lon="10.693019008790257"><ele>73.0</ele><time>2026-04-08T13:14:34.999Z</time></trkpt><trkpt lat="45.43796255411654" lon="10.69287983867959"><ele>73.0</ele><time>2026-04-08T13:14:37.999Z</time></trkpt><trkpt lat="45.43795251556629" lon="10.6927847446556"><ele>73.0</ele><time>2026-04-08T13:14:41.999Z</time></trkpt><trkpt lat="45.43802125303083" lon="10.692841379965872"><ele>73.0</ele><time>2026-04-08T13:14:46.999Z</time></trkpt><trkpt lat="45.4380854233213" lon="10.692864270806997"><ele>73.0</ele><time>2026-04-08T13:14:51.999Z</time></trkpt><trkpt lat="45.4381561792394" lon="10.692975151641681"><ele>73.0</ele><time>2026-04-08T13:14:54.999Z</time></trkpt><trkpt lat="45.43822266479568" lon="10.693066429520323"><ele>73.0</ele><time>2026-04-08T13:14:56.999Z</time></trkpt><trkpt lat="45.43828197025789" lon="10.693108652493859"><ele>73.0</ele><time>2026-04-08T13:15:00.999Z</time></trkpt><trkpt lat="45.43834824500625" lon="10.693143875388412"><ele>73.0</ele><time>2026-04-08T13:15:02.999Z</time></trkpt><trkpt lat="45.43842364493819" lon="10.693181124672208"><ele>73.0</ele><time>2026-04-08T13:15:05.999Z</time></trkpt><trkpt lat="45.43851709980141" lon="10.693183726791043"><ele>73.0</ele><time>2026-04-08T13:15:13.999Z</time></trkpt><trkpt lat="45.438549685122396" lon="10.693448524812858"><ele>73.0</ele><time>2026-04-08T13:15:23.999Z</time></trkpt><trkpt lat="45.438589760062726" lon="10.693518962507989"><ele>73.0</ele><time>2026-04-08T13:15:25.999Z</time></trkpt><trkpt lat="45.438654411187514" lon="10.693521479384115"><ele>73.0</ele><time>2026-04-08T13:15:33.999Z</time></trkpt><trkpt lat="45.43870537497524" lon="10.693462729728981"><ele>73.0</ele><time>2026-04-08T13:15:36.999Z</time></trkpt><trkpt lat="45.43875710136309" lon="10.693395716664325"><ele>72.71428571428571</ele><time>2026-04-08T13:15:39.999Z</time></trkpt><trkpt lat="45.438804768073894" lon="10.693318988760257"><ele>72.42857142857143</ele><time>2026-04-08T13:15:42.999Z</time></trkpt><trkpt lat="45.438851659437766" lon="10.693232606076576"><ele>72.14285714285714</ele><time>2026-04-08T13:15:46.999Z</time></trkpt><trkpt lat="45.43887787940939" lon="10.69313571466308"><ele>71.85714285714286</ele><time>2026-04-08T13:15:49.999Z</time></trkpt><trkpt lat="45.438895380145304" lon="10.69304380447191"><ele>71.57142857142857</ele><time>2026-04-08T13:15:53.999Z</time></trkpt><trkpt lat="45.43888486509041" lon="10.692947204332235"><ele>71.28571428571428</ele><time>2026-04-08T13:16:10.999Z</time></trkpt><trkpt lat="45.43890795467805" lon="10.692853909593914"><ele>71.0</ele><time>2026-04-08T13:16:14.999Z</time></trkpt><trkpt lat="45.43922084640839" lon="10.692803830935649"><ele>71.0</ele><time>2026-04-08T13:19:57.324Z</time></trkpt><trkpt lat="45.439275243787534" lon="10.692912228650528"><ele>71.0</ele><time>2026-04-08T13:20:53Z</time></trkpt><trkpt lat="45.439342319415914" lon="10.69301341003006"><ele>71.0</ele><time>2026-04-08T13:20:55Z</time></trkpt><trkpt lat="45.439402437428015" lon="10.69308345220072"><ele>71.0</ele><time>2026-04-08T13:20:57Z</time></trkpt><trkpt lat="45.43947097492779" lon="10.693164009889932"><ele>71.0</ele><time>2026-04-08T13:20:59Z</time></trkpt><trkpt lat="45.43952357491324" lon="10.693234315303519"><ele>71.0</ele><time>2026-04-08T13:21:01Z</time></trkpt><trkpt lat="45.439576143064144" lon="10.693293704614742"><ele>70.66666666666667</ele><time>2026-04-08T13:21:03Z</time></trkpt><trkpt lat="45.439634008479544" lon="10.693382823742851"><ele>70.33333333333334</ele><time>2026-04-08T13:21:06Z</time></trkpt><trkpt lat="45.43969136941257" lon="10.69350108119231"><ele>70.0</ele><time>2026-04-08T13:21:09Z</time></trkpt><trkpt lat="45.43975983745186" lon="10.693552617696316"><ele>69.66666666666667</ele><time>2026-04-08T13:21:12Z</time></trkpt><trkpt lat="45.43978079716869" lon="10.69365572082879"><ele>69.33333333333333</ele><time>2026-04-08T13:21:15Z</time></trkpt><trkpt lat="45.43979677892608" lon="10.693755571148085"><ele>69.0</ele><time>2026-04-08T13:21:18Z</time></trkpt><trkpt lat="45.43983300856851" lon="10.693839347110467"><ele>69.0</ele><time>2026-04-08T13:21:21Z</time></trkpt><trkpt lat="45.439854002703754" lon="10.693945548008498"><ele>69.0</ele><time>2026-04-08T13:21:24Z</time></trkpt><trkpt lat="45.439869926157016" lon="10.694040007515317"><ele>69.0</ele><time>2026-04-08T13:21:27Z</time></trkpt><trkpt lat="45.43988542608462" lon="10.694158665074276"><ele>69.0</ele><time>2026-04-08T13:21:30Z</time></trkpt><trkpt lat="45.43988121820733" lon="10.694260360313946"><ele>69.0</ele><time>2026-04-08T13:21:32Z</time></trkpt><trkpt lat="45.43986806315062" lon="10.694379204477118"><ele>69.0</ele><time>2026-04-08T13:21:35Z</time></trkpt><trkpt lat="45.439851206575156" lon="10.694482996774562"><ele>69.0</ele><time>2026-04-08T13:21:37Z</time></trkpt><trkpt lat="45.43981358021836" lon="10.694573576519108"><ele>69.0</ele><time>2026-04-08T13:21:40Z</time></trkpt><trkpt lat="45.43980103900644" lon="10.694698051154882"><ele>69.0</ele><time>2026-04-08T13:21:43Z</time></trkpt><trkpt lat="45.439784234009046" lon="10.694803002664711"><ele>69.0</ele><time>2026-04-08T13:21:45Z</time></trkpt><trkpt lat="45.43973719939675" lon="10.694900779419433"><ele>69.0</ele><time>2026-04-08T13:21:48Z</time></trkpt><trkpt lat="45.439707121417314" lon="10.695044378652351"><ele>69.0</ele><time>2026-04-08T13:21:51Z</time></trkpt><trkpt lat="45.43967749408076" lon="10.695142082815979"><ele>69.0</ele><time>2026-04-08T13:21:53Z</time></trkpt><trkpt lat="45.43964623299416" lon="10.695237513194398"><ele>69.0</ele><time>2026-04-08T13:21:55Z</time></trkpt><trkpt lat="45.43961320846496" lon="10.695354962465894"><ele>69.0</ele><time>2026-04-08T13:21:58Z</time></trkpt><trkpt lat="45.43958543653593" lon="10.695448114695818"><ele>69.0</ele><time>2026-04-08T13:22:01Z</time></trkpt><trkpt lat="45.43958784353099" lon="10.695545784329333"><ele>69.0</ele><time>2026-04-08T13:22:03Z</time></trkpt><trkpt lat="45.439585164387104" lon="10.695673638231776"><ele>69.0</ele><time>2026-04-08T13:22:05Z</time></trkpt><trkpt lat="45.43959632645243" lon="10.695789448500152"><ele>68.83333333333333</ele><time>2026-04-08T13:22:08Z</time></trkpt><trkpt lat="45.4396684369593" lon="10.695848165813043"><ele>68.66666666666667</ele><time>2026-04-08T13:22:11Z</time></trkpt><trkpt lat="45.439730930568665" lon="10.69593102910481"><ele>68.5</ele><time>2026-04-08T13:22:14Z</time></trkpt><trkpt lat="45.43978828614049" lon="10.695976617559928"><ele>68.33333333333334</ele><time>2026-04-08T13:22:17Z</time></trkpt><trkpt lat="45.43981169597947" lon="10.696062042156738"><ele>68.16666666666667</ele><time>2026-04-08T13:22:21Z</time></trkpt><trkpt lat="45.43986504286437" lon="10.696150377034296"><ele>68.0</ele><time>2026-04-08T13:22:24Z</time></trkpt><trkpt lat="45.43982052991645" lon="10.696322789410248"><ele>67.83333333333334</ele><time>2026-04-08T13:22:37Z</time></trkpt><trkpt lat="45.43984414725325" lon="10.696419883870051"><ele>67.66666666666667</ele><time>2026-04-08T13:22:39Z</time></trkpt><trkpt lat="45.43988671676309" lon="10.696497865345348"><ele>67.5</ele><time>2026-04-08T13:22:42Z</time></trkpt><trkpt lat="45.43996852053529" lon="10.696558013467175"><ele>67.33333333333333</ele><time>2026-04-08T13:22:44Z</time></trkpt><trkpt lat="45.44006016059634" lon="10.696620203392888"><ele>67.16666666666666</ele><time>2026-04-08T13:22:46Z</time></trkpt><trkpt lat="45.440155400416465" lon="10.696686773865121"><ele>67.0</ele><time>2026-04-08T13:22:48Z</time></trkpt><trkpt lat="45.440225305268235" lon="10.69675049691752"><ele>67.0</ele><time>2026-04-08T13:22:50Z</time></trkpt><trkpt lat="45.44029911537364" lon="10.696832824150142"><ele>67.0</ele><time>2026-04-08T13:22:52Z</time></trkpt><trkpt lat="45.44034566529388" lon="10.69692088750749"><ele>67.0</ele><time>2026-04-08T13:22:54Z</time></trkpt><trkpt lat="45.44038802998295" lon="10.69699443185515"><ele>67.0</ele><time>2026-04-08T13:22:56Z</time></trkpt><trkpt lat="45.44046288673368" lon="10.697036970674358"><ele>67.0</ele><time>2026-04-08T13:22:59Z</time></trkpt><trkpt lat="45.44053041259346" lon="10.697140161822153"><ele>67.0</ele><time>2026-04-08T13:23:02Z</time></trkpt><trkpt lat="45.44059623026332" lon="10.697250559433016"><ele>66.71428571428572</ele><time>2026-04-08T13:23:04Z</time></trkpt><trkpt lat="45.44062933879024" lon="10.697362253057209"><ele>66.42857142857143</ele><time>2026-04-08T13:23:05.999Z</time></trkpt><trkpt lat="45.440617449726" lon="10.697450393783473"><ele>66.14285714285714</ele><time>2026-04-08T13:23:07.999Z</time></trkpt><trkpt lat="45.44062667364212" lon="10.69756798274895"><ele>65.85714285714286</ele><time>2026-04-08T13:23:10.999Z</time></trkpt><trkpt lat="45.44068287370151" lon="10.697649132310671"><ele>65.57142857142857</ele><time>2026-04-08T13:23:14.999Z</time></trkpt><trkpt lat="45.44069492868414" lon="10.697746031880515"><ele>65.28571428571429</ele><time>2026-04-08T13:23:21.999Z</time></trkpt><trkpt lat="45.44069760167506" lon="10.697842422072695"><ele>65.0</ele><time>2026-04-08T13:23:24.999Z</time></trkpt><trkpt lat="45.440707484166126" lon="10.697959917314785"><ele>65.00000000000001</ele><time>2026-04-08T13:23:27.999Z</time></trkpt><trkpt lat="45.44071938861125" lon="10.69806800273062"><ele>65.0</ele><time>2026-04-08T13:23:30.999Z</time></trkpt><trkpt lat="45.44079554348705" lon="10.698071019006544"><ele>65.0</ele><time>2026-04-08T13:23:34.999Z</time></trkpt><trkpt lat="45.44087540996693" lon="10.698061614770376"><ele>65.0</ele><time>2026-04-08T13:23:37.999Z</time></trkpt><trkpt lat="45.44093464920461" lon="10.69811844691579"><ele>65.0</ele><time>2026-04-08T13:23:40.999Z</time></trkpt><trkpt lat="45.44095903051866" lon="10.698204464737815"><ele>65.00000000000001</ele><time>2026-04-08T13:23:45.999Z</time></trkpt><trkpt lat="45.44097986828751" lon="10.698304840469225"><ele>65.0</ele><time>2026-04-08T13:23:48.999Z</time></trkpt><trkpt lat="45.44100458815439" lon="10.698388254737866"><ele>65.0</ele><time>2026-04-08T13:23:53.998Z</time></trkpt><trkpt lat="45.441071512708696" lon="10.6983093021766"><ele>65.0</ele><time>2026-04-08T13:24:14.998Z</time></trkpt><trkpt lat="45.44113770165805" lon="10.698345757940174"><ele>65.0</ele><time>2026-04-08T13:24:17.998Z</time></trkpt><trkpt lat="45.44120454376834" lon="10.698392305603333"><ele>65.0</ele><time>2026-04-08T13:24:20.998Z</time></trkpt><trkpt lat="45.441268458851056" lon="10.698432923268598"><ele>65.0</ele><time>2026-04-08T13:24:23.998Z</time></trkpt><trkpt lat="45.44132809899598" lon="10.698490942900948"><ele>65.0</ele><time>2026-04-08T13:24:26.998Z</time></trkpt><trkpt lat="45.44139749255046" lon="10.698533061854436"><ele>65.5</ele><time>2026-04-08T13:24:29.998Z</time></trkpt><trkpt lat="45.44145412143114" lon="10.698592296429219"><ele>66.0</ele><time>2026-04-08T13:24:32.998Z</time></trkpt><trkpt lat="45.44152011766238" lon="10.698641410041065"><ele>66.5</ele><time>2026-04-08T13:24:35.998Z</time></trkpt><trkpt lat="45.44158017570744" lon="10.69871899623251"><ele>67.0</ele><time>2026-04-08T13:24:38.998Z</time></trkpt><trkpt lat="45.4416559378172" lon="10.698760454489166"><ele>67.5</ele><time>2026-04-08T13:24:41.998Z</time></trkpt><trkpt lat="45.441738617045544" lon="10.698796806475022"><ele>68.0</ele><time>2026-04-08T13:24:44.998Z</time></trkpt><trkpt lat="45.44181609846" lon="10.698808959270634"><ele>68.0</ele><time>2026-04-08T13:24:47.998Z</time></trkpt><trkpt lat="45.44188791835249" lon="10.698798499473824"><ele>68.0</ele><time>2026-04-08T13:24:50.998Z</time></trkpt><trkpt lat="45.44196984275027" lon="10.69884991700299"><ele>68.0</ele><time>2026-04-08T13:24:53.998Z</time></trkpt><trkpt lat="45.44204773432618" lon="10.698883289734708"><ele>68.0</ele><time>2026-04-08T13:24:55.998Z</time></trkpt><trkpt lat="45.44212461112595" lon="10.698938680643153"><ele>68.0</ele><time>2026-04-08T13:24:57.998Z</time></trkpt><trkpt lat="45.442169538390026" lon="10.69902207441457"><ele>68.0</ele><time>2026-04-08T13:24:59.998Z</time></trkpt><trkpt lat="45.44223799055587" lon="10.699062687854472"><ele>67.83333333333334</ele><time>2026-04-08T13:25:01.998Z</time></trkpt><trkpt lat="45.442303968789126" lon="10.69908651621346"><ele>67.66666666666667</ele><time>2026-04-08T13:25:03.998Z</time></trkpt><trkpt lat="45.442365363942315" lon="10.699120843438076"><ele>67.5</ele><time>2026-04-08T13:25:05.998Z</time></trkpt><trkpt lat="45.44243957647249" lon="10.699166599561496"><ele>67.33333333333333</ele><time>2026-04-08T13:25:08.998Z</time></trkpt><trkpt lat="45.44251885640495" lon="10.699228845386916"><ele>67.16666666666666</ele><time>2026-04-08T13:25:11.998Z</time></trkpt><trkpt lat="45.44260568124155" lon="10.69927092567765"><ele>67.0</ele><time>2026-04-08T13:25:14.998Z</time></trkpt><trkpt lat="45.44268923409612" lon="10.699291459332592"><ele>67.0</ele><time>2026-04-08T13:25:17.998Z</time></trkpt><trkpt lat="45.44275528613309" lon="10.699343852329301"><ele>67.0</ele><time>2026-04-08T13:25:19.998Z</time></trkpt><trkpt lat="45.44280442781316" lon="10.699430786240864"><ele>67.0</ele><time>2026-04-08T13:25:21.998Z</time></trkpt><trkpt lat="45.44286226637512" lon="10.699501040139657"><ele>67.0</ele><time>2026-04-08T13:25:23.998Z</time></trkpt><trkpt lat="45.44294530860998" lon="10.699582722597748"><ele>67.0</ele><time>2026-04-08T13:25:25.998Z</time></trkpt><trkpt lat="45.44301057734403" lon="10.699584486900957"><ele>67.0</ele><time>2026-04-08T13:25:27.998Z</time></trkpt><trkpt lat="45.44308540263466" lon="10.699512938460435"><ele>66.83333333333333</ele><time>2026-04-08T13:25:30.998Z</time></trkpt><trkpt lat="45.443115740049585" lon="10.699401304165026"><ele>66.66666666666666</ele><time>2026-04-08T13:25:33.998Z</time></trkpt><trkpt lat="45.443144764968714" lon="10.69930888103278"><ele>66.5</ele><time>2026-04-08T13:25:35.998Z</time></trkpt><trkpt lat="45.44318857956721" lon="10.699216054080786"><ele>66.33333333333333</ele><time>2026-04-08T13:25:38.998Z</time></trkpt><trkpt lat="45.4432409230714" lon="10.699125534476781"><ele>66.16666666666667</ele><time>2026-04-08T13:25:42.998Z</time></trkpt><trkpt lat="45.44325701591021" lon="10.69902628286641"><ele>66.0</ele><time>2026-04-08T13:25:45.998Z</time></trkpt><trkpt lat="45.443197690265535" lon="10.698972300353784"><ele>66.0</ele><time>2026-04-08T13:25:49.998Z</time></trkpt><trkpt lat="45.44313519331135" lon="10.698914480715432"><ele>66.0</ele><time>2026-04-08T13:25:53.998Z</time></trkpt><trkpt lat="45.44313578516249" lon="10.698737662673068"><ele>66.0</ele><time>2026-04-08T13:26:42.998Z</time></trkpt><trkpt lat="45.44314453605792" lon="10.69861536846301"><ele>66.0</ele><time>2026-04-08T13:26:45.998Z</time></trkpt><trkpt lat="45.44317376885667" lon="10.698531798535035"><ele>66.0</ele><time>2026-04-08T13:26:48.998Z</time></trkpt><trkpt lat="45.44312540581426" lon="10.69846128274383"><ele>66.0</ele><time>2026-04-08T13:29:14Z</time></trkpt><trkpt lat="45.44307039230804" lon="10.698505897104432"><ele>67.0</ele><time>2026-04-08T13:29:34Z</time></trkpt></trkseg></trk></gpx>